ECMWFNIL_925_thetae_000.txt.gz
Theta_e
344 342 341 341 339 339 340 338 338 338 339 340 341 340 341 341 341 342 341 339 340 340 339 340 342 343 345 345 344 343 343 343 344 344 343 342 343 342 340 341 340 340
343 342 340 340 338 337 337 337 338 338 337 338 339 338 338 338 338 339 338 337 339 339 337 338 340 340 341 343 341 340 341 342 343 345 344 341 341 342 341 340 340 339
341 341 340 339 338 336 337 337 338 338 338 339 339 339 339 339 339 339 337 338 339 339 339 339 339 339 339 340 340 338 338 341 342 344 344 340 340 344 343 341 339 338
339 340 339 338 338 338 338 338 337 337 338 338 338 338 338 338 338 338 338 340 340 339 340 341 339 338 338 338 339 338 337 338 339 341 342 341 342 345 344 342 340 339
337 336 335 335 335 336 336 335 334 334 336 336 336 336 336 336 337 337 337 339 339 338 338 340 339 338 338 337 337 338 338 337 339 341 343 343 343 344 344 342 340 340
333 333 333 333 334 334 334 333 333 334 335 336 336 336 335 336 336 336 336 337 338 338 339 340 340 339 338 337 338 340 340 339 341 344 346 345 344 343 344 343 341 340
331 332 332 333 333 333 332 332 332 333 334 335 336 335 335 335 335 335 336 337 338 338 339 340 340 340 340 338 338 339 340 340 341 343 344 344 344 342 341 342 342 341
331 332 332 332 331 330 331 331 332 333 334 335 335 335 336 335 335 336 337 338 338 338 338 338 339 340 340 339 339 340 340 341 341 342 342 341 342 340 339 340 342 341
331 331 331 331 330 327 329 331 332 334 335 335 335 335 335 334 334 336 337 337 338 337 337 338 338 339 339 340 340 341 341 341 340 339 339 339 341 340 339 341 343 342
331 331 330 331 329 327 329 331 333 334 334 335 335 334 333 333 334 335 335 336 337 338 338 337 338 339 339 339 340 340 340 340 340 339 338 338 339 340 340 341 343 343
331 330 330 330 330 329 330 331 333 334 335 335 335 333 332 332 334 333 333 333 334 337 337 336 337 337 337 339 339 340 339 340 339 338 337 337 337 338 339 340 342 342
331 330 330 330 330 330 330 331 332 334 336 336 335 335 333 332 333 332 332 331 332 334 336 335 336 335 336 338 338 336 336 335 335 335 336 337 337 337 337 338 341 342
332 332 330 330 329 330 330 330 330 332 335 336 337 336 335 334 333 332 332 331 331 332 334 336 337 336 336 338 336 334 334 334 335 336 336 338 338 339 339 339 340 341
332 332 331 329 329 329 329 329 329 330 333 335 337 337 336 334 334 333 332 331 330 331 333 335 337 338 337 337 337 336 337 337 337 337 338 338 339 340 340 340 340 341
333 333 331 329 329 329 329 329 329 329 330 331 333 335 335 334 333 332 332 330 331 332 333 334 336 337 337 336 337 337 338 338 338 338 337 338 339 340 341 341 341 342
332 333 332 330 330 330 329 329 329 329 329 329 330 331 333 333 332 332 331 330 331 333 333 334 335 336 337 336 334 335 337 338 338 337 337 339 340 341 341 342 342 342
330 333 332 330 331 332 331 329 328 328 328 328 329 330 331 331 332 333 331 330 332 333 333 335 336 336 336 334 332 333 336 338 339 338 338 339 341 342 342 342 342 342
329 331 331 330 332 333 332 330 329 328 328 328 329 330 329 329 331 332 331 329 332 334 334 335 335 332 332 332 332 334 336 338 339 339 339 339 340 342 343 343 342 342
327 329 329 330 332 333 333 332 330 329 329 328 329 329 329 329 330 331 330 329 332 334 333 334 332 328 328 332 333 334 336 338 339 339 339 339 339 341 343 343 341 340
326 327 328 328 331 333 333 332 331 330 329 329 329 329 329 330 330 330 330 330 333 333 331 331 329 327 329 332 332 333 335 337 339 340 339 338 337 338 342 343 341 339
324 325 325 326 329 333 334 333 332 332 330 329 329 329 329 331 330 329 329 330 333 333 331 330 328 327 329 331 330 332 335 336 338 340 339 337 337 337 339 340 339 338
325 325 326 326 328 331 333 334 332 331 328 328 329 328 329 330 329 328 329 330 332 332 331 331 329 328 330 331 331 333 336 336 338 340 339 336 336 336 337 338 337 337
326 327 327 328 328 330 333 334 332 329 325 325 327 328 328 329 328 327 328 330 331 332 331 331 330 328 329 330 330 332 334 335 336 338 338 336 335 336 336 337 337 336
325 326 327 328 330 332 333 333 330 327 324 325 326 327 327 328 328 328 329 329 330 330 329 329 330 329 326 327 328 330 332 332 333 334 335 334 334 335 335 337 338 337
323 325 327 329 329 331 332 331 327 324 324 324 325 327 328 329 329 328 328 328 328 329 328 327 330 330 326 324 326 328 329 331 331 331 331 331 331 331 331 332 335 336
322 324 326 328 327 327 329 328 325 324 324 324 325 327 329 329 329 330 329 327 328 328 328 327 328 329 326 325 325 325 325 328 330 330 329 329 329 329 329 329 330 332

ECMWFNIL_925_thetae_003.txt.gz
Theta_e
337 337 338 338 338 338 338 337 336 337 337 338 338 338 338 339 339 340 339 340 340 339 340 339 339 338 337 337 337 337 339 340 342 343 344 345 344 342 341 340 342 343
336 336 336 335 335 335 336 336 336 337 337 336 337 337 338 338 339 339 339 339 340 340 340 339 338 338 338 338 339 338 339 339 339 340 343 344 342 341 340 339 341 342
333 333 333 333 333 333 333 333 334 335 335 334 335 335 336 337 336 337 336 337 337 338 337 337 336 336 337 339 339 339 339 339 338 338 341 342 341 340 340 339 340 340
332 332 332 332 333 332 333 333 333 333 333 333 334 334 335 336 335 335 335 335 336 335 336 336 336 337 337 339 340 340 340 340 339 339 340 340 340 340 339 340 340 340
331 331 331 331 332 332 332 332 332 332 332 332 333 333 334 335 335 335 335 335 336 336 336 336 336 337 337 338 338 339 340 340 340 340 341 341 340 340 339 340 341 340
330 330 331 331 331 330 329 330 331 331 332 332 333 333 334 335 335 335 334 335 335 335 336 336 336 337 337 337 338 339 339 340 340 340 340 340 340 340 339 339 339 339
330 330 330 331 330 329 327 329 331 331 332 333 333 333 334 334 334 333 333 333 333 333 333 333 334 336 337 337 338 338 339 339 340 339 340 339 340 340 339 339 338 338
330 330 329 330 330 328 327 329 331 332 332 333 333 333 334 334 332 332 332 332 331 331 331 330 331 333 335 336 337 338 338 339 339 340 340 340 340 341 341 340 340 339
329 329 329 329 330 329 329 329 330 330 332 334 334 334 334 333 332 332 331 331 331 331 331 330 331 332 334 335 336 336 337 338 339 339 340 340 341 342 342 342 341 340
329 329 329 329 329 328 329 330 330 330 331 333 335 334 334 334 333 334 334 333 333 331 331 330 330 332 334 336 335 335 336 337 338 339 339 340 340 341 341 342 341 341
328 329 330 329 328 328 329 329 330 329 329 331 333 333 335 335 335 336 336 335 334 333 331 330 331 332 334 336 335 335 336 336 337 338 339 339 339 339 340 340 340 340
328 329 330 330 328 328 329 329 328 329 328 329 329 330 331 332 334 336 335 335 334 333 331 331 332 333 334 336 336 336 335 335 336 337 338 338 338 338 338 338 339 339
329 329 331 330 329 329 329 329 329 328 328 328 328 328 328 329 330 333 334 334 333 332 331 331 333 334 334 335 336 335 334 335 336 337 338 338 337 337 337 338 338 338
328 328 330 331 330 329 330 330 329 328 328 328 327 328 328 328 329 331 332 332 332 331 331 331 333 334 332 331 332 333 334 334 335 336 336 336 337 336 336 337 337 337
326 327 329 330 330 330 331 331 331 329 328 328 328 328 328 328 328 329 330 331 330 330 331 332 332 332 329 328 330 333 333 334 333 333 334 335 336 337 337 337 337 337
325 327 328 328 329 329 331 332 332 330 329 328 329 328 329 329 328 328 328 330 330 330 331 332 331 329 328 328 330 331 331 332 332 333 334 334 335 337 337 337 337 337
325 327 327 327 327 328 330 332 332 332 330 330 329 327 328 329 329 329 328 329 329 329 331 332 330 328 328 329 330 331 331 332 332 332 334 335 335 336 336 337 337 337
325 327 327 326 326 326 328 331 332 333 332 330 329 328 328 329 329 329 328 328 329 330 331 332 330 328 327 327 329 330 330 332 333 333 334 335 336 336 336 337 337 338
326 327 326 325 326 326 327 329 331 333 332 329 328 327 327 329 328 328 327 327 329 330 330 331 330 327 326 325 327 329 330 331 334 334 335 335 336 338 337 337 338 338
325 326 326 325 327 327 328 329 331 333 331 327 326 326 327 329 328 328 327 327 329 331 330 329 329 327 325 324 325 327 329 331 333 334 335 336 338 339 338 338 337 337
325 325 326 326 327 328 329 330 331 331 328 325 325 326 326 328 328 328 328 328 329 331 329 327 328 328 325 324 324 325 328 330 331 333 335 337 338 338 337 337 337 337
325 325 324 324 326 328 330 330 329 327 326 324 325 326 327 328 328 328 328 328 328 330 329 325 327 328 325 324 325 325 327 329 329 330 333 334 334 335 336 336 337 337
324 324 322 323 326 328 328 329 328 326 325 325 326 326 327 328 329 328 329 329 328 329 329 325 325 327 325 324 324 324 326 328 327 327 329 329 328 330 332 333 334 336
323 324 323 324 327 327 327 328 327 326 326 326 327 327 327 327 328 328 328 329 328 329 329 326 325 326 327 326 325 325 326 327 325 324 324 325 325 325 326 327 328 331
324 324 323 323 326 327 327 326 326 326 325 326 326 328 327 325 325 325 325 328 329 328 327 327 326 326 328 327 325 325 327 326 323 321 321 321 322 322 321 321 323 324
323 323 323 322 324 325 324 324 324 323 323 325 326 327 327 325 323 323 322 323 327 328 327 327 327 327 328 327 325 326 327 326 323 321 320 320 321 321 320 320 320 320

ECMWFNIL_925_thetae_006.txt.gz
Theta_e
330 331 331 331 331 331 332 332 334 335 334 334 334 333 334 335 336 336 336 337 337 337 338 339 340 340 340 340 340 339 340 339 339 339 339 340 341 342 343 343 343 343
330 330 330 330 330 330 331 332 332 333 333 333 333 332 333 334 334 335 335 335 335 334 335 335 336 337 337 338 338 339 339 339 339 339 339 340 340 341 342 342 343 343
330 329 329 330 330 329 330 331 331 331 332 331 332 332 333 333 333 334 334 334 334 333 333 333 333 334 334 335 336 337 338 338 339 339 339 340 340 340 341 340 341 342
329 329 329 330 330 329 330 329 329 330 331 331 331 332 332 333 334 334 334 333 332 331 331 331 331 331 331 332 333 334 336 336 337 338 338 339 339 339 339 340 339 340
328 328 330 330 330 330 329 328 327 329 331 332 332 332 333 333 334 333 332 330 330 330 329 328 328 328 329 329 331 332 334 335 335 336 337 337 339 339 339 339 340 339
328 328 329 329 329 329 329 328 327 329 331 331 333 333 333 333 333 333 331 330 330 330 328 328 328 328 329 330 331 332 332 333 334 335 336 337 337 339 339 340 340 339
327 328 329 329 329 329 329 329 328 329 330 330 332 333 333 333 333 332 331 331 331 331 331 330 330 330 330 331 331 332 332 332 333 335 335 336 337 338 339 339 340 340
326 328 328 328 328 328 328 328 328 329 330 329 330 332 333 333 333 333 333 333 333 334 333 333 332 332 331 332 331 331 332 332 333 334 335 336 336 337 338 339 339 339
327 327 328 328 328 328 328 328 328 329 329 329 329 330 331 331 331 332 332 333 334 334 334 334 334 333 332 332 332 332 332 332 332 333 334 335 336 337 338 338 339 338
327 327 327 328 328 328 329 328 328 328 328 328 328 328 329 328 328 329 329 330 332 333 334 334 333 332 332 332 332 332 332 332 333 334 335 335 336 336 337 338 338 338
326 328 328 328 328 328 329 329 329 329 328 328 328 328 328 327 327 327 327 328 329 332 333 332 331 331 331 331 330 330 330 331 333 334 334 335 335 336 336 337 337 337
326 327 327 327 327 328 328 329 330 330 329 328 327 327 328 328 327 327 327 327 327 329 330 330 330 330 329 329 329 329 329 330 331 332 332 333 334 334 335 336 337 337
325 326 326 326 327 327 327 328 330 331 331 330 329 328 328 328 328 328 328 327 326 327 328 328 330 330 329 329 329 329 329 329 329 330 331 331 332 333 335 336 337 337
325 324 325 326 326 326 327 328 330 331 332 331 330 329 328 328 328 328 328 327 326 326 327 328 330 331 329 329 328 327 326 326 327 328 329 330 331 332 333 335 336 337
326 325 324 326 326 326 326 327 328 330 331 331 331 330 329 328 328 327 327 328 327 327 327 327 329 330 329 329 328 325 324 324 324 325 327 328 330 331 331 333 334 336
327 326 325 326 326 325 325 326 327 328 330 332 332 330 329 328 328 328 327 327 328 328 327 328 330 329 328 329 328 325 324 324 324 325 326 327 328 330 331 331 332 334
326 326 325 325 325 325 325 326 327 328 330 330 330 328 327 327 327 327 328 327 328 328 328 329 330 328 327 328 327 324 324 325 325 325 327 327 329 329 330 331 332 333
325 326 325 325 325 325 326 327 328 329 329 329 328 326 324 325 326 327 328 327 328 329 328 329 329 327 326 327 325 324 325 326 326 326 327 329 330 330 331 331 332 333
326 326 325 325 325 324 325 327 329 328 328 326 325 324 324 325 326 327 328 328 328 329 328 327 327 326 326 327 325 324 325 325 325 325 326 327 328 330 332 333 333 334
326 327 326 324 323 322 324 328 328 328 326 325 325 325 324 326 327 328 328 327 327 328 328 327 327 325 325 327 326 325 325 324 323 323 324 324 324 325 328 331 332 334
327 327 326 323 322 322 324 326 327 327 327 326 326 325 325 326 326 327 328 328 327 328 328 327 327 325 324 327 327 326 325 323 321 321 322 322 321 322 323 325 327 329
327 326 324 324 323 322 324 325 325 326 326 325 325 325 326 326 325 325 327 327 327 329 328 328 327 325 324 327 328 327 326 323 321 321 321 320 320 320 320 321 323 325
327 325 324 324 323 322 324 325 324 324 324 323 324 325 326 325 324 323 324 323 325 327 328 328 328 326 327 328 328 327 326 323 320 320 320 320 320 320 319 320 320 322
328 327 326 325 322 321 323 323 323 323 322 322 324 326 327 326 325 324 322 322 322 323 327 329 328 326 327 329 327 327 327 325 322 321 321 320 320 319 319 319 319 320
329 328 326 323 321 321 321 322 322 322 321 321 322 325 325 325 325 324 322 322 321 321 324 328 327 326 327 328 327 327 329 327 324 322 321 320 321 320 320 319 319 318
329 328 326 322 321 321 320 321 322 321 320 321 321 322 322 322 324 325 323 322 322 322 322 325 326 326 327 328 328 329 330 328 326 324 322 322 321 321 321 321 320 318

ECMWFNIL_925_thetae_009.txt.gz
Theta_e
329 328 328 329 331 332 333 335 335 335 335 335 335 336 336 336 336 337 337 338 338 339 339 338 338 338 339 340 339 339 339 339 339 340 340 340 339 340 341 341 340 341
327 326 327 328 329 330 331 332 333 333 333 334 335 335 335 335 336 337 336 337 337 338 338 337 336 335 336 337 337 337 338 338 338 340 341 341 340 340 340 340 341 341
326 326 327 328 329 330 330 330 330 329 330 333 334 334 335 335 335 336 336 336 336 335 334 333 333 332 333 334 335 335 336 336 336 338 339 340 340 339 338 339 340 340
327 327 327 328 329 329 329 329 329 328 328 330 331 333 335 335 335 336 337 336 334 331 330 331 331 333 333 333 333 334 335 334 335 336 336 337 338 338 338 338 339 339
327 326 327 328 329 329 328 328 328 328 328 329 329 330 333 336 335 335 336 335 333 331 332 333 334 334 334 333 333 334 334 335 335 336 335 336 337 338 339 339 339 339
326 325 327 328 328 328 328 328 328 328 328 329 329 329 331 334 335 336 336 335 334 334 335 335 335 335 334 334 333 333 333 333 334 335 335 335 335 336 337 338 339 339
325 325 327 327 328 328 328 328 328 328 328 328 329 329 329 330 333 334 334 334 335 334 333 334 334 333 333 334 333 332 333 333 333 334 335 335 335 335 335 336 338 339
324 325 326 327 328 327 328 328 329 328 328 328 329 328 328 328 329 329 330 332 334 334 333 332 332 332 332 333 332 331 331 332 332 332 333 334 335 335 335 336 336 337
324 325 326 327 327 327 327 328 329 329 329 328 328 328 328 328 328 328 329 330 332 332 333 332 331 332 333 333 332 331 331 330 330 330 330 331 332 333 334 335 336 336
324 325 325 326 326 326 326 327 329 330 330 330 329 328 327 327 327 327 328 329 329 330 331 330 330 331 332 332 332 331 331 330 329 329 328 328 328 329 331 333 335 337
324 324 325 326 326 325 326 328 330 329 329 330 330 330 328 328 328 328 328 328 329 329 328 326 326 327 329 331 332 331 330 329 329 328 328 327 326 327 328 330 333 335
324 324 325 325 325 325 326 328 328 328 329 330 331 331 330 329 329 328 328 328 328 328 327 326 325 326 327 330 331 329 329 329 328 328 328 328 327 328 329 330 332 332
324 324 325 324 324 324 325 326 326 326 327 329 330 331 331 330 330 329 328 327 326 327 327 328 327 326 328 331 330 328 327 328 327 327 328 328 328 328 328 329 331 332
324 325 325 325 324 324 325 325 325 326 326 327 329 331 331 330 329 328 328 327 327 327 327 328 327 327 329 331 329 326 326 327 327 327 327 327 327 327 328 328 329 331
325 325 325 325 325 325 325 325 325 326 326 327 328 330 330 329 327 326 326 326 327 327 327 328 327 327 328 328 326 325 325 327 327 327 326 327 326 327 328 328 329 330
324 324 325 325 325 325 325 325 325 325 326 327 329 329 328 326 324 324 325 326 327 327 328 328 328 327 327 326 325 325 326 327 327 325 325 326 326 326 327 327 327 329
324 324 325 325 325 325 324 324 324 325 326 328 328 327 325 324 324 324 326 327 327 328 327 329 330 329 327 325 324 325 327 327 326 324 325 325 325 325 325 324 325 328
325 325 325 326 326 325 323 322 322 325 327 328 328 326 324 324 324 325 326 326 328 328 327 329 331 330 327 325 324 325 327 327 324 323 324 324 323 323 322 322 323 326
326 326 326 327 326 324 323 322 321 324 327 328 327 326 324 324 325 325 325 324 325 327 326 329 330 329 328 326 325 325 327 327 324 322 322 323 322 321 320 320 322 323
326 326 327 327 326 324 323 322 321 323 325 325 325 324 323 324 325 325 324 323 323 323 324 326 329 328 328 327 326 327 328 328 325 322 321 321 321 321 320 320 320 321
326 326 327 326 325 324 323 321 321 323 324 324 323 323 323 324 325 325 324 323 322 321 322 323 326 327 328 327 326 328 328 327 327 324 321 321 321 321 320 319 319 320
327 327 327 326 325 324 322 320 321 323 323 323 322 321 323 325 325 325 324 323 323 321 322 324 324 326 328 327 326 327 327 328 328 326 323 322 322 322 322 321 320 319
328 327 327 327 327 324 322 320 320 321 322 321 321 321 322 324 324 324 323 323 323 322 323 324 323 324 327 327 326 327 327 328 329 328 325 324 323 323 323 322 321 320
328 328 328 329 327 324 321 321 321 321 321 321 320 321 321 321 321 322 322 323 324 324 324 323 322 324 326 326 326 327 328 328 329 329 328 327 325 324 324 324 323 322
330 329 329 329 327 323 321 321 321 321 321 320 320 322 321 321 321 321 322 323 325 325 323 322 322 323 325 326 326 327 328 329 330 329 329 329 328 326 326 325 325 325
330 329 328 329 327 324 322 321 320 321 321 320 321 323 322 321 321 321 321 323 324 323 323 322 322 323 324 326 327 328 328 329 329 330 329 329 329 328 327 327 327 327

ECMWFNIL_925_thetae_012.txt.gz
Theta_e
338 338 337 337 338 339 339 339 338 338 338 338 337 337 337 337 337 337 337 339 340 340 341 341 341 341 340 340 341 340 340 341 341 341 342 343 343 342 342 343 343 344
337 337 337 337 337 338 338 338 338 338 338 338 337 337 337 337 337 337 337 338 338 339 340 340 339 340 339 338 338 338 339 339 340 339 340 342 343 343 342 342 342 343
336 336 336 335 335 336 336 336 337 337 337 337 337 336 336 336 336 337 337 337 337 338 339 339 338 338 338 337 337 337 338 338 338 338 338 339 340 340 341 342 342 341
337 337 336 335 335 335 335 336 336 337 336 336 336 336 336 336 336 336 336 337 337 338 338 338 339 338 338 338 338 337 337 338 338 337 337 338 338 338 337 338 339 340
337 337 336 335 335 335 335 336 336 336 336 336 335 335 335 336 336 336 336 336 337 337 336 336 337 337 337 338 337 337 336 336 336 337 337 337 337 337 336 335 335 336
337 337 336 336 336 336 335 335 335 335 335 335 335 335 335 336 336 336 336 337 336 336 335 335 336 336 336 336 336 336 336 335 335 335 336 335 335 336 336 336 336 335
337 337 336 336 335 335 335 335 335 335 335 335 335 335 335 336 336 336 337 337 336 336 336 336 336 337 336 336 336 336 335 335 335 335 335 334 334 333 334 335 336 336
336 336 335 335 335 335 334 334 334 334 334 335 334 334 335 336 336 336 337 338 337 337 337 337 336 337 336 336 336 336 336 335 334 334 334 334 333 334 334 334 334 334
336 335 334 334 333 333 333 332 332 332 333 334 333 333 333 334 335 336 337 338 338 337 338 337 336 335 335 335 336 336 336 335 334 334 333 333 332 333 333 333 333 333
336 335 334 333 331 331 331 330 330 330 331 332 332 332 333 334 335 336 337 338 338 338 339 338 336 334 334 334 335 335 335 334 333 333 332 331 331 332 332 332 333 333
336 335 333 332 330 330 329 329 329 329 330 330 331 331 332 332 333 335 336 337 337 337 338 338 337 335 335 335 335 335 335 333 332 332 331 330 330 331 331 331 331 332
335 334 333 331 330 330 329 329 329 329 329 329 329 329 330 330 332 333 335 337 338 338 337 338 337 336 336 336 335 335 334 332 331 331 330 329 330 330 330 330 330 330
334 333 332 331 330 330 330 330 329 329 329 329 328 328 328 329 331 333 335 336 338 338 337 337 337 337 336 336 336 335 333 332 331 330 329 329 330 330 330 329 329 328
333 332 332 331 331 331 331 330 330 329 329 329 329 329 328 329 331 332 333 334 335 336 336 337 338 338 337 336 336 334 332 332 331 330 329 329 330 330 329 328 328 327
333 332 332 332 332 331 331 330 330 329 329 328 328 328 328 330 331 331 332 332 333 335 336 337 338 339 338 335 333 332 331 331 330 329 329 329 329 330 328 327 326 324
333 333 332 332 331 331 331 330 329 328 328 327 328 328 329 330 331 331 331 331 332 334 335 336 337 339 338 334 329 328 329 330 330 330 329 329 329 329 327 325 324 323
333 333 332 332 331 331 330 330 329 327 327 327 328 330 330 330 330 331 331 331 332 333 333 334 335 337 338 334 328 326 326 329 331 330 329 330 329 327 326 325 324 323
333 333 333 331 331 331 330 330 328 327 327 327 329 329 329 329 329 330 331 332 333 332 332 331 332 334 335 333 330 327 326 327 330 331 330 330 328 326 326 325 325 324
333 333 333 331 331 331 330 329 328 327 327 327 328 328 328 329 329 329 331 332 332 331 331 331 330 331 333 332 330 328 326 327 329 331 331 330 329 327 326 325 324 324
334 334 333 332 332 331 331 329 327 327 327 327 328 328 328 329 329 329 330 331 330 329 329 330 329 329 330 330 329 328 326 326 328 331 331 330 329 329 328 326 325 325
334 334 333 333 333 332 331 329 327 327 327 327 328 328 328 328 328 328 329 329 328 328 328 328 328 328 327 327 327 327 325 325 328 331 331 330 330 330 329 328 327 326
335 335 334 334 334 332 330 328 327 327 327 328 329 328 327 326 326 326 327 327 327 327 328 328 328 328 327 326 326 326 325 326 330 332 331 331 331 330 329 329 328 328
335 335 335 335 334 332 330 328 327 327 326 328 329 328 326 325 325 325 326 326 326 327 328 329 328 328 327 326 325 326 326 328 331 332 332 332 331 330 329 329 328 328
335 335 336 335 334 332 330 327 327 326 327 328 329 328 326 325 325 326 326 326 326 326 327 328 327 327 327 326 325 325 326 328 331 332 331 331 331 330 329 328 328 328
335 335 336 335 333 332 329 328 328 327 327 328 328 327 326 326 325 326 326 326 326 326 326 327 328 327 327 326 326 325 326 328 331 332 331 330 331 330 329 329 328 328
335 335 336 335 333 332 330 330 329 328 327 327 327 326 325 325 326 326 326 326 326 326 326 327 328 327 327 327 326 326 327 326 328 330 331 331 331 330 329 329 329 329

ECMWFNIL_925_thetae_015.txt.gz
Theta_e
340 339 339 338 338 338 339 339 339 339 339 339 339 339 339 339 339 338 338 338 338 338 339 342 344 345 343 342 341 341 341 343 343 342 342 342 342 343 342 341 341 340
338 338 338 338 338 338 338 338 337 337 338 339 339 339 339 339 339 339 339 338 338 337 338 340 341 341 341 339 338 338 339 341 342 341 339 339 340 341 341 339 339 340
339 338 338 338 337 338 337 336 336 336 338 338 338 338 338 338 338 339 338 338 338 337 338 339 340 339 340 340 340 340 339 339 341 340 337 337 340 340 339 336 337 338
340 339 339 338 337 337 337 336 336 336 337 338 338 337 337 338 338 338 338 338 337 338 339 338 338 339 339 340 341 340 340 339 339 338 337 338 340 340 338 337 338 338
340 340 339 338 338 337 337 336 336 337 337 337 337 336 337 337 337 338 337 337 337 337 336 336 336 337 337 337 338 338 338 338 337 338 339 339 339 338 336 336 337 337
340 339 339 339 338 338 337 336 336 336 337 336 336 336 335 336 336 336 337 337 336 335 335 335 335 336 336 337 338 339 340 339 337 338 339 339 338 336 335 333 334 335
341 340 340 339 339 338 337 336 336 336 336 336 336 335 335 335 335 336 336 337 337 337 337 337 337 337 337 338 338 338 339 339 337 338 339 338 338 336 335 333 333 335
340 340 339 339 338 337 336 335 335 335 334 335 336 335 335 334 334 334 335 336 337 338 338 338 338 338 337 337 337 337 338 337 336 337 337 337 337 335 333 332 332 333
339 338 338 338 337 336 335 334 332 332 332 333 333 333 333 334 334 334 335 336 337 338 339 338 339 339 338 336 335 337 339 338 336 336 336 335 335 333 331 331 332 331
338 338 338 337 335 334 333 332 331 330 330 330 331 332 332 333 333 333 334 335 337 338 338 339 340 340 338 336 335 337 338 338 337 336 335 334 334 332 331 331 331 332
338 338 337 336 335 333 331 331 330 330 329 329 330 330 330 330 331 331 332 333 335 338 339 339 340 339 338 337 336 337 337 337 337 335 335 334 333 331 330 330 331 332
337 337 337 336 334 333 332 332 331 330 330 329 330 329 328 328 328 329 331 332 334 338 339 339 339 339 340 340 339 338 338 337 337 335 334 334 332 331 330 330 332 331
335 336 336 335 333 333 333 333 332 332 332 331 330 330 329 328 328 328 329 331 333 335 336 336 337 338 340 341 341 340 339 338 337 335 334 332 331 330 330 330 331 330
335 335 335 334 333 333 333 333 333 333 333 332 332 330 329 329 328 328 329 330 331 332 333 335 336 337 339 339 339 340 338 336 335 334 333 331 331 331 330 330 330 329
335 335 334 334 334 334 334 334 333 333 333 332 331 330 329 329 329 329 330 330 331 331 332 335 337 338 337 337 338 337 335 332 331 332 332 331 331 331 331 330 329 328
336 336 335 334 334 334 334 334 334 333 333 332 330 329 329 329 330 330 330 329 330 331 333 335 336 336 335 334 334 335 333 331 331 331 331 331 332 332 333 331 328 328
337 336 335 335 335 335 335 334 334 333 333 331 330 329 330 330 330 330 330 329 330 332 333 334 335 333 332 332 330 331 332 332 331 330 330 330 331 332 333 332 329 329
336 336 335 335 335 336 335 335 334 333 332 331 330 329 330 330 330 330 330 330 331 332 333 333 333 332 331 330 329 328 330 331 331 330 329 329 330 331 332 332 331 329
335 335 336 336 336 336 335 335 334 333 332 330 329 329 329 330 330 330 330 330 330 332 331 331 331 331 330 329 328 327 327 329 330 330 330 329 330 330 331 332 332 331
335 336 336 336 337 336 335 335 334 333 331 330 329 329 329 330 329 329 328 328 329 330 330 329 330 330 329 328 328 327 327 327 329 330 330 330 329 329 329 331 333 332
336 336 336 336 337 336 336 335 334 333 331 330 329 329 330 330 329 328 328 327 327 328 328 328 329 329 328 328 328 327 327 326 327 329 331 331 329 328 329 331 333 332
337 336 337 337 337 336 336 336 334 333 331 330 330 330 330 330 329 327 327 327 328 328 328 328 330 330 329 328 327 327 326 326 328 331 332 331 330 329 331 333 334 332
337 337 337 337 337 337 337 336 334 332 330 330 330 330 330 330 328 328 327 327 328 329 328 328 329 329 328 327 327 327 326 327 330 332 331 329 328 330 332 334 334 332
337 337 337 337 337 337 336 335 334 332 331 330 329 329 330 330 329 328 328 328 328 328 328 327 327 328 328 328 327 327 326 328 331 331 330 328 328 328 330 332 333 331
337 337 337 336 336 336 335 334 333 331 330 330 329 330 330 328 328 328 327 328 328 327 327 326 326 327 328 328 327 327 326 327 330 332 330 328 328 328 329 329 330 330
337 337 337 335 334 335 334 334 333 331 331 331 330 329 328 328 328 327 328 328 329 329 328 327 327 327 329 328 327 326 326 325 327 330 330 328 328 328 328 327 327 329

ECMWFNIL_925_thetae_018.txt.gz
Theta_e
342 341 340 339 340 339 339 340 340 340 339 339 339 340 340 340 340 340 339 340 340 340 340 338 339 340 340 341 341 339 338 339 339 340 339 338 337 335 337 338 338 337
342 340 339 339 339 339 340 340 339 338 337 337 338 339 339 340 340 340 339 340 340 340 340 339 339 339 340 340 340 339 339 339 338 339 338 337 336 336 337 338 338 338
342 340 339 339 339 339 339 339 338 337 336 337 338 338 338 339 339 339 339 339 339 340 340 339 339 339 339 339 339 339 339 339 339 339 339 338 337 338 338 337 337 336
342 341 339 338 339 338 338 339 337 337 336 337 337 337 337 337 338 338 338 338 338 338 338 338 338 337 337 337 337 338 338 339 339 338 338 338 338 338 338 337 335 335
342 341 341 340 339 338 339 338 337 337 337 337 337 336 336 336 337 337 336 337 337 337 337 337 337 336 336 336 336 337 338 338 338 338 338 339 339 338 338 337 335 333
342 342 341 340 339 339 338 338 337 337 337 336 336 336 336 336 336 336 336 336 336 336 337 337 337 337 337 337 337 338 339 339 339 338 338 339 339 338 338 337 335 333
343 342 341 340 340 340 340 339 337 337 335 336 336 336 337 336 336 335 335 335 335 336 337 337 338 338 338 338 338 337 338 338 338 337 336 337 337 337 337 335 333 332
344 343 341 340 340 341 340 339 337 336 335 336 336 336 336 336 335 335 334 334 335 336 337 337 338 338 338 337 337 337 336 337 337 337 336 337 337 336 335 334 333 332
343 343 340 340 340 339 338 337 336 334 334 335 334 333 333 333 332 333 333 334 335 335 336 336 337 338 337 337 337 336 336 337 337 337 337 336 336 336 335 334 332 331
342 341 339 339 339 337 337 335 334 333 332 332 331 330 330 330 330 331 332 332 333 334 334 335 337 338 337 337 337 336 335 337 337 336 337 337 335 335 334 333 332 331
341 340 339 339 338 337 335 333 332 331 331 329 328 329 330 331 331 330 329 330 331 332 332 333 336 338 338 337 336 336 336 336 335 334 335 335 335 334 333 332 331 331
341 339 339 338 337 337 335 333 332 332 331 330 331 332 332 331 330 329 329 329 330 331 331 332 335 337 337 337 336 337 336 332 330 332 334 333 333 334 333 331 331 331
340 340 339 338 337 336 335 334 334 333 333 333 334 333 332 331 331 329 329 330 330 331 331 332 333 333 334 337 337 337 335 332 331 334 334 333 333 332 332 331 330 330
337 338 337 337 336 336 335 335 335 334 334 334 334 334 333 332 331 330 329 330 331 331 330 331 332 332 334 336 336 336 335 334 333 333 332 332 332 332 331 331 331 330
336 336 337 337 336 336 335 335 335 335 335 335 335 334 333 331 330 330 331 331 331 331 331 331 331 333 334 336 335 335 334 332 332 331 331 331 331 332 331 331 331 331
336 336 336 337 336 335 335 336 336 336 335 335 335 334 333 331 330 330 332 332 331 331 331 331 332 333 335 334 333 333 331 329 329 329 330 331 331 331 330 330 330 330
337 337 337 337 336 335 336 336 336 336 336 335 335 334 333 331 331 331 332 331 331 331 331 332 332 333 334 333 332 332 330 328 328 329 330 331 331 330 330 329 330 329
338 339 338 337 336 337 336 336 336 336 336 335 335 333 332 331 330 331 331 331 331 331 331 331 332 332 331 331 331 331 329 328 327 328 330 330 331 331 330 331 330 329
339 339 338 338 338 337 337 337 337 337 336 335 335 333 332 330 330 330 331 331 330 330 330 329 329 330 330 330 330 329 328 328 327 327 329 330 331 331 330 332 332 331
338 338 338 337 337 337 337 337 337 337 337 336 334 333 331 330 330 331 331 330 330 329 328 328 328 329 329 329 329 328 328 327 327 327 329 330 330 330 330 331 331 330
339 339 338 337 338 337 337 338 338 338 337 336 335 333 331 331 330 331 331 330 330 329 328 329 329 329 328 328 329 329 328 327 326 327 329 330 331 332 331 329 328 328
340 339 338 338 338 337 338 339 338 338 337 336 335 333 332 331 331 331 331 329 329 328 328 329 329 329 328 327 327 328 328 327 327 329 331 331 332 331 329 327 327 328
339 339 338 338 338 338 338 339 339 338 337 336 334 333 332 331 331 331 331 329 329 329 329 328 328 329 328 327 327 328 327 327 328 330 332 331 331 331 329 328 329 329
339 339 338 338 338 339 339 339 339 338 337 336 334 333 332 330 330 330 330 329 329 329 329 328 328 329 329 327 326 327 328 327 328 330 331 331 331 331 330 329 328 327
339 339 339 339 339 339 339 338 338 337 336 335 334 332 331 330 330 329 329 328 328 329 329 329 329 329 329 328 327 327 328 327 326 328 329 330 330 330 329 328 326 326
339 339 339 338 339 339 338 337 337 336 335 333 333 333 332 331 330 329 329 329 328 328 328 330 331 331 329 327 327 328 329 328 327 327 328 328 328 328 327 325 324 326

ECMWFNIL_925_thetae_021.txt.gz
Theta_e
343 341 339 339 339 338 337 337 338 339 339 338 337 338 339 338 338 338 338 339 339 339 339 339 339 339 338 339 339 339 339 338 338 338 339 338 336 336 337 338 338 337
343 341 340 338 337 336 337 338 338 339 337 336 336 337 338 338 338 338 338 338 338 338 338 338 338 338 338 338 338 338 337 337 337 338 338 337 337 337 338 338 337 336
343 341 339 338 337 338 339 339 338 337 336 335 336 337 338 337 337 337 337 337 337 337 337 337 337 337 336 336 336 336 336 336 337 337 337 337 337 337 337 338 338 335
343 341 339 338 338 338 338 338 337 337 336 336 337 338 336 336 336 337 336 336 336 336 336 336 337 336 336 336 336 336 336 336 337 338 337 337 337 338 337 337 337 336
344 341 339 338 338 338 337 338 337 337 336 336 337 337 336 336 336 335 334 335 336 335 335 336 337 337 337 337 336 336 337 337 337 338 338 338 338 338 337 337 337 336
343 342 341 340 339 338 338 337 337 337 337 336 336 335 336 336 334 334 335 335 335 334 334 335 336 337 337 337 337 337 337 337 337 337 337 337 336 336 336 336 336 335
343 342 341 341 339 338 338 337 337 337 335 335 335 335 336 335 335 335 334 334 334 333 333 333 334 336 337 337 337 337 337 337 336 336 336 336 335 336 336 335 334 334
343 342 341 340 339 338 339 339 339 337 334 334 336 335 335 335 335 335 334 333 333 333 333 333 334 334 336 337 337 337 337 336 336 336 337 336 335 335 335 334 333 334
343 342 342 341 340 339 340 340 338 336 334 335 335 335 336 335 335 335 334 333 333 332 333 334 334 334 334 336 337 337 337 336 336 336 336 336 335 334 334 334 334 333
343 343 343 341 340 340 340 338 337 336 336 335 334 333 334 333 333 333 332 331 331 331 333 334 333 333 333 334 335 337 337 336 336 335 335 334 333 334 334 333 334 333
344 344 342 341 340 339 338 338 337 336 334 332 331 332 332 332 332 331 330 330 330 332 333 333 332 332 332 332 333 334 335 336 336 334 332 331 331 333 333 333 333 333
343 342 341 340 338 338 337 337 336 334 332 331 331 333 333 332 332 330 330 330 330 332 333 332 331 331 331 332 333 333 334 335 336 334 330 328 329 330 331 332 333 332
342 342 341 339 338 338 337 337 336 334 332 332 332 333 332 332 332 331 331 330 330 330 330 330 330 330 330 332 333 334 334 334 334 331 327 325 326 329 331 332 331 331
341 341 340 338 338 338 337 337 335 334 333 333 332 332 332 333 332 332 331 330 330 330 330 330 330 330 331 332 333 334 334 334 332 329 326 325 326 328 330 330 330 330
342 341 339 338 337 337 337 336 334 334 334 333 332 333 333 334 333 332 331 330 330 330 331 331 330 331 332 333 333 334 333 332 331 329 328 327 326 326 327 329 330 330
342 341 339 338 337 337 337 336 334 334 333 334 334 334 334 334 333 332 331 330 331 331 331 330 330 331 332 332 332 333 332 332 331 330 329 328 327 326 327 329 330 330
340 339 338 337 337 336 336 336 335 334 334 335 335 335 335 334 333 332 331 331 331 330 330 330 331 331 330 330 331 331 331 332 331 329 328 327 327 327 327 329 330 330
337 336 336 335 336 336 336 335 334 335 335 335 335 335 335 334 333 332 331 330 331 330 330 330 330 329 329 329 330 330 330 331 330 329 327 327 326 326 327 329 330 329
334 335 335 335 336 336 335 335 335 335 336 336 336 336 335 334 333 332 331 330 330 330 331 329 329 329 329 329 329 328 329 330 329 328 327 327 326 326 328 329 329 329
336 336 335 335 336 335 335 335 335 336 336 336 336 336 335 335 333 332 331 330 331 331 330 329 329 330 330 329 328 327 328 328 328 328 327 327 327 327 328 329 329 329
338 338 337 337 337 336 336 336 336 336 336 336 337 336 336 335 333 332 331 331 331 330 329 329 330 330 329 328 328 327 327 327 327 328 327 327 328 329 329 330 329 329
339 339 338 338 338 337 337 337 336 336 336 337 337 337 336 335 333 332 331 330 330 330 330 330 330 329 328 328 328 327 326 326 327 327 327 327 329 330 330 330 329 329
340 339 339 338 338 338 337 337 337 337 337 337 337 337 336 335 334 332 331 331 330 330 330 330 329 329 328 328 328 327 326 326 327 327 327 327 328 328 329 328 329 330
341 340 339 338 338 338 337 338 338 337 337 338 338 338 337 336 334 333 331 331 330 330 330 329 329 329 328 328 328 328 327 327 327 327 327 326 326 325 326 327 329 329
342 341 340 339 338 338 338 338 338 338 338 338 338 338 337 336 335 333 331 331 329 329 329 329 329 330 329 330 329 328 327 327 328 328 327 325 324 323 323 325 326 325
344 342 340 339 338 338 338 338 338 338 338 339 339 338 337 336 335 333 331 330 329 329 328 328 329 330 330 331 329 327 326 327 329 329 325 322 321 322 321 321 321 321

ECMWFNIL_925_thetae_024.txt.gz
Theta_e
342 341 340 338 337 338 339 340 340 339 337 338 337 335 337 338 338 337 336 337 338 337 336 337 338 338 338 338 337 336 337 337 337 337 337 337 337 336 337 337 337 336
342 341 340 337 337 338 338 338 338 337 337 338 336 335 337 339 338 337 337 337 336 336 336 336 336 337 337 337 337 336 336 335 335 336 336 336 336 337 337 337 337 336
343 342 340 337 337 336 336 337 337 337 339 336 334 334 337 337 337 336 336 336 336 335 336 336 336 336 336 336 337 336 336 335 335 335 336 336 336 337 337 337 337 337
344 341 340 338 336 335 337 338 338 338 337 334 333 335 337 337 336 335 336 336 334 335 335 334 335 336 336 337 336 336 336 336 336 336 336 337 337 337 337 337 336 337
344 343 341 338 337 336 337 339 338 337 336 333 333 337 337 336 335 335 335 334 333 334 334 333 334 335 336 336 336 336 336 336 336 336 336 336 336 336 336 336 335 335
345 343 341 338 337 337 337 337 336 336 336 333 333 336 337 336 335 334 334 333 333 334 334 332 332 333 334 335 336 337 337 336 336 336 335 335 335 335 336 336 336 334
345 343 341 339 337 337 337 336 336 336 333 332 334 336 336 335 335 334 334 334 334 334 333 332 332 332 332 334 335 337 337 336 336 336 336 335 336 336 335 335 335 334
345 344 342 340 339 339 338 337 336 333 330 331 334 334 334 335 335 335 334 335 335 334 334 333 333 332 332 334 335 336 336 336 337 336 336 336 336 336 335 335 335 334
344 344 342 341 340 339 338 336 333 330 330 332 333 333 334 334 335 335 335 335 335 335 335 334 333 333 333 333 335 335 335 336 336 336 335 335 335 335 334 334 334 333
344 344 342 341 341 339 338 335 332 331 331 333 333 334 335 335 335 335 335 334 334 334 334 334 334 334 332 332 333 333 333 333 335 335 335 335 333 332 331 332 333 333
344 343 342 341 341 340 338 335 333 333 334 334 335 335 334 332 332 332 332 331 331 332 332 333 333 334 333 332 333 333 332 332 333 334 335 334 331 328 327 329 331 332
344 343 343 342 341 341 339 336 335 335 336 337 335 332 331 331 331 331 330 330 330 331 331 331 332 332 332 331 332 333 332 332 333 334 334 333 328 325 326 327 329 331
344 343 342 342 341 341 338 335 335 336 337 337 333 331 332 332 332 331 331 330 330 330 330 330 330 330 330 330 331 332 332 332 333 333 334 331 326 325 326 326 328 330
344 342 342 342 341 339 336 333 334 336 336 335 333 332 333 333 332 331 331 331 330 330 330 329 329 330 330 330 330 332 332 333 333 333 333 330 327 326 326 326 328 329
343 342 342 340 339 338 335 332 334 336 337 335 333 333 333 332 331 331 331 332 331 330 330 330 330 330 330 330 331 332 332 333 333 333 332 330 328 327 326 326 327 327
343 341 340 339 339 338 335 333 335 337 337 336 335 333 333 332 331 332 334 333 332 330 330 330 330 330 329 330 331 331 331 332 332 332 331 330 329 328 326 326 325 326
342 341 339 338 339 338 336 335 336 337 337 335 335 333 332 332 332 334 334 332 332 331 330 331 330 330 330 330 331 331 330 330 330 331 331 330 329 328 327 325 324 325
342 341 339 338 339 339 337 336 336 337 336 335 335 333 332 333 334 334 334 333 331 330 331 330 330 330 329 328 329 330 330 330 330 331 331 330 329 328 327 326 326 326
343 342 341 340 340 339 338 337 336 336 336 336 335 333 333 334 335 335 334 333 332 331 331 330 330 330 329 328 329 329 329 329 329 329 330 330 329 328 327 327 327 327
343 343 342 342 341 340 339 338 337 337 336 335 335 334 334 335 334 335 335 334 333 332 330 330 330 330 329 328 329 329 328 328 327 327 329 329 329 328 327 327 327 329
339 341 343 343 342 340 339 337 336 336 335 335 334 334 334 335 335 335 335 333 333 332 330 331 330 330 329 329 330 329 328 327 326 326 327 327 328 327 326 326 328 331
335 338 341 342 340 338 337 336 335 335 335 335 334 333 334 335 335 336 336 335 333 331 331 330 330 329 329 330 330 328 327 326 326 325 326 327 327 326 325 325 327 329
335 336 338 338 336 336 335 335 334 335 335 335 335 335 335 336 336 336 336 336 334 332 331 330 330 330 330 330 329 328 327 327 327 326 326 326 326 325 323 323 324 326
336 336 337 336 336 336 335 335 336 336 336 336 336 336 336 336 337 337 336 336 334 333 332 331 330 331 330 329 329 328 328 328 327 327 326 326 327 325 322 320 320 323
338 338 338 337 337 337 336 337 338 337 336 336 336 337 336 335 337 337 336 334 332 331 332 331 330 330 330 329 328 328 329 328 326 326 326 327 327 325 322 320 320 320
340 339 339 338 338 338 338 338 338 337 336 336 336 337 337 337 337 337 336 334 332 330 330 331 331 330 329 329 329 329 329 327 325 326 327 328 327 323 321 321 320 320

ECMWFNIL_925_thetae_027.txt.gz
Theta_e
338 336 334 333 333 335 335 335 339 341 340 340 339 338 337 336 337 337 335 334 333 334 334 334 335 337 336 336 337 336 335 334 335 335 335 336 336 336 336 336 336 336
338 336 334 333 335 337 337 337 339 340 339 340 338 335 336 336 336 337 335 334 335 335 336 336 336 336 336 336 336 336 336 335 335 335 335 335 335 336 336 336 337 336
338 336 334 336 339 339 337 336 337 338 339 338 336 334 335 336 337 337 336 335 336 335 335 335 335 335 335 336 336 336 336 336 335 335 335 335 335 336 336 336 337 336
337 335 336 338 340 338 336 336 337 338 338 337 336 335 335 335 337 337 336 335 335 334 334 335 335 335 335 335 335 336 336 336 335 335 335 335 335 336 337 337 337 336
335 337 340 340 340 337 335 336 337 337 336 336 336 334 333 335 336 336 335 335 335 333 333 333 333 333 334 335 336 336 336 336 336 336 336 335 335 335 335 336 336 335
336 340 343 341 340 337 335 335 336 336 336 337 336 333 333 336 336 335 335 334 334 333 332 332 332 331 332 333 335 336 336 336 336 336 336 336 335 334 335 335 335 335
337 342 342 341 340 337 335 335 336 337 337 337 335 332 334 336 336 335 334 334 333 333 332 332 333 332 331 331 332 333 334 336 336 336 336 336 336 335 335 335 335 335
338 341 342 342 341 338 336 335 336 337 337 336 335 332 333 334 334 335 334 334 334 334 334 333 333 333 332 331 331 331 332 334 335 336 336 336 336 335 335 334 335 335
339 342 344 343 341 339 337 336 336 336 336 336 334 331 331 332 333 334 333 334 334 334 334 334 334 334 333 333 332 331 330 332 334 335 336 336 336 335 335 334 333 333
341 344 345 343 342 339 337 337 337 336 336 335 332 329 331 332 332 333 333 334 334 334 335 334 335 335 334 334 333 332 331 331 332 333 334 335 335 334 334 332 331 330
343 345 345 344 343 340 338 338 338 337 335 333 331 330 331 332 333 334 334 334 335 334 334 334 333 333 334 334 334 333 331 330 331 332 333 333 333 334 334 331 328 326
344 345 344 344 343 340 339 339 338 335 332 331 331 331 332 334 334 334 333 333 333 332 331 331 331 331 332 333 334 333 332 331 332 333 333 333 333 333 333 329 325 325
344 345 345 344 343 342 340 340 339 333 327 329 332 332 334 335 334 332 331 330 330 330 330 329 329 330 329 330 332 332 331 331 331 332 333 333 333 333 333 329 325 325
344 345 346 344 343 342 340 340 341 331 323 328 333 334 335 335 332 330 330 330 330 330 330 329 329 329 329 329 330 330 330 331 331 331 332 333 333 333 332 329 327 326
344 345 345 344 343 342 340 341 338 327 323 330 335 335 336 335 331 331 331 331 331 331 330 330 329 329 329 329 329 330 330 330 330 331 332 332 332 332 331 330 328 327
344 344 343 343 342 341 342 339 330 325 329 336 336 335 337 335 331 332 332 331 332 331 330 330 330 329 330 329 329 330 329 330 330 331 331 332 332 331 331 331 329 328
342 344 343 343 342 343 341 332 325 328 336 338 336 336 336 334 332 332 332 331 331 332 332 332 331 330 330 330 329 329 329 330 330 330 331 331 331 331 331 331 330 328
341 343 343 343 343 339 332 327 329 336 339 338 336 336 335 334 333 332 333 331 331 332 333 333 331 330 330 330 330 329 329 329 329 330 330 330 330 330 330 331 330 329
341 343 343 342 339 331 327 331 337 339 339 337 336 335 336 335 333 333 333 331 331 333 334 333 332 330 330 330 330 329 329 329 329 328 329 329 329 329 329 330 331 329
342 343 342 339 335 332 334 337 339 338 338 338 336 335 336 335 333 333 333 332 332 333 334 334 332 331 331 330 330 330 329 329 329 328 328 328 328 327 328 329 330 329
343 341 337 334 335 338 339 338 337 339 339 338 336 336 336 335 333 334 333 332 333 334 334 334 332 332 332 331 330 330 329 329 329 328 328 327 326 326 326 327 328 328
343 339 335 335 338 340 339 338 338 339 338 338 337 336 336 335 334 335 334 333 333 334 335 335 334 333 332 331 330 330 329 329 329 328 327 326 326 326 325 326 327 327
342 338 336 336 338 339 338 337 338 339 339 338 337 336 336 336 335 334 334 333 333 334 335 335 335 333 332 331 331 331 330 330 329 328 327 326 326 326 326 326 326 325
341 339 335 333 334 336 337 337 338 339 339 338 337 336 336 335 334 334 333 333 334 335 335 336 335 334 332 331 331 331 330 330 330 328 327 326 327 327 326 326 326 324
342 339 335 331 332 335 336 338 339 339 339 337 336 336 335 334 334 334 334 334 335 335 336 336 336 335 332 331 331 331 331 330 329 328 327 327 327 326 326 326 326 324
342 340 335 333 334 336 336 338 339 338 337 336 335 335 335 334 333 334 335 336 335 335 336 335 336 336 333 331 331 331 331 330 329 328 327 327 327 326 326 326 326 325

ECMWFNIL_925_thetae_030.txt.gz
Theta_e
356 356 356 353 347 342 340 338 337 337 337 336 336 338 339 339 337 335 336 338 337 335 334 333 333 334 335 336 336 336 336 335 334 334 334 334 335 335 335 335 335 335
356 356 355 350 344 340 339 337 336 336 335 335 337 338 339 338 337 336 336 337 335 333 333 333 333 333 334 335 335 335 335 334 334 334 334 334 334 334 334 335 335 336
357 355 352 346 340 338 337 336 336 334 332 335 338 339 339 337 335 335 335 335 334 333 333 333 334 334 334 335 335 335 335 335 335 335 335 334 334 334 334 335 335 336
356 354 350 344 339 336 334 335 334 333 334 337 339 339 338 335 333 334 335 335 334 334 333 333 333 333 334 335 335 335 335 335 335 335 335 335 335 335 335 335 336 336
355 353 349 343 338 334 333 332 333 334 336 337 338 339 337 333 332 335 336 335 335 335 334 333 333 333 333 334 334 334 335 335 335 335 335 335 335 335 335 335 335 335
354 351 346 340 337 335 332 332 334 336 336 336 337 338 336 333 333 335 335 335 335 335 334 333 332 332 332 333 333 333 334 334 335 335 336 336 335 336 335 335 334 334
352 347 342 339 336 334 333 334 337 336 334 335 336 336 335 334 334 334 334 335 335 334 334 333 332 332 332 332 332 332 332 332 333 334 335 336 336 336 336 335 335 334
352 347 341 338 336 335 334 336 338 335 332 335 336 335 335 334 333 332 333 335 335 334 334 333 332 332 332 332 332 332 332 331 331 332 333 334 335 336 336 335 335 335
352 347 340 337 336 336 337 339 337 334 332 334 334 334 335 334 333 332 334 335 335 334 334 333 333 333 333 333 333 333 333 332 331 330 331 331 333 335 335 336 335 335
349 344 339 337 336 337 340 340 337 334 332 333 334 334 335 334 333 332 333 334 335 335 334 333 334 334 334 334 334 334 334 333 332 331 330 330 331 333 334 335 335 334
346 343 339 337 337 339 340 340 338 336 333 333 334 335 335 335 333 332 332 333 334 334 333 334 334 334 334 334 334 334 334 334 334 333 330 330 330 331 332 333 334 334
343 341 338 337 338 339 340 341 340 337 335 335 335 335 335 335 333 331 330 331 332 333 333 334 334 334 334 333 332 332 332 333 334 333 332 331 331 331 332 333 333 333
342 340 339 339 339 339 340 342 341 338 337 336 336 336 335 334 330 329 330 331 332 333 334 333 333 333 332 331 330 330 330 331 332 333 333 331 331 331 332 333 333 333
340 339 339 339 339 340 341 343 342 340 338 337 337 336 335 332 328 328 330 333 334 334 332 330 330 330 330 329 329 329 328 329 331 332 332 331 330 330 331 332 332 332
340 340 339 339 341 341 341 343 343 340 339 338 337 334 331 328 328 331 332 334 334 332 330 330 330 330 329 329 329 329 328 329 329 330 330 330 330 330 331 332 332 331
341 338 334 337 341 341 341 343 343 342 339 338 337 332 327 324 327 332 334 335 334 331 329 330 330 330 330 329 329 329 329 329 329 329 329 330 330 330 331 331 330 330
341 335 332 336 339 340 342 343 342 342 340 338 337 332 326 322 326 332 335 335 335 332 330 331 331 331 330 330 330 330 329 329 329 329 329 329 330 330 330 329 329 329
339 333 333 338 340 341 342 343 342 342 341 338 337 332 324 321 326 333 335 336 335 332 331 331 331 330 330 331 331 330 329 329 329 329 329 329 329 329 328 328 329 329
336 332 335 339 341 341 342 343 342 342 341 340 339 334 325 322 328 334 336 336 335 333 332 332 331 331 331 332 332 330 330 330 330 329 329 329 328 328 328 327 328 328
335 333 335 338 340 341 342 342 341 341 341 340 338 334 327 325 331 336 337 336 335 333 332 332 332 331 332 332 332 331 330 330 330 330 330 329 329 328 328 328 328 328
335 333 332 335 339 341 342 341 340 340 340 340 338 334 330 331 335 337 337 335 334 334 333 332 332 332 332 333 332 331 330 331 330 330 330 330 329 328 328 328 328 327
337 334 330 332 337 340 341 341 341 341 341 339 337 334 334 336 337 337 337 335 335 335 333 332 333 332 332 333 333 332 332 331 330 330 330 330 329 329 329 328 327 326
339 336 331 332 336 339 341 341 341 340 339 338 336 335 336 337 337 337 337 336 335 335 333 333 333 332 332 333 334 334 333 332 331 330 330 330 330 329 329 328 327 326
339 337 334 333 336 339 340 340 338 336 336 337 336 336 337 337 337 337 337 336 335 334 334 334 333 332 332 332 334 335 334 333 332 331 330 330 331 330 328 327 326 325
339 337 336 335 336 338 339 337 335 334 335 336 337 337 337 337 337 337 337 336 335 334 334 334 333 333 333 333 334 335 334 333 332 331 330 331 330 328 325 324 324 325
339 339 337 336 337 339 338 336 334 334 335 336 337 337 337 337 337 337 337 336 335 334 334 333 333 333 334 334 335 335 334 333 331 330 330 330 328 325 323 324 324 324

ECMWFNIL_925_thetae_033.txt.gz
Theta_e
352 353 353 354 354 354 354 352 348 343 339 338 337 337 336 335 336 337 338 336 334 336 338 337 336 335 336 337 337 337 338 337 338 337 336 336 336 337 337 336 335 336
353 353 354 354 354 354 354 353 350 345 341 338 337 337 336 336 336 337 337 336 335 337 337 336 335 334 336 339 338 338 338 337 337 337 335 336 336 337 337 337 336 336
353 354 354 354 354 354 354 353 351 346 341 338 337 336 336 336 337 338 338 336 336 337 336 334 335 335 335 338 338 338 338 338 338 338 336 336 337 336 337 337 337 337
353 354 354 354 354 354 354 354 350 344 340 338 337 336 336 336 338 338 338 336 335 336 335 334 335 336 336 336 336 337 337 337 336 336 336 336 336 336 337 337 337 337
354 354 354 354 354 355 355 354 348 342 338 337 336 334 335 337 339 338 336 335 335 335 335 334 335 335 335 334 334 336 337 337 336 334 334 336 336 336 337 336 337 337
354 354 354 354 354 355 355 352 346 340 338 337 334 333 335 338 339 338 334 333 335 336 336 336 335 334 333 333 333 333 334 336 336 334 334 336 337 337 337 336 336 337
354 354 354 354 354 355 354 350 343 338 336 334 332 333 336 338 338 337 333 332 334 336 335 335 335 334 332 332 332 332 331 332 333 332 333 335 335 335 336 336 336 337
354 354 354 353 353 353 351 346 340 336 334 333 333 334 336 336 337 336 333 331 333 334 333 333 333 333 332 332 332 332 332 332 331 330 331 332 332 333 334 335 336 336
352 352 351 350 351 351 349 344 338 335 333 333 334 334 334 334 335 335 333 332 333 333 333 333 332 332 333 333 332 332 332 333 332 332 331 332 333 333 333 334 335 336
349 347 347 349 351 351 349 344 338 334 333 334 334 333 332 332 334 334 333 333 333 332 332 333 333 333 333 333 333 333 333 334 334 333 333 333 333 333 333 333 334 335
346 346 348 350 352 351 348 343 337 334 333 334 335 333 331 332 333 333 333 333 332 331 331 332 333 333 333 333 333 334 334 334 334 334 334 334 334 334 332 332 333 335
347 348 351 352 352 350 347 341 337 333 333 334 335 333 331 332 332 333 333 333 331 331 331 331 332 333 333 333 333 333 334 334 334 333 333 333 334 335 334 331 331 333
347 350 353 352 350 348 344 340 336 333 333 334 335 335 332 331 332 333 334 334 333 332 331 331 331 332 332 333 333 333 334 334 332 331 330 330 331 333 334 333 332 331
346 350 353 350 347 346 342 338 335 334 333 334 336 337 335 333 333 334 334 334 334 333 332 330 330 331 332 333 333 333 333 332 330 329 329 328 329 331 334 334 332 331
344 348 348 343 343 345 340 334 332 333 333 335 337 338 337 335 335 335 335 335 335 334 332 330 329 332 333 332 331 330 330 330 329 329 328 328 329 332 333 332 331 330
343 344 341 338 341 343 336 327 328 329 331 335 337 338 339 337 336 336 336 335 336 334 331 329 331 333 333 331 329 329 330 329 329 329 329 329 330 332 333 332 331 330
342 341 340 340 341 341 331 323 325 329 331 335 336 338 341 339 337 337 336 335 335 334 331 330 332 334 332 330 330 330 330 329 329 329 329 329 330 330 332 333 333 331
342 341 342 343 342 338 329 323 328 333 336 337 337 338 341 339 338 337 336 335 333 330 328 331 334 335 333 331 330 331 330 330 330 330 329 329 330 330 331 331 332 331
342 342 343 343 341 337 331 326 330 336 338 338 337 338 340 340 338 337 337 336 332 326 325 330 334 335 335 333 331 331 331 330 329 330 330 330 330 330 330 330 329 329
342 342 343 343 341 338 334 330 332 337 340 339 338 339 340 340 339 338 337 336 332 325 324 329 334 335 335 334 332 332 331 331 330 331 331 331 330 330 330 330 329 329
343 343 344 343 339 336 335 334 335 338 340 340 339 339 340 340 339 338 337 336 333 326 324 329 334 334 334 334 334 333 332 331 332 332 332 331 331 330 330 330 329 330
344 343 343 341 337 334 335 335 336 337 339 340 339 339 340 340 339 338 337 337 335 328 325 329 333 333 333 333 334 334 333 331 332 333 333 333 332 331 331 331 330 330
343 342 340 338 336 335 335 336 338 338 339 340 339 338 339 339 339 338 338 338 337 330 326 330 334 334 333 333 334 334 333 332 332 333 333 333 333 332 332 332 331 330
343 340 339 337 336 336 337 339 340 338 339 340 340 338 339 339 339 339 339 339 336 332 330 333 336 336 335 334 334 333 333 332 332 332 333 333 332 330 330 330 330 329
342 340 340 338 337 337 338 340 340 339 340 341 340 339 340 340 339 339 338 338 336 334 334 336 336 336 336 335 334 333 333 332 332 332 333 333 331 329 329 329 328 327
342 341 340 339 338 338 339 340 340 339 340 341 339 340 339 339 338 338 337 337 337 336 336 336 336 336 336 335 334 333 333 332 332 332 332 332 332 331 330 330 328 327

ECMWFNIL_925_thetae_036.txt.gz
Theta_e
364 363 363 362 361 359 359 359 358 357 355 353 352 350 348 346 344 343 342 343 344 343 343 343 342 342 342 342 342 342 342 342 341 340 340 339 339 338 338 338 337 338
364 365 364 363 361 360 360 359 358 357 356 354 352 350 348 347 345 344 343 344 344 343 343 343 343 343 343 342 342 343 342 342 341 340 340 340 339 339 338 337 337 337
364 365 365 363 362 361 360 359 358 358 356 354 352 350 349 347 346 344 343 344 344 342 343 343 343 343 342 342 343 343 342 342 341 340 340 340 339 339 338 337 337 337
365 365 365 363 362 361 360 359 358 357 355 353 352 350 349 347 346 345 344 344 343 342 342 343 342 342 341 342 342 342 341 342 341 339 340 339 338 338 337 337 337 336
365 365 364 362 362 361 359 358 357 357 356 354 353 350 348 346 345 344 344 344 343 342 342 342 342 341 341 342 342 341 340 340 340 339 339 339 338 337 337 337 337 336
366 365 363 362 362 360 358 358 357 357 355 354 352 349 347 346 344 343 343 344 343 341 341 341 341 340 340 341 341 340 340 338 339 339 339 339 338 337 336 336 337 336
365 364 362 361 361 359 358 358 357 356 355 353 351 348 346 345 343 342 343 344 342 340 340 340 341 340 340 340 340 340 340 339 338 339 339 338 337 337 337 336 336 336
364 363 361 361 360 358 358 357 356 354 354 353 350 347 344 343 343 343 343 343 342 340 340 340 341 341 340 339 339 339 339 339 338 338 338 338 338 338 337 336 336 336
362 361 360 359 358 356 356 356 355 354 354 353 347 344 341 339 341 343 343 344 342 340 340 341 341 342 340 339 340 340 339 338 337 338 338 338 338 338 337 337 336 336
360 360 358 357 356 355 355 356 354 353 354 351 343 341 340 337 337 340 343 345 343 340 341 341 341 342 340 339 340 340 340 338 339 339 339 338 338 337 337 337 337 337
359 358 357 356 356 355 354 355 353 352 352 348 341 338 335 333 333 335 339 342 341 340 340 340 340 341 340 340 340 340 340 339 339 340 339 339 338 338 337 337 337 337
359 358 356 356 355 354 354 353 352 350 345 339 338 335 329 328 330 331 334 335 335 338 340 339 340 340 340 340 340 340 340 340 339 339 340 339 339 338 337 337 337 337
360 358 356 355 353 353 352 352 352 347 335 331 335 335 332 331 331 330 330 330 332 336 338 339 340 341 341 341 340 340 340 341 340 340 339 340 339 338 337 336 336 337
360 356 354 353 352 351 351 352 353 346 333 331 336 336 335 335 334 333 333 334 335 336 336 337 339 341 341 340 340 339 340 341 341 341 339 339 338 338 337 336 335 336
358 355 353 352 351 352 350 352 355 346 334 333 335 334 335 336 336 337 337 337 336 335 334 336 338 340 339 338 340 341 341 341 341 340 339 338 337 337 337 336 335 335
357 355 353 352 351 351 351 352 354 349 341 337 333 332 336 337 337 339 340 340 336 333 333 335 338 340 338 337 337 338 339 341 340 339 339 338 337 337 336 336 335 335
356 354 353 352 351 351 352 353 352 349 345 340 335 335 338 338 338 340 342 341 339 337 337 337 338 339 338 336 333 331 333 337 338 338 339 338 337 337 337 336 335 335
354 354 353 352 352 352 351 352 352 349 346 343 340 338 339 340 340 341 342 342 341 340 340 340 339 339 339 336 330 328 331 333 335 336 338 338 337 336 336 336 335 335
354 353 353 352 353 353 351 351 351 349 347 346 344 341 340 340 337 337 341 343 341 341 340 341 341 340 339 334 329 328 332 333 332 335 336 337 337 337 336 336 336 335
354 354 352 352 353 353 352 352 351 350 348 345 344 343 343 341 335 336 342 342 340 341 341 341 340 339 336 332 327 327 332 334 333 334 336 337 337 337 337 336 336 336
354 353 352 352 352 353 353 352 351 351 348 345 345 345 344 343 340 341 344 343 341 342 342 342 341 339 335 331 326 325 331 334 334 334 336 337 337 338 337 337 337 336
353 352 352 352 352 353 353 352 351 350 346 345 344 343 343 343 343 342 343 343 343 343 342 342 341 339 336 332 327 326 331 335 334 334 336 337 337 337 337 337 337 338
352 352 352 352 352 353 352 351 351 349 346 343 341 340 341 343 342 342 343 343 343 343 342 343 342 341 339 336 331 329 333 335 334 335 337 339 338 338 338 338 339 339
352 351 351 352 352 353 352 352 351 349 346 344 341 341 342 342 341 342 344 343 342 342 342 342 342 342 341 339 336 335 335 335 335 338 340 339 339 338 338 338 338 338
352 351 351 352 352 353 352 351 349 347 346 345 343 341 341 342 341 341 343 343 342 342 343 342 342 341 340 339 338 337 336 335 336 339 339 338 338 338 337 337 338 337
352 351 351 351 352 352 350 349 347 345 344 344 342 339 339 341 341 340 342 343 341 341 341 341 341 342 341 340 339 339 337 335 336 339 339 338 338 336 336 337 337 338

ECMWFNIL_925_thetae_039.txt.gz
Theta_e
363 363 363 362 361 360 359 360 359 359 357 354 352 351 351 350 349 347 347 346 345 344 345 345 345 344 343 342 341 341 340 341 341 341 342 342 342 341 340 340 340 339
365 364 363 363 362 360 361 360 359 359 358 356 354 352 351 350 349 347 346 346 346 344 345 345 345 344 342 342 341 341 341 341 341 340 341 342 341 341 340 340 339 340
366 365 364 363 361 360 360 360 359 360 358 357 355 353 351 351 350 348 346 345 345 345 345 345 345 344 343 342 342 342 342 342 341 340 340 341 341 340 340 339 339 339
367 366 365 364 361 360 360 360 360 360 358 356 355 353 351 351 350 348 346 345 345 345 345 345 345 344 344 344 343 342 342 341 342 340 341 341 341 340 339 339 339 338
368 367 366 365 363 360 361 362 361 360 358 357 355 353 352 351 350 349 347 346 345 345 345 345 345 344 344 344 343 343 342 341 341 341 341 341 340 340 339 338 339 339
369 369 367 366 365 362 362 362 361 360 358 357 356 354 352 352 351 349 348 346 345 344 343 344 345 344 344 344 344 343 342 340 340 340 340 340 340 339 338 338 338 339
369 370 369 367 366 363 363 363 362 361 359 357 357 355 354 352 350 348 347 347 346 344 342 343 344 344 343 343 344 343 341 340 339 339 340 340 340 339 339 338 338 339
369 370 370 368 367 365 364 364 363 362 360 358 358 357 354 352 350 347 346 346 346 344 342 342 344 344 342 342 343 343 341 340 340 340 340 340 339 339 339 338 339 339
369 370 370 369 367 366 365 364 363 362 361 359 359 357 354 352 350 347 345 345 346 345 342 341 343 344 341 341 342 342 341 340 340 340 340 340 339 339 339 339 339 339
370 371 371 369 367 366 364 363 362 362 362 361 359 357 354 351 349 347 345 345 345 344 343 342 343 344 342 341 341 341 341 340 340 340 339 340 339 339 339 339 339 339
371 371 370 368 366 365 364 362 360 361 362 360 358 356 354 350 348 346 346 346 345 344 343 342 343 343 342 342 341 341 342 342 341 340 340 340 340 340 340 340 340 340
371 370 369 368 366 364 363 360 359 359 360 360 357 355 353 350 347 346 346 346 346 344 344 343 343 343 342 341 341 340 342 342 341 340 340 341 340 341 341 340 340 340
371 370 369 367 365 364 362 360 358 358 359 359 357 355 352 349 346 345 345 346 346 345 344 344 343 342 342 341 340 340 341 342 340 340 340 341 341 341 341 340 339 339
372 370 368 366 364 363 362 360 359 357 358 359 357 354 351 348 345 344 344 345 346 345 344 344 343 342 342 342 342 341 341 341 340 340 341 341 341 341 340 339 338 337
371 369 368 366 363 364 363 361 359 358 358 358 356 354 349 345 343 343 345 345 345 344 344 344 342 341 341 341 342 342 341 340 340 341 341 341 341 341 339 338 338 336
369 368 367 365 364 364 364 362 360 359 359 358 356 353 348 342 340 342 344 345 344 343 344 344 343 341 340 338 338 340 341 340 339 340 341 341 341 341 340 338 337 336
368 367 366 365 364 364 363 363 361 360 360 358 356 351 346 341 339 341 344 343 342 343 344 345 343 340 339 336 335 336 338 340 340 340 341 341 341 341 340 339 338 337
367 366 365 364 364 363 362 362 361 360 360 358 355 351 346 343 342 342 343 342 343 344 344 345 342 337 334 334 334 334 335 337 338 338 338 339 340 339 339 339 338 338
367 366 364 363 363 362 362 362 361 360 359 358 355 351 347 345 345 344 343 342 344 345 344 344 342 334 329 331 334 335 333 332 334 335 335 337 338 338 338 339 338 338
365 364 363 362 361 360 361 362 361 360 359 357 355 352 349 348 346 345 344 344 345 346 344 344 343 336 332 333 336 336 332 329 330 333 334 336 337 337 338 338 338 338
363 363 361 360 359 358 360 361 361 360 359 358 356 353 351 349 347 347 347 346 346 346 345 345 344 339 337 338 337 334 330 327 329 333 335 336 337 337 338 339 339 340
362 361 360 359 358 358 358 360 360 360 359 357 356 354 351 350 350 348 348 347 347 346 344 343 343 341 339 338 336 334 332 330 331 334 336 337 338 338 339 340 341 340
361 359 359 358 358 357 357 357 359 360 358 358 357 354 351 351 349 346 347 347 345 343 343 342 342 342 339 337 337 336 335 333 332 336 338 339 339 339 339 340 340 339
360 358 359 358 357 357 356 356 358 358 358 357 356 354 352 350 347 345 346 343 337 338 343 344 342 340 337 336 338 339 337 334 334 338 340 339 340 340 340 341 340 339
358 357 358 357 357 356 355 356 357 357 357 356 354 352 350 348 346 345 342 335 332 337 341 341 339 337 336 338 340 339 337 336 337 339 340 340 342 342 340 340 340 339
357 357 357 356 356 356 355 356 356 356 356 355 352 351 349 346 345 342 338 334 335 337 336 337 338 337 339 340 339 337 337 336 337 339 340 340 341 339 338 339 339 339

ECMWFNIL_925_thetae_042.txt.gz
Theta_e
364 364 364 363 362 361 361 361 361 361 360 359 358 355 350 349 350 348 347 347 345 344 344 345 345 345 345 343 342 341 341 340 341 342 342 343 343 342 341 341 340 340
364 364 363 363 363 362 361 361 360 361 360 358 357 354 351 349 349 348 348 347 346 344 344 345 345 345 345 344 342 341 341 341 341 341 341 342 342 342 341 341 341 340
364 364 364 363 363 363 362 361 360 361 360 358 356 354 351 350 349 348 348 348 346 344 344 345 346 345 344 343 342 341 341 341 341 340 340 341 342 342 342 341 340 340
364 364 364 363 363 363 361 361 361 361 361 359 357 354 352 351 350 349 348 348 347 345 344 345 346 345 344 342 342 342 341 341 341 341 340 341 341 342 341 341 340 339
365 364 363 363 363 362 361 361 362 362 361 360 358 355 353 352 351 350 348 348 347 346 345 345 346 345 344 343 342 342 342 342 342 341 341 341 341 341 341 340 340 339
366 365 364 363 362 362 361 361 361 361 361 361 359 357 354 352 351 350 348 347 347 346 346 346 346 345 344 343 343 343 342 342 342 341 341 341 341 341 340 339 339 339
367 367 365 363 362 361 361 361 361 361 362 361 359 357 355 353 352 351 349 347 346 346 346 346 346 346 344 344 344 344 343 342 341 341 341 341 341 340 340 339 339 339
368 367 366 365 363 362 361 361 361 361 361 361 359 357 355 353 352 351 349 348 346 345 346 346 346 346 345 345 345 343 342 342 341 340 341 340 340 340 339 339 339 338
368 368 366 365 365 364 362 361 361 362 361 361 360 357 356 354 352 351 350 349 346 345 345 345 345 345 345 345 344 343 343 342 340 340 340 341 340 340 340 339 339 339
368 369 368 367 366 366 364 362 362 363 361 361 360 358 356 354 352 351 350 349 347 345 345 344 344 345 344 344 344 343 343 342 340 340 341 341 340 340 340 340 339 340
368 369 369 368 367 367 366 363 363 364 362 361 360 359 357 355 353 352 350 349 347 346 345 344 344 344 344 343 343 343 343 342 340 339 340 340 340 340 340 340 340 340
368 368 369 369 368 367 366 364 362 363 363 362 360 359 358 357 354 352 350 348 346 346 345 344 344 344 344 343 343 343 342 341 340 339 340 340 340 340 340 340 340 341
368 367 368 370 368 366 366 364 361 362 364 362 361 360 360 357 355 353 350 347 345 346 346 344 342 343 344 342 342 343 342 341 341 340 340 340 340 340 340 341 341 341
369 367 368 368 367 366 365 364 362 361 363 363 362 361 360 358 356 353 350 347 345 345 345 343 341 343 344 343 342 342 341 341 341 340 340 339 339 340 341 341 341 341
369 368 367 367 368 367 365 364 363 362 362 363 362 361 359 357 355 352 349 347 345 344 343 342 341 343 345 343 342 342 342 342 342 342 341 339 340 340 341 341 341 341
370 370 369 369 369 368 366 365 364 363 362 362 362 360 358 357 354 351 349 347 345 344 343 342 342 342 343 343 341 341 342 343 343 342 341 340 340 341 341 341 341 340
372 372 372 370 369 368 367 366 364 363 362 361 362 360 358 357 354 351 349 346 345 344 342 343 343 342 343 341 339 339 341 342 342 341 341 340 341 341 341 342 341 339
373 374 373 371 370 368 367 366 364 363 362 361 362 361 359 357 352 349 348 346 345 345 344 343 344 343 343 341 339 339 339 340 341 341 340 340 341 341 341 342 341 341
375 374 373 371 370 367 366 367 365 363 362 362 362 361 360 357 352 349 347 345 345 346 345 343 344 343 342 340 339 340 340 341 341 340 340 340 341 341 341 341 341 340
374 374 372 370 369 367 367 367 365 364 363 362 362 361 359 356 351 348 346 346 346 346 345 344 344 343 342 340 338 338 339 340 341 340 340 340 339 338 338 339 339 339
374 372 371 369 368 366 366 366 365 365 364 363 362 360 358 355 350 346 345 346 347 345 344 345 345 344 342 339 336 335 335 337 338 339 339 337 335 335 336 337 337 338
373 371 370 369 367 366 366 365 365 365 364 363 362 360 357 354 350 347 346 346 346 345 345 346 346 344 341 339 337 334 333 332 331 334 336 335 335 335 334 335 336 337
371 369 369 367 366 365 364 363 364 365 364 363 362 360 357 353 351 349 348 346 346 347 347 346 347 344 337 335 335 332 329 329 329 331 334 336 337 335 333 335 337 337
369 367 366 364 363 363 361 361 361 362 364 363 362 360 358 354 352 350 349 348 347 347 347 346 347 342 333 331 333 330 328 331 332 333 335 337 337 336 336 338 338 337
367 364 363 362 361 361 360 359 359 360 362 362 361 360 358 355 353 352 350 349 348 348 347 346 344 340 335 333 332 328 327 333 337 336 336 337 338 339 339 337 336 336
364 362 361 360 360 360 358 358 358 358 360 361 360 360 358 356 354 352 350 349 348 346 345 344 343 341 338 335 330 327 331 337 338 335 335 338 340 339 338 337 336 335

ECMWFNIL_925_thetae_045.txt.gz
Theta_e
361 362 362 361 360 360 360 359 357 356 356 356 356 356 355 354 353 350 348 346 345 345 345 343 340 338 340 342 342 341 341 342 341 339 341 343 341 339 340 339 338 338
361 362 362 361 361 360 360 359 357 357 356 356 356 356 355 354 353 350 348 346 345 344 345 344 341 342 342 340 342 342 341 342 341 340 342 342 340 339 340 341 339 338
362 362 363 361 361 360 360 360 358 357 358 357 357 356 355 354 352 350 348 346 345 343 343 343 342 344 344 341 341 341 341 341 339 340 342 341 340 339 339 341 341 340
363 363 363 362 361 360 360 360 359 358 359 359 358 357 356 353 352 350 348 346 346 344 342 343 343 344 345 343 341 340 340 341 340 340 341 341 341 340 339 340 341 340
363 363 363 361 361 361 361 361 360 360 360 360 358 357 355 352 351 350 348 346 347 346 342 342 343 343 344 345 343 341 340 340 340 340 341 341 341 340 339 340 341 340
363 363 362 362 361 362 361 361 361 360 360 360 359 357 355 352 350 349 349 347 347 347 344 341 343 344 344 344 344 343 340 340 340 339 340 341 342 341 340 340 341 340
364 363 362 362 362 362 362 361 361 361 360 360 359 357 356 352 350 349 348 348 347 347 345 342 342 344 345 344 343 343 341 339 339 339 339 340 342 341 340 340 340 340
364 363 362 362 362 362 362 361 362 361 360 360 359 357 356 353 351 349 348 348 347 347 346 343 342 344 345 345 343 342 342 340 339 340 340 340 342 341 341 340 339 339
364 363 362 362 362 362 362 361 361 361 361 360 360 358 357 354 351 350 349 348 348 347 346 344 343 344 345 345 343 342 342 342 340 341 341 341 341 341 341 340 339 340
364 364 362 362 363 362 362 362 361 362 361 361 360 359 357 355 352 351 350 349 348 347 347 345 344 344 345 345 344 342 343 343 342 341 341 341 340 340 340 339 339 340
364 364 363 363 362 362 362 362 361 361 360 361 361 359 358 356 353 352 351 350 348 347 346 346 345 345 345 345 344 343 343 343 343 342 341 341 341 340 338 338 338 339
364 364 364 363 363 362 362 361 361 360 360 360 360 360 359 357 355 353 352 350 349 347 346 345 345 346 346 345 345 344 343 343 342 342 342 341 341 340 339 338 338 339
364 364 365 364 363 363 362 361 361 360 360 360 360 360 359 358 355 353 352 351 350 348 346 345 345 346 346 345 345 344 343 343 342 341 341 341 341 341 340 338 338 338
365 364 365 364 364 364 363 362 361 360 360 360 360 360 359 358 356 354 353 352 350 349 347 345 344 346 346 345 344 344 343 342 341 341 341 341 340 341 340 339 339 339
365 364 365 365 365 364 363 362 362 360 360 360 360 360 360 358 356 355 354 352 351 350 348 346 345 345 346 344 340 342 343 341 340 341 341 340 340 340 340 339 339 340
365 365 365 365 365 365 364 363 363 361 360 361 361 360 359 359 357 355 354 353 352 350 348 347 345 345 346 343 335 337 342 341 341 342 342 340 340 340 340 340 339 340
366 365 365 365 365 365 364 364 363 362 361 361 361 361 359 359 358 357 355 353 352 351 349 348 346 345 346 344 335 333 338 340 340 342 342 340 341 341 340 339 339 340
366 365 365 365 365 365 365 365 364 363 362 361 362 361 360 359 358 357 356 354 352 351 349 347 346 345 345 345 338 331 334 339 341 342 342 341 341 340 339 339 340 340
367 367 366 365 365 366 365 365 365 364 362 362 362 362 361 360 359 358 357 355 352 351 349 347 347 345 344 345 341 331 332 339 341 341 342 342 341 341 339 340 341 341
368 368 367 366 366 366 366 366 365 364 363 362 362 363 362 361 360 358 356 355 352 351 349 347 346 344 343 344 342 336 335 340 343 341 342 342 342 341 341 341 341 340
369 368 367 367 367 367 367 367 365 365 364 363 363 363 362 361 359 357 355 353 352 350 349 347 345 344 343 342 342 340 338 340 342 342 342 342 342 341 341 341 340 338
370 369 369 369 368 368 368 367 366 365 364 363 363 363 362 361 359 356 354 352 350 349 348 347 345 344 343 342 343 340 335 334 339 342 341 341 341 341 341 341 338 336
371 371 371 370 369 369 368 367 367 366 364 364 364 362 362 361 358 356 354 351 349 348 347 346 345 344 344 343 343 339 329 323 331 340 341 341 341 339 338 338 336 335
372 371 371 370 369 368 367 367 366 366 364 364 363 362 361 360 358 355 352 350 349 348 346 346 346 344 344 344 343 339 329 320 325 337 341 340 339 337 335 336 336 334
372 371 370 369 368 367 366 366 366 365 365 364 363 362 361 359 358 355 351 349 347 347 347 347 346 345 345 344 342 340 333 325 328 337 341 339 338 337 336 336 333 328
371 370 369 368 368 366 366 365 365 365 365 364 363 362 360 358 357 354 351 349 347 347 347 346 345 346 345 343 343 340 334 330 333 338 339 337 338 338 336 334 329 322

ECMWFNIL_925_thetae_048.txt.gz
Theta_e
356 357 357 357 357 356 356 355 354 355 356 356 356 356 357 356 357 355 354 353 350 348 347 345 345 337 332 338 342 342 341 337 335 337 339 339 338 338 338 337 339 339
357 357 357 357 357 357 357 356 355 355 356 356 355 355 356 356 356 355 354 353 350 348 347 345 345 338 332 336 342 342 340 336 336 338 340 339 337 336 336 338 339 339
357 357 357 357 357 357 357 357 356 356 356 356 355 355 356 356 356 355 354 352 350 349 347 345 344 339 332 334 341 343 341 338 338 340 341 339 337 336 336 338 339 339
357 357 357 357 357 357 357 358 357 357 357 356 355 355 356 355 355 355 353 351 351 349 346 345 344 341 333 332 339 343 342 341 340 340 341 339 339 338 337 338 340 340
358 358 358 358 358 358 358 358 358 358 357 356 355 355 355 355 355 354 353 352 351 348 346 345 344 342 336 332 337 341 342 341 341 341 341 339 340 341 338 337 339 340
358 358 359 359 358 359 358 359 359 358 358 357 356 355 355 355 354 354 353 351 350 347 346 345 344 343 340 335 337 341 342 341 341 341 340 339 340 341 339 338 338 339
358 358 359 359 359 359 359 359 359 359 358 357 356 355 355 355 355 354 353 351 349 348 346 345 344 344 342 338 338 341 342 341 341 341 340 340 340 340 340 339 338 338
359 359 359 359 360 360 360 359 359 359 358 358 357 356 356 355 355 354 353 352 350 349 347 345 344 343 342 341 340 342 343 342 341 341 340 340 340 340 341 341 340 338
360 360 360 360 360 360 360 360 359 359 359 358 357 357 357 356 355 354 353 352 351 349 347 345 344 343 342 341 341 342 344 343 341 341 340 340 340 340 340 341 341 340
361 361 361 361 361 360 360 360 359 359 359 358 358 357 357 356 356 355 354 352 350 348 347 345 345 344 343 341 340 340 342 343 343 342 340 339 340 339 339 340 341 341
361 362 361 361 361 361 360 360 360 359 359 359 358 358 358 357 356 355 353 352 350 349 347 346 345 345 344 342 339 339 341 343 343 343 341 340 339 338 338 339 341 341
362 362 362 361 361 361 361 361 360 359 359 359 359 358 358 357 356 355 353 351 350 348 347 346 346 346 344 343 341 339 341 343 343 342 342 341 339 338 338 339 340 341
362 362 362 361 361 361 360 360 360 359 359 360 359 359 358 357 356 355 353 352 350 348 347 347 346 346 345 344 342 340 341 343 343 342 341 341 341 339 339 340 340 340
362 362 362 361 361 361 361 360 360 360 359 359 360 359 359 358 357 355 354 352 350 348 348 347 346 346 345 344 343 341 341 343 342 341 341 341 342 341 340 340 340 340
362 362 362 362 361 361 360 360 360 359 359 359 359 359 359 359 357 356 354 352 351 349 348 348 347 347 346 345 344 341 341 342 343 341 341 342 342 342 341 341 340 341
363 362 362 362 361 361 361 360 359 359 359 359 359 359 359 359 358 357 355 353 351 350 348 348 347 347 347 346 344 342 341 343 343 342 342 342 342 341 341 341 340 341
363 363 362 362 362 361 360 360 359 359 359 359 359 359 359 359 359 358 356 354 353 351 349 348 348 347 347 346 345 343 342 342 343 343 342 342 342 341 340 340 340 340
363 363 363 362 362 361 361 361 360 359 359 358 358 359 359 359 359 357 357 355 353 352 351 349 349 348 347 346 345 344 342 339 340 342 343 342 342 341 340 340 340 340
364 364 363 362 362 362 361 361 360 360 360 359 358 358 358 359 359 358 357 356 354 353 352 350 350 348 347 346 345 344 342 338 338 341 343 342 342 342 341 340 340 339
364 364 364 363 363 362 362 362 361 360 360 359 359 359 358 359 359 358 357 356 355 354 352 352 351 349 348 346 344 344 343 340 339 340 342 342 342 342 341 340 340 339
365 365 364 363 363 362 362 362 362 361 361 360 360 359 358 359 358 358 358 356 355 354 353 352 351 350 348 346 345 345 343 340 338 338 340 341 341 341 341 341 340 340
366 365 365 364 363 362 363 362 362 362 361 361 360 359 359 359 359 358 358 357 356 355 354 352 351 350 349 347 346 345 343 341 337 335 337 340 341 341 341 341 340 340
366 366 365 364 363 363 363 362 363 362 362 362 361 360 360 360 359 359 358 357 356 355 354 352 350 349 349 347 346 345 343 342 339 335 334 337 340 341 341 341 341 341
366 366 365 365 364 363 363 362 363 363 362 362 362 361 360 360 360 359 358 357 356 355 354 353 351 349 348 347 347 346 345 343 341 337 334 336 340 342 341 342 342 341
366 366 365 365 364 364 363 363 363 363 363 362 362 362 361 360 360 359 358 357 356 355 355 353 351 349 348 347 347 347 345 343 341 338 335 335 338 339 340 341 341 341
366 366 366 366 365 364 364 363 363 363 363 363 362 362 361 361 360 359 357 356 355 355 354 352 350 349 348 348 348 347 345 343 340 338 334 332 332 335 338 340 340 340

ECMWFNIL_925_thetae_051.txt.gz
Theta_e
354 355 354 354 354 353 354 355 355 356 356 357 358 358 358 357 356 357 357 357 356 355 354 351 350 349 348 347 341 335 337 341 341 341 340 338 336 336 338 338 336 334
354 355 354 354 354 353 353 354 354 356 356 357 358 357 357 357 356 357 357 357 356 355 354 351 350 349 348 347 341 335 337 341 341 341 340 338 338 338 338 338 336 334
355 355 355 354 354 354 354 354 354 355 356 356 356 357 357 356 356 356 357 357 356 355 354 352 350 349 347 346 341 335 336 339 340 341 341 338 339 339 338 338 336 335
355 355 355 355 355 354 353 354 355 355 355 355 356 356 356 356 356 356 357 357 356 355 354 352 351 349 347 346 343 336 335 337 339 341 341 339 339 340 339 338 337 337
355 355 355 355 354 354 354 354 355 355 355 355 355 355 355 355 355 356 356 356 356 355 354 353 351 349 347 346 343 337 334 337 340 341 341 340 339 340 340 339 338 338
356 355 355 355 355 354 355 355 355 355 355 354 354 354 355 355 355 355 355 355 355 355 354 353 351 350 348 346 345 340 334 336 340 341 341 339 339 340 340 339 338 338
356 355 355 355 355 355 355 355 355 355 355 355 355 354 354 355 355 355 355 354 354 354 354 353 352 350 348 346 345 342 337 335 338 342 342 340 340 340 340 339 339 338
355 356 355 355 355 355 355 355 355 355 355 355 355 355 355 355 355 355 354 354 354 354 354 353 352 350 348 347 345 343 340 336 337 341 342 341 340 341 340 339 340 340
355 355 355 356 356 355 355 355 355 355 355 356 356 355 355 355 355 355 354 354 354 354 353 352 352 351 349 347 345 343 341 338 337 339 341 341 340 341 341 340 340 340
355 355 356 356 356 356 356 356 355 355 355 356 356 355 355 355 355 355 354 354 353 353 352 352 351 350 349 347 345 344 343 340 338 338 339 341 340 340 341 340 339 340
356 356 356 356 356 356 356 356 356 356 355 356 356 356 356 356 355 355 354 353 353 352 352 351 351 350 349 347 345 344 344 342 340 339 339 340 340 340 340 340 339 339
357 356 356 356 357 357 357 356 356 356 356 356 356 356 357 356 355 355 354 353 353 352 352 351 351 350 348 347 346 345 344 343 341 340 339 339 340 340 340 340 340 339
357 357 357 357 357 357 357 357 357 357 357 357 357 356 357 357 356 355 354 354 353 352 352 351 350 350 349 348 347 345 344 343 342 341 340 339 340 341 340 340 339 339
358 358 358 357 357 357 357 357 357 357 357 357 357 357 357 357 356 356 355 354 353 353 353 352 350 350 349 348 347 345 344 343 342 342 341 340 341 342 341 340 340 339
358 359 358 358 358 358 358 358 357 358 358 357 357 357 357 357 357 356 356 354 354 353 353 352 351 350 349 348 347 345 344 343 343 342 342 341 341 341 341 341 341 340
358 359 359 359 359 358 358 358 358 358 358 357 358 358 357 357 357 356 356 355 354 353 352 352 351 351 350 349 348 346 344 344 343 343 342 341 341 341 341 341 341 340
359 359 359 359 359 359 359 359 359 358 358 358 358 358 357 358 357 357 356 355 355 354 352 352 351 351 350 349 348 346 345 344 344 343 342 342 341 341 340 340 340 340
359 359 359 359 359 359 359 359 359 359 359 358 358 358 358 358 357 357 357 356 355 354 353 352 351 350 349 349 348 346 345 345 344 343 343 342 341 341 340 340 340 340
360 360 360 360 360 360 359 360 359 359 359 359 358 358 358 358 358 357 357 356 356 355 354 353 351 350 349 349 348 346 346 345 344 344 344 342 342 341 341 340 340 340
360 360 360 360 360 360 360 360 359 359 359 358 358 358 357 358 358 357 357 357 356 355 354 353 352 351 350 349 348 347 346 346 346 345 343 342 342 341 341 341 341 341
361 361 360 361 360 360 360 360 359 359 358 358 358 358 357 357 357 357 357 357 356 356 355 353 353 352 350 349 348 347 346 347 347 345 343 342 342 341 341 341 341 341
362 361 361 361 360 360 360 359 360 359 359 358 358 357 357 357 356 357 357 357 357 356 355 354 353 352 351 350 348 346 346 347 346 345 343 341 341 341 341 341 341 341
362 362 362 361 361 361 360 360 360 359 359 359 358 357 357 357 356 357 356 356 357 356 355 355 354 353 353 351 349 347 345 344 343 343 342 341 340 340 340 340 341 341
362 362 362 362 361 361 361 360 360 360 359 359 358 358 357 356 357 356 356 356 356 356 356 355 354 354 354 352 349 347 345 343 341 341 342 342 340 337 337 339 340 340
361 362 362 362 362 361 361 361 360 360 360 359 358 358 358 357 357 356 356 356 356 356 356 355 355 354 353 352 350 347 345 343 341 340 341 341 340 338 337 338 339 339
360 361 362 362 362 362 361 361 361 360 360 360 359 359 358 358 358 357 357 357 356 356 356 355 355 355 353 352 350 347 345 343 340 340 341 340 339 339 338 338 338 339

ECMWFNIL_925_thetae_054.txt.gz
Theta_e
353 353 353 352 353 353 353 353 353 354 354 354 354 353 353 352 353 353 354 355 357 356 356 355 355 355 355 353 349 346 347 343 338 337 337 339 340 340 338 337 337 336
353 353 353 353 353 352 353 353 353 353 353 353 353 353 352 352 353 353 354 355 356 356 356 355 355 355 355 354 351 347 347 346 341 337 337 339 340 340 338 337 337 337
354 353 353 353 353 353 353 353 353 353 353 353 353 353 352 352 352 354 354 356 357 356 356 355 355 355 355 355 352 349 347 347 343 338 337 340 341 340 338 337 337 337
353 353 354 353 353 353 353 353 353 353 352 352 352 352 352 352 352 353 355 356 357 357 356 355 355 355 355 354 353 350 348 348 345 339 337 340 341 340 339 337 337 338
353 353 353 353 353 353 353 353 353 352 352 352 352 352 352 352 353 354 355 357 357 357 356 355 356 355 355 354 352 350 348 348 346 340 337 339 341 340 340 338 338 338
353 353 353 353 353 353 353 352 352 352 352 352 352 351 352 352 353 354 355 356 357 357 356 355 356 355 355 355 352 350 349 347 346 341 337 338 340 340 340 339 339 339
353 353 353 353 353 353 353 353 353 352 352 352 352 351 351 352 352 353 354 356 356 356 356 355 356 355 355 354 353 351 349 347 346 343 338 337 340 340 340 340 339 340
353 353 353 353 353 353 353 353 353 353 352 352 352 351 351 351 351 353 354 355 355 355 355 355 355 355 355 354 353 351 349 347 346 344 340 337 338 340 341 340 339 339
353 353 353 354 353 353 353 353 353 353 352 353 352 352 352 351 351 352 353 354 354 354 355 355 355 355 354 354 353 352 350 347 346 344 342 338 337 338 340 340 339 339
353 354 353 354 354 353 354 353 353 353 353 353 353 352 352 352 352 352 353 354 354 354 354 354 354 354 354 353 353 352 351 348 346 345 343 341 338 336 339 340 340 340
353 354 353 354 354 354 354 353 353 354 353 353 353 353 353 353 353 353 353 353 353 353 353 353 353 353 353 353 352 352 351 348 347 346 345 344 341 338 337 339 340 340
353 353 353 354 354 354 354 354 354 354 354 353 354 353 353 353 353 353 353 353 353 353 353 353 353 353 352 352 352 351 350 348 347 346 345 344 342 340 338 338 339 340
353 353 354 354 354 354 354 354 354 354 354 354 354 354 354 354 353 353 353 353 353 353 353 353 353 353 352 352 351 350 350 348 346 346 345 344 343 341 339 338 337 339
352 353 353 354 354 354 354 354 354 354 354 354 354 354 354 354 354 353 353 353 353 353 353 353 352 352 352 351 350 349 349 348 347 346 345 344 343 342 341 339 338 338
353 353 353 353 354 354 354 354 354 354 354 354 354 354 354 354 354 354 353 353 353 353 353 352 352 352 352 351 350 349 349 348 347 346 345 344 343 343 342 340 339 339
353 354 354 354 353 354 354 354 355 355 355 355 355 354 354 354 354 354 354 354 353 353 353 352 352 352 352 351 350 349 349 348 347 346 346 345 344 343 342 341 340 340
354 354 354 354 354 354 354 354 355 355 355 355 355 355 355 355 355 355 354 354 354 353 352 352 352 352 352 351 350 350 349 349 347 346 346 346 345 344 343 341 341 341
354 355 355 355 355 355 355 355 355 355 355 356 355 355 355 355 355 355 355 354 354 353 353 352 352 352 352 351 351 350 350 349 348 346 346 346 345 344 343 342 342 341
354 355 356 356 356 356 355 355 356 355 356 355 356 356 356 355 355 355 355 355 354 354 354 353 352 352 352 351 351 351 350 349 348 346 346 346 346 345 344 343 342 341
355 355 356 356 356 356 356 356 356 356 356 356 356 356 356 356 356 356 355 355 355 355 354 354 353 352 352 352 351 351 351 350 348 346 346 347 347 346 345 343 342 341
355 355 356 356 356 356 357 357 357 357 357 356 356 356 356 356 356 356 356 355 355 355 354 354 353 353 352 352 351 351 351 350 348 346 346 347 347 346 345 343 341 341
356 356 356 356 357 357 357 357 357 357 357 357 357 356 357 356 356 356 356 356 356 356 355 355 354 353 352 352 351 351 350 350 348 346 346 346 346 345 344 342 342 342
356 356 356 356 357 357 357 357 357 358 357 357 357 357 357 357 356 357 356 356 356 356 355 355 354 353 353 352 352 351 350 349 348 346 345 345 345 345 344 342 342 342
356 356 357 357 357 357 357 358 357 358 358 358 357 357 357 357 357 357 357 356 356 356 356 355 355 354 353 352 352 351 350 350 349 347 345 344 344 344 343 342 341 341
357 357 358 358 358 358 358 358 358 358 358 358 358 357 357 357 357 357 356 356 356 356 356 356 355 354 353 353 352 351 351 350 349 348 346 344 343 342 341 341 341 341
357 358 358 358 358 358 358 358 358 358 358 358 358 358 358 357 357 357 356 356 356 356 355 355 355 354 353 353 353 352 351 350 349 348 348 347 346 343 340 340 341 340

ECMWFNIL_925_thetae_057.txt.gz
Theta_e
353 352 353 353 353 353 353 352 351 352 351 351 352 350 350 351 351 352 353 354 353 354 356 355 355 356 356 356 355 354 353 350 347 344 340 336 337 339 339 339 339 338
354 353 353 354 354 352 352 352 351 351 351 350 350 350 349 350 350 351 352 353 353 353 355 354 354 356 356 356 355 354 354 351 348 346 343 338 336 338 338 339 339 338
354 355 354 354 354 352 352 352 352 352 351 351 350 350 350 349 350 351 351 352 352 353 354 354 353 355 356 356 356 355 354 353 349 346 346 342 338 337 337 338 340 339
355 355 355 355 354 353 353 354 353 353 353 353 351 350 351 351 350 351 351 351 352 352 353 353 353 354 356 356 356 355 354 354 351 348 346 345 341 337 337 339 340 339
354 355 355 355 355 354 354 354 354 353 353 353 351 351 351 351 351 352 352 352 352 352 352 352 353 354 355 356 356 355 354 354 352 349 347 346 344 339 337 339 341 339
355 355 355 355 355 355 355 354 353 353 353 352 352 352 352 352 352 352 352 352 351 352 353 352 352 354 356 356 356 355 355 354 353 351 348 347 345 341 338 339 340 340
356 355 355 355 355 355 355 354 353 353 353 353 352 352 352 352 352 352 352 352 352 352 353 351 351 354 355 356 356 355 355 354 353 352 349 347 346 342 339 338 340 340
356 356 355 355 356 356 356 355 355 353 352 352 353 352 352 352 352 353 352 352 352 352 352 351 350 353 355 356 356 355 355 354 353 352 350 348 346 344 340 338 339 341
356 357 356 356 356 356 356 356 355 354 353 352 353 353 353 352 352 353 352 352 352 352 352 351 351 353 355 356 356 355 355 354 353 352 350 348 347 345 342 339 339 340
357 357 357 356 357 357 357 356 356 355 354 353 353 353 354 352 352 353 352 352 352 352 352 352 352 353 355 356 355 355 355 354 353 353 351 349 348 346 344 341 339 340
357 357 357 356 357 356 356 356 356 356 355 354 354 354 354 353 352 352 353 353 352 351 351 351 352 353 354 355 355 355 354 354 353 353 351 350 349 347 346 343 341 340
357 356 357 357 356 356 356 356 356 356 356 355 354 354 355 354 353 353 353 353 352 351 351 350 351 353 354 354 354 354 354 353 353 352 352 350 349 347 346 345 343 341
357 356 357 357 357 357 357 356 356 356 356 356 356 355 355 355 355 354 353 353 352 352 351 351 351 353 353 353 353 353 354 353 352 352 351 350 349 348 347 346 344 343
356 356 356 357 357 357 357 357 357 357 356 356 356 356 356 356 356 356 354 353 353 352 352 352 352 353 353 353 353 353 353 352 352 351 351 350 349 349 347 346 345 344
354 356 356 356 357 357 357 357 357 357 357 357 357 356 356 356 356 356 356 355 354 353 353 353 353 353 353 353 353 352 352 352 351 351 350 350 349 349 347 346 345 345
353 355 356 356 357 357 357 357 357 357 357 357 357 357 356 356 356 357 357 356 355 354 354 354 354 353 353 353 352 352 351 351 351 351 350 350 349 348 347 346 346 345
353 354 356 356 356 357 357 357 357 357 357 358 357 357 357 357 357 357 357 357 357 356 355 355 354 353 353 352 352 352 351 351 351 350 349 349 349 349 347 347 346 345
354 355 355 356 356 357 357 357 357 358 358 358 358 358 358 358 357 358 358 357 357 357 357 356 355 354 353 353 352 351 351 350 351 350 349 349 349 349 348 347 347 346
354 355 355 356 356 356 357 357 357 358 359 358 359 358 358 358 358 358 358 358 358 358 357 357 356 354 353 352 352 352 351 351 350 350 350 349 348 349 348 348 347 346
355 356 356 357 357 356 357 358 357 358 358 358 359 358 359 359 358 358 358 358 358 357 357 357 357 355 354 353 352 352 351 350 350 350 350 349 349 349 349 349 348 347
356 356 357 358 358 358 358 358 358 359 358 358 359 359 359 359 358 359 359 358 358 358 357 357 357 356 354 353 352 352 352 351 350 350 350 349 349 349 349 349 349 348
357 358 358 359 359 359 359 358 359 359 359 359 359 359 360 360 359 359 359 358 358 358 357 357 357 356 355 354 353 352 352 350 349 349 350 349 349 349 349 349 349 347
357 357 359 359 359 360 360 359 359 359 360 359 359 359 359 359 360 359 359 359 358 358 358 358 357 357 355 354 353 353 352 351 349 350 350 350 349 349 348 348 348 347
355 355 357 359 360 360 360 360 360 360 360 360 359 359 359 359 360 360 359 360 359 358 359 358 357 357 356 355 354 353 352 351 350 350 351 350 350 349 349 349 347 346
354 355 356 358 359 360 360 360 361 361 361 360 359 359 360 360 360 360 360 360 359 359 358 358 358 358 356 355 355 353 353 352 351 350 351 351 351 350 350 349 347 345
354 355 356 358 359 359 359 360 361 361 361 360 359 359 360 360 360 360 361 360 360 359 358 357 358 358 357 355 355 354 353 352 351 351 351 351 351 351 350 348 345 344

ECMWFNIL_925_thetae_060.txt.gz
Theta_e
361 361 361 362 361 360 360 361 360 360 359 358 358 360 360 361 361 360 360 363 363 361 361 361 361 360 359 360 359 358 357 356 354 352 351 350 347 345 345 345 345 345
361 362 362 361 362 361 360 361 361 360 360 359 357 358 360 362 362 361 361 364 364 362 362 362 362 361 360 360 360 358 358 357 355 353 351 351 349 346 344 345 345 345
362 362 362 361 361 362 361 360 361 361 360 360 359 358 360 362 363 362 361 362 363 363 362 363 362 361 361 360 359 358 358 358 357 353 352 352 350 347 344 345 345 345
363 363 363 362 361 361 361 361 362 361 360 360 360 359 360 361 363 363 362 362 363 363 363 363 363 361 361 360 360 359 358 358 358 355 353 352 351 349 345 343 344 345
364 364 363 363 362 362 362 361 362 362 361 360 360 360 361 362 363 364 364 363 363 362 362 363 363 362 361 360 359 360 359 359 358 356 354 353 352 351 347 344 344 345
364 364 364 363 363 362 362 362 362 362 361 361 361 360 361 362 362 362 363 364 363 362 361 362 363 362 362 361 361 360 360 359 357 356 356 355 353 352 350 346 345 345
364 365 364 363 364 363 363 363 362 362 362 362 361 361 361 362 363 362 362 363 363 362 362 362 363 364 363 363 362 361 360 360 359 357 356 356 355 354 352 349 347 346
364 365 364 364 364 364 363 363 363 363 362 362 362 362 362 362 363 363 362 363 362 363 363 363 364 365 364 363 363 361 361 361 360 358 357 356 355 355 353 351 349 347
365 365 365 365 364 364 364 363 364 364 363 363 362 362 363 362 362 362 363 363 363 364 364 364 365 365 364 363 363 362 361 361 360 359 357 357 356 356 355 353 351 349
365 364 364 364 364 364 364 363 363 363 363 363 362 361 363 363 363 363 363 364 364 364 365 365 365 366 365 364 362 362 361 361 361 360 359 358 357 357 357 355 353 351
365 364 364 364 364 363 363 362 362 363 363 364 363 362 362 363 363 363 363 365 365 364 365 365 365 366 365 364 363 362 361 361 361 361 360 360 359 358 357 356 354 353
364 364 364 363 363 362 362 362 361 361 362 363 363 362 362 362 363 363 363 364 365 365 364 365 365 365 365 364 363 363 362 361 361 361 360 360 359 358 358 357 356 354
364 364 363 363 362 362 362 361 361 361 361 362 362 363 362 361 361 363 363 364 364 365 364 365 365 365 365 364 363 363 362 361 361 361 360 360 359 359 358 357 356 355
365 364 364 363 362 363 362 361 361 361 361 361 361 362 362 361 360 362 363 364 364 364 364 364 365 365 365 365 363 363 362 362 361 360 360 360 359 358 358 357 356 355
365 365 364 364 363 363 363 363 362 362 362 362 362 362 362 361 360 360 363 364 364 364 364 364 364 365 365 364 363 363 362 362 361 360 360 360 359 358 357 357 356 355
365 365 365 365 364 363 364 363 362 362 362 362 362 362 362 362 361 361 361 363 364 364 364 364 364 364 363 361 361 361 361 361 361 360 359 359 359 358 357 357 356 355
366 365 365 366 364 364 365 364 363 363 363 363 363 363 363 363 362 362 361 362 364 364 364 364 364 362 360 359 359 358 359 361 361 360 360 359 359 359 358 357 356 355
366 366 366 366 365 365 364 365 364 364 363 364 364 364 364 363 363 363 362 361 362 364 364 364 364 362 359 358 358 356 356 359 361 361 360 359 359 358 358 357 357 356
366 367 366 366 366 365 364 365 365 364 364 364 364 364 364 364 363 363 363 362 362 363 364 364 364 362 360 358 357 356 354 356 359 360 360 359 358 358 358 358 357 357
366 367 366 366 366 365 365 366 365 365 365 363 364 364 364 365 364 364 364 364 363 363 364 364 364 363 361 359 357 356 355 354 356 359 359 359 359 358 358 358 358 357
366 366 365 365 366 365 365 365 365 365 365 363 363 364 365 365 365 364 364 364 364 364 363 364 364 363 362 360 358 356 355 354 354 357 358 359 359 359 358 358 358 358
365 364 364 365 365 365 365 365 365 365 365 364 363 363 364 365 365 365 365 364 365 364 364 364 364 362 361 360 358 357 356 354 354 356 357 358 359 359 357 357 357 358
363 364 364 364 365 365 365 365 365 365 365 365 364 363 364 365 365 365 365 364 365 365 364 365 364 363 361 360 358 357 356 355 354 355 357 358 358 358 356 356 356 357
363 364 365 365 364 365 365 365 365 365 365 365 364 364 363 363 364 365 365 365 365 364 365 365 364 363 361 359 358 357 356 355 354 355 356 357 358 357 355 355 355 355
363 364 365 365 365 365 364 364 365 364 365 365 364 364 363 363 363 364 365 365 364 364 364 363 363 363 361 360 359 357 357 356 354 355 356 357 357 356 355 355 355 355
363 364 365 364 365 365 365 364 365 364 364 364 364 364 363 363 363 363 365 365 365 364 363 362 361 362 361 360 359 357 357 356 355 356 356 356 357 355 355 354 354 355

ECMWFNIL_925_thetae_063.txt.gz
Theta_e
364 364 363 362 361 359 359 362 363 363 361 359 359 361 362 361 359 359 359 362 364 364 364 364 364 363 362 363 362 360 358 357 356 355 352 350 350 348 346 347 348 348
364 365 363 361 360 360 360 362 362 363 362 360 357 357 359 361 361 360 359 360 362 364 364 364 364 364 363 362 362 361 359 359 358 355 353 351 350 350 347 347 348 348
365 365 363 361 360 360 360 360 361 362 361 360 358 355 357 360 361 362 361 360 361 363 363 364 363 364 363 362 363 362 361 360 359 356 354 352 351 351 349 347 347 347
365 364 364 361 359 360 361 361 361 362 360 359 359 356 354 356 360 363 363 362 362 362 363 363 363 362 363 363 362 362 360 360 360 357 355 353 351 351 351 348 346 347
366 364 364 362 360 360 362 361 361 361 361 360 359 358 356 355 358 361 364 363 363 364 363 363 363 362 363 364 363 362 361 359 361 359 356 354 352 352 351 349 346 347
366 365 364 364 362 362 361 362 361 360 362 361 360 360 359 358 358 361 363 363 363 362 360 360 362 362 362 364 364 363 361 360 360 361 359 355 353 353 352 351 348 346
367 367 366 365 364 363 362 362 362 361 361 361 361 361 360 360 360 361 362 363 363 361 360 358 361 362 361 363 364 363 362 360 360 361 360 357 355 354 353 353 350 347
367 368 367 366 365 364 363 363 363 364 363 362 362 362 361 361 362 362 362 362 363 362 361 359 360 363 362 362 364 365 362 361 361 361 361 359 357 356 355 354 353 350
368 368 368 368 366 365 364 363 363 365 365 365 363 363 363 363 362 363 363 363 363 362 364 362 361 362 363 362 364 365 363 361 361 361 361 359 358 357 356 355 354 352
368 368 367 368 366 364 365 363 361 364 366 366 365 363 363 364 363 363 364 365 364 363 364 364 363 363 364 363 364 366 365 362 361 362 363 361 359 358 357 357 355 354
367 367 367 367 365 364 362 361 360 361 364 366 366 363 361 363 365 364 365 367 366 364 364 366 365 365 366 365 364 365 367 364 362 362 363 362 360 358 358 358 357 355
368 367 366 366 364 363 361 361 359 360 361 364 366 364 361 361 365 366 366 367 367 366 365 366 367 367 367 366 364 364 366 365 364 362 363 363 362 360 359 359 359 357
369 368 366 365 364 362 360 360 359 358 358 361 364 366 363 360 362 366 367 367 368 368 366 367 368 367 367 367 366 364 366 366 365 363 362 364 363 361 361 360 360 359
370 370 367 365 364 364 361 360 359 358 358 360 362 365 365 361 360 363 367 367 368 369 368 367 368 368 368 369 368 366 365 366 365 362 362 363 363 363 362 361 361 361
370 370 369 366 364 366 365 362 360 360 359 359 362 363 365 363 360 359 365 367 368 369 368 368 368 368 368 369 369 368 366 366 366 364 361 362 363 363 361 360 360 360
372 372 371 370 366 367 369 365 361 361 361 360 362 362 364 364 363 360 361 365 368 369 369 368 368 369 367 366 367 367 368 366 366 365 363 361 363 363 362 360 358 358
373 373 372 371 370 368 370 368 364 363 362 362 362 363 364 364 365 363 361 362 365 369 369 369 369 368 366 365 364 365 366 366 366 366 365 363 362 362 361 359 358 357
373 374 373 372 371 370 370 370 368 366 364 364 364 365 365 365 365 366 364 362 363 367 369 370 369 367 365 364 363 362 362 364 366 366 366 364 363 362 362 360 358 357
373 374 374 373 373 372 370 371 370 368 367 366 367 367 367 367 367 367 367 365 363 365 368 369 369 368 365 363 363 361 360 361 364 365 365 365 364 362 362 361 360 357
373 375 374 374 374 372 371 372 371 370 368 367 367 368 368 369 368 368 368 368 366 365 366 368 369 369 367 364 362 362 360 358 361 364 364 365 365 364 362 362 361 360
374 374 374 374 374 373 371 371 371 371 370 367 368 368 368 369 369 369 369 368 368 366 365 366 368 368 368 366 363 362 360 360 359 362 364 365 365 365 364 363 362 362
373 373 374 374 374 372 373 371 372 372 371 369 367 367 368 369 369 369 368 368 369 367 366 366 367 366 367 367 365 362 361 360 359 360 362 363 365 365 365 364 363 363
373 373 374 373 373 373 372 372 371 372 371 370 368 367 367 368 370 369 369 369 368 368 368 366 366 366 365 366 366 364 362 360 360 360 361 362 363 364 365 366 365 363
372 372 373 373 373 373 372 372 371 371 371 370 369 367 366 366 368 369 368 369 368 368 368 368 367 367 366 366 365 365 363 361 360 360 362 362 362 362 363 365 365 363
371 371 373 373 372 372 371 371 370 370 371 370 369 368 366 365 366 367 368 369 369 368 368 367 368 368 367 366 366 364 363 362 360 361 362 362 362 362 362 364 364 363
370 371 372 371 371 371 369 370 370 370 369 370 369 368 367 366 365 365 367 369 368 369 369 367 367 368 367 367 366 364 363 361 360 362 363 362 363 363 362 363 364 363

ECMWFNIL_925_thetae_066.txt.gz
Theta_e
361 361 362 362 362 360 359 361 359 358 357 358 360 359 360 362 361 360 360 360 362 362 361 361 361 361 361 362 361 360 359 357 356 356 352 351 351 348 346 345 347 349
361 362 362 363 363 360 360 361 361 360 360 360 360 360 361 361 361 359 359 360 362 362 363 362 362 361 362 363 362 360 359 358 357 357 354 352 351 350 348 346 346 347
362 363 363 363 363 362 360 360 362 362 362 362 361 360 361 361 361 360 359 361 361 363 364 363 362 362 362 362 363 361 360 359 358 356 356 353 352 351 350 347 347 347
363 363 364 364 363 362 360 359 361 362 362 363 361 360 360 361 362 361 359 360 361 363 364 364 364 364 363 362 362 363 360 359 358 358 358 355 352 351 351 350 348 347
363 363 364 364 363 362 360 358 359 361 362 363 362 360 359 358 360 362 360 359 361 362 363 365 365 365 364 363 363 363 362 361 359 359 358 356 354 352 352 351 350 347
363 363 363 364 363 362 360 358 358 359 361 362 361 360 359 356 357 361 362 361 360 361 363 364 365 365 365 364 363 363 362 361 361 360 359 358 355 353 352 352 351 348
363 363 363 364 365 362 361 359 357 357 360 361 360 360 360 357 356 358 361 362 362 361 361 363 364 364 365 364 364 363 362 362 361 361 360 359 357 354 353 352 352 349
362 363 362 364 364 361 359 358 359 358 359 360 360 359 360 359 356 356 357 362 364 362 361 362 362 363 364 364 363 364 364 362 361 360 360 360 359 356 354 353 353 351
364 364 363 363 363 361 359 357 359 360 358 359 361 360 359 359 358 357 356 358 363 363 363 361 361 362 362 362 364 365 364 363 361 360 360 361 361 359 356 354 354 353
365 366 366 364 364 363 361 357 357 360 360 359 359 360 360 359 359 359 357 358 360 363 363 361 360 361 361 362 362 363 364 364 363 360 360 361 361 360 357 355 355 354
365 366 367 366 364 363 362 359 357 359 361 360 360 359 360 361 360 360 360 360 360 361 363 362 361 360 360 361 362 362 364 364 363 361 360 361 361 360 359 357 356 355
365 365 366 367 364 362 361 360 358 358 360 361 362 360 359 360 361 361 361 362 362 361 362 363 362 361 360 361 361 362 363 364 364 362 360 360 361 360 359 358 357 356
364 363 365 366 363 361 360 359 358 357 358 361 363 363 361 360 361 363 361 362 363 362 362 362 362 361 360 361 361 363 363 364 365 363 361 361 361 361 360 359 358 357
366 364 363 364 363 361 361 360 359 357 357 358 362 365 364 360 360 363 363 363 363 363 364 363 363 362 362 361 361 363 363 364 365 365 363 362 362 362 362 361 359 357
366 365 363 363 363 362 361 360 360 358 358 358 360 363 365 363 361 361 363 365 363 364 365 365 363 363 362 363 362 362 363 364 364 366 365 364 363 363 363 362 360 358
366 365 364 363 363 363 361 361 360 360 358 359 359 361 363 365 363 359 361 365 366 365 366 366 366 364 363 362 362 362 362 363 363 364 365 364 363 363 363 363 362 360
366 367 366 364 363 362 363 362 360 360 360 359 359 359 360 363 364 361 359 361 365 366 367 368 367 365 364 362 361 360 360 361 362 363 365 363 363 362 362 363 362 361
368 368 368 367 365 363 363 362 362 360 360 360 359 358 359 361 364 364 360 358 363 367 368 368 367 367 365 364 361 360 358 360 360 362 364 364 363 361 361 361 362 362
369 370 370 369 367 364 363 363 363 361 360 360 360 359 359 359 363 365 364 361 360 364 368 369 368 367 366 365 364 362 359 360 360 360 362 363 363 361 360 359 360 360
370 371 372 370 368 365 363 364 364 363 361 360 360 361 361 361 363 364 365 364 361 362 365 368 369 369 369 368 366 364 361 361 360 361 361 361 362 363 361 359 358 359
373 374 374 373 370 367 365 365 365 366 365 362 361 361 362 363 363 364 365 366 365 363 363 365 368 370 370 369 368 366 364 362 360 360 361 362 363 363 362 361 359 358
374 375 376 375 374 370 369 367 367 369 367 365 363 362 362 363 364 364 365 365 366 365 364 364 364 366 369 370 369 367 366 363 362 361 362 363 363 363 363 362 361 360
375 377 377 375 374 373 371 369 369 370 370 368 365 364 365 365 366 365 365 365 365 366 367 365 364 365 366 368 369 370 367 365 364 363 362 362 362 363 363 363 363 362
377 377 377 375 376 376 374 372 371 371 371 370 368 367 366 366 368 367 366 367 367 367 367 367 365 365 364 364 367 369 369 368 365 364 364 363 363 362 362 363 364 365
375 378 377 376 376 377 376 374 372 371 372 372 370 367 366 366 368 369 369 368 368 367 368 368 367 367 366 364 366 366 368 368 366 364 364 364 363 363 362 362 363 364
375 376 376 376 376 377 376 374 372 372 372 372 371 370 368 367 366 368 370 370 370 369 368 367 367 368 367 367 366 365 366 367 366 365 365 365 365 364 363 363 363 363

ECMWFNIL_925_thetae_069.txt.gz
Theta_e
356 356 357 357 356 358 359 358 355 357 357 356 357 357 357 356 356 357 359 359 359 360 361 362 363 361 361 360 360 360 358 357 357 353 351 349 343 338 339 345 348 349
356 357 357 358 358 358 360 360 357 357 357 356 356 356 356 356 357 358 359 360 360 361 361 361 362 362 361 361 360 360 359 358 357 356 353 350 348 344 339 341 346 348
357 356 357 358 358 359 361 361 359 357 357 356 355 356 357 357 359 359 359 360 360 361 360 361 362 362 361 361 361 360 360 359 357 356 355 352 350 349 345 340 341 345
357 358 357 358 359 359 360 361 361 358 356 356 356 355 357 358 359 360 360 360 361 360 360 360 361 361 361 361 361 361 360 360 358 356 356 355 352 350 349 345 341 342
358 358 358 358 359 360 360 361 361 359 357 355 355 356 356 358 359 360 360 360 360 360 360 360 360 360 361 361 361 362 361 360 358 356 356 356 354 351 350 349 346 344
358 359 359 359 360 360 360 361 360 360 359 357 356 357 358 358 358 359 360 360 360 360 360 360 360 361 361 361 361 361 361 360 359 358 357 356 356 354 351 350 348 347
358 359 359 360 360 360 361 360 360 361 361 359 358 357 359 360 360 359 360 360 360 360 361 360 361 361 361 361 361 361 362 362 360 358 357 357 356 356 353 352 351 349
359 359 359 360 361 361 361 360 359 360 360 361 360 360 360 361 361 360 359 360 360 361 361 361 361 362 362 362 362 362 362 362 362 360 358 357 357 357 355 353 352 350
360 360 360 361 361 361 361 361 360 359 359 360 361 360 361 360 361 361 360 360 360 360 361 362 362 362 363 364 363 363 363 362 362 362 360 359 358 358 357 354 352 352
360 361 360 361 362 361 362 361 360 359 359 359 360 360 361 361 359 359 359 361 361 359 360 361 363 362 363 364 364 363 363 362 362 362 361 360 359 358 358 355 353 352
361 362 361 361 362 362 361 361 360 359 358 357 359 359 360 360 360 358 358 360 361 361 360 361 361 362 363 363 364 364 363 363 362 362 361 361 360 359 358 356 355 353
361 361 361 361 361 362 362 361 360 360 358 357 357 359 359 359 360 359 357 357 359 360 361 360 360 361 362 362 362 363 363 362 362 362 361 361 360 360 359 358 357 355
361 361 361 361 361 361 361 361 360 359 358 358 357 357 358 359 359 359 359 357 357 358 360 361 361 361 361 362 362 362 362 362 362 362 361 361 361 360 359 359 358 357
362 361 360 361 361 360 360 360 359 358 357 357 357 357 357 358 359 359 359 358 358 356 357 360 361 362 361 362 362 362 362 362 362 362 362 361 361 360 360 360 359 358
362 361 361 361 361 360 359 359 358 357 356 356 358 357 357 357 358 359 359 359 359 358 357 358 360 362 362 361 362 362 361 362 361 361 362 361 362 360 360 360 360 359
362 362 361 361 361 360 360 359 358 358 356 355 356 357 357 356 356 357 359 359 359 360 360 359 359 360 361 361 361 360 361 361 361 361 361 361 361 361 361 360 360 360
363 362 362 361 362 362 361 359 359 358 357 355 356 357 358 357 356 356 357 359 359 359 360 361 361 360 360 361 361 361 361 361 361 361 362 361 361 361 361 360 360 360
364 363 362 361 361 362 362 361 359 359 358 356 355 356 358 358 358 358 357 358 360 360 360 361 361 362 361 361 361 360 361 361 361 361 361 362 362 362 361 361 360 360
366 364 363 362 361 361 362 361 360 359 358 357 356 356 357 359 360 360 359 359 361 361 361 361 361 361 361 361 361 361 360 361 359 360 361 362 362 362 362 362 361 361
366 365 364 362 362 361 361 362 361 359 358 358 358 357 358 360 361 362 362 361 360 362 362 362 361 361 361 362 361 360 361 360 360 360 360 360 361 361 362 362 361 361
367 366 365 364 363 362 362 361 361 361 359 359 359 359 358 359 361 362 364 362 362 362 362 363 363 362 362 361 362 362 361 361 361 360 359 360 360 360 360 361 360 360
367 367 365 365 364 363 363 362 362 361 360 360 359 359 359 359 359 361 362 363 363 362 361 362 363 363 363 362 362 362 362 363 362 361 360 360 359 359 359 359 360 360
368 367 366 366 366 365 364 362 362 362 361 361 359 359 359 359 359 359 360 361 363 363 362 361 362 362 363 364 363 363 364 365 363 362 361 361 360 360 359 359 359 360
368 368 368 367 367 367 365 364 362 362 362 362 360 359 359 359 360 360 359 359 361 362 363 363 362 361 362 364 365 365 366 366 364 363 362 361 361 361 361 361 360 360
368 368 369 368 368 368 366 366 365 363 363 363 362 361 360 359 359 360 360 360 360 361 362 363 363 363 362 363 365 366 367 367 366 364 363 362 363 363 362 362 362 361
370 369 369 369 369 369 369 368 366 364 364 364 364 364 361 360 360 361 361 361 361 361 362 362 363 364 364 364 364 365 366 367 366 365 363 363 363 363 363 363 362 363

ECMWFNIL_925_thetae_072.txt.gz
Theta_e
353 353 354 353 355 355 353 352 352 353 353 352 353 354 355 355 354 355 355 356 356 356 356 356 356 357 358 361 360 359 358 355 353 351 351 352 345 336 339 347 346 343
354 354 354 353 354 354 354 353 352 352 354 354 353 353 354 355 355 355 355 356 356 356 356 356 357 356 357 360 361 360 359 357 355 354 353 353 349 340 337 343 347 346
354 353 353 353 353 353 354 355 353 352 354 355 354 353 354 355 355 355 355 355 356 356 357 357 357 357 357 359 361 361 360 359 357 356 355 354 353 348 340 339 344 347
354 353 353 353 353 353 354 354 354 354 353 355 355 355 354 355 355 355 355 354 355 357 357 357 358 357 357 359 361 361 360 359 358 357 357 356 355 352 346 341 340 343
354 354 354 353 354 354 353 354 355 355 354 354 355 356 356 356 355 356 356 355 355 356 357 358 358 358 358 358 360 361 360 360 359 359 358 357 355 354 351 347 343 341
354 354 354 354 353 354 355 354 355 356 356 354 355 356 357 356 356 356 355 355 356 356 357 358 358 359 358 359 361 361 360 360 360 360 359 358 357 355 353 352 349 345
355 354 354 354 354 355 355 355 356 357 357 356 355 356 357 357 357 356 355 355 356 356 357 358 359 360 359 360 360 361 361 360 360 360 360 358 357 356 354 353 352 350
355 355 354 354 355 355 355 356 357 357 358 358 357 355 356 357 358 357 355 356 356 357 358 358 359 359 359 359 360 361 361 361 360 360 359 359 357 356 355 354 353 352
355 355 355 355 355 355 356 356 357 358 358 359 359 356 356 356 357 357 357 357 358 357 358 358 359 359 359 360 360 360 360 360 361 360 360 359 358 357 356 355 354 353
356 356 356 356 356 356 356 356 356 358 358 359 360 358 356 355 356 357 357 358 358 358 358 358 359 359 359 360 360 359 360 360 361 360 360 359 358 358 357 355 355 354
356 357 356 357 357 357 357 357 357 358 358 359 360 359 358 356 356 356 357 357 357 357 358 357 358 359 359 360 359 359 359 359 359 360 360 360 359 358 358 356 355 354
357 357 357 357 357 357 357 357 357 358 357 358 359 359 359 358 357 356 357 357 357 356 357 358 358 358 359 359 360 360 360 359 359 360 359 360 360 359 358 357 355 355
357 357 357 357 357 357 358 358 358 358 358 358 358 358 360 359 358 357 357 358 358 358 358 358 358 359 359 360 360 360 361 360 360 360 360 360 360 359 359 358 356 356
357 358 358 357 358 357 357 358 358 359 358 358 358 358 358 359 359 359 358 358 359 360 360 359 359 359 360 360 360 361 361 361 361 361 360 360 360 360 360 359 359 358
358 358 358 358 358 357 358 358 358 359 359 359 358 357 357 358 359 359 359 358 359 359 360 360 360 359 359 359 360 361 361 361 361 361 362 361 361 360 360 359 359 359
358 359 359 358 358 358 358 359 358 359 359 358 358 358 357 357 358 358 359 358 358 358 358 359 360 359 359 359 359 360 360 361 361 361 362 361 361 360 360 360 359 359
359 359 359 358 358 358 358 358 359 358 359 359 359 358 357 356 356 357 357 357 358 358 357 357 358 358 359 359 359 359 359 360 360 360 361 361 361 361 360 360 360 359
359 359 359 359 358 359 358 358 358 358 359 358 358 358 357 357 356 356 356 357 357 358 358 357 356 357 357 358 359 359 359 359 359 360 360 360 361 361 360 360 359 359
360 360 360 359 359 359 359 359 358 358 358 358 357 357 357 356 357 356 356 355 356 357 358 358 357 356 357 357 357 358 359 360 359 359 360 360 360 360 360 360 360 359
362 361 360 359 359 359 359 359 358 358 358 357 357 356 356 355 356 356 356 355 355 356 356 357 357 357 357 357 356 356 357 359 360 360 359 359 359 360 360 359 360 360
363 362 361 361 360 359 359 359 359 358 358 357 357 356 355 355 355 356 356 355 355 355 356 356 356 357 358 358 357 357 358 358 359 360 360 359 359 359 359 359 360 359
365 363 362 361 360 360 360 360 359 359 358 358 357 356 356 355 354 355 355 355 355 355 354 355 355 356 357 357 357 358 358 359 359 360 359 360 359 359 359 359 359 359
366 364 363 362 361 361 360 360 360 360 359 358 357 357 356 355 355 355 355 356 357 356 356 355 355 355 356 357 357 357 359 359 360 359 359 359 359 359 359 359 359 359
367 366 365 364 362 361 361 360 360 359 360 359 358 358 357 356 356 355 355 356 357 357 358 356 356 356 357 358 358 359 358 360 360 359 359 359 359 359 359 359 359 359
367 367 366 364 364 362 362 361 360 360 360 360 359 358 357 357 356 356 356 356 357 358 358 359 359 359 358 359 360 360 360 360 361 360 359 358 359 359 359 359 359 359
367 367 366 366 365 363 363 362 361 360 360 359 360 359 358 358 357 357 357 356 356 357 358 360 360 361 360 360 360 360 362 361 361 361 360 360 359 359 360 359 360 360

ECMWFNIL_925_thetae_075.txt.gz
Theta_e
353 353 353 353 353 353 353 352 352 352 352 352 352 352 353 353 352 352 352 352 353 352 348 345 349 353 354 356 358 359 359 357 356 355 354 351 346 345 344 343 342 342
353 353 353 353 353 353 352 352 352 352 351 351 352 352 352 353 352 353 352 353 353 353 350 348 351 354 355 355 356 359 360 359 358 357 355 352 347 346 347 345 341 343
354 354 353 353 353 353 353 352 352 352 351 351 351 351 352 352 353 353 352 352 353 353 353 351 352 355 356 356 356 357 359 360 359 358 356 353 350 349 351 348 341 340
354 354 354 353 353 353 352 352 352 352 352 351 351 351 352 352 352 353 353 353 353 354 353 352 353 354 356 356 357 357 357 358 359 358 357 356 354 353 353 352 347 341
355 354 354 353 353 353 352 353 353 352 352 351 351 351 352 352 353 352 353 353 353 353 353 353 353 354 355 356 357 358 357 358 359 360 359 358 357 356 355 355 352 347
354 354 353 353 353 353 353 352 353 353 352 351 351 352 352 352 352 352 353 353 353 353 353 353 354 353 354 355 357 357 357 357 358 359 360 359 358 358 356 356 355 353
354 354 353 354 353 352 353 353 352 353 353 352 352 352 352 352 353 353 353 353 352 353 354 353 353 354 354 355 356 357 357 358 358 359 360 359 359 358 357 357 356 355
354 354 353 353 353 353 352 352 353 353 353 354 353 352 352 352 354 354 354 354 353 353 354 353 353 353 354 355 355 356 357 358 358 360 360 360 359 359 358 357 357 356
354 353 353 353 353 352 353 352 352 352 352 353 354 353 353 353 353 354 354 355 355 354 354 354 354 353 353 355 355 355 356 357 358 359 359 359 359 359 359 358 357 357
353 353 353 353 353 352 352 353 352 353 352 353 353 354 354 353 353 354 355 356 356 355 355 355 355 354 354 355 355 354 355 356 357 358 358 359 359 359 359 358 357 357
353 353 353 353 353 353 353 353 353 353 353 353 353 354 354 354 354 354 355 356 356 356 356 355 355 355 355 355 355 354 355 355 357 357 358 358 358 359 358 358 358 357
354 353 353 353 353 353 353 353 353 353 353 354 354 354 354 355 355 355 355 355 356 356 356 356 355 355 355 355 356 356 356 356 357 357 357 357 357 357 357 357 357 357
354 353 353 354 353 353 353 353 353 353 353 354 354 355 355 356 355 356 355 356 356 357 357 356 356 356 356 357 357 357 357 357 357 357 357 357 358 357 357 358 357 357
354 354 354 353 354 354 354 354 353 353 353 354 354 355 356 356 356 356 356 356 356 357 357 357 357 357 357 357 357 357 357 357 357 358 358 358 358 358 357 358 357 357
354 354 354 354 354 354 354 354 354 354 354 354 354 355 355 356 356 356 357 356 356 356 356 356 357 357 357 356 356 357 357 357 357 358 358 358 358 358 358 358 358 358
354 354 354 354 355 354 354 355 354 355 355 355 355 355 355 355 356 356 357 357 357 356 356 356 356 356 356 355 355 355 356 357 358 358 358 358 359 359 358 358 358 358
354 355 355 355 355 355 355 354 355 355 355 355 355 356 355 355 355 356 357 357 357 357 357 357 356 356 355 355 355 355 356 357 358 358 358 359 359 359 359 358 358 358
355 355 355 355 355 356 355 355 355 355 356 356 356 356 356 356 356 356 356 356 357 357 357 357 356 356 356 356 356 356 357 357 358 358 358 359 359 359 359 359 359 358
355 356 356 356 356 355 356 356 356 356 356 356 356 356 357 356 356 356 356 355 356 357 357 357 356 357 356 356 357 357 357 358 358 358 359 358 359 359 359 359 359 359
356 356 356 356 356 356 356 356 356 356 356 356 356 356 356 357 356 356 356 355 355 356 356 356 356 356 357 356 356 356 357 358 358 358 358 358 359 358 358 359 359 359
357 357 357 357 357 357 357 356 356 357 356 356 357 356 356 357 357 356 356 355 355 355 355 355 355 355 356 356 356 356 356 357 358 358 358 358 358 358 358 358 358 358
357 357 357 357 358 357 357 357 357 357 356 357 356 356 356 357 356 356 356 356 356 356 355 355 354 354 355 355 356 356 356 356 357 357 357 358 357 358 358 357 357 358
358 358 358 358 358 357 357 357 357 357 357 357 357 356 357 356 356 356 355 355 355 355 355 355 354 354 354 355 355 356 356 356 356 356 356 356 356 357 357 357 357 357
360 359 359 358 359 358 358 358 358 357 357 357 357 357 356 356 356 355 355 355 355 354 355 354 355 354 354 354 354 355 355 356 356 356 356 355 356 356 356 356 357 357
362 361 360 359 359 359 358 359 358 358 358 357 357 357 356 356 356 355 355 354 354 354 354 354 354 355 354 354 354 353 354 355 355 356 355 355 355 356 356 356 356 357
363 363 362 361 361 360 360 359 359 358 358 358 358 358 357 357 356 355 355 355 354 354 354 354 354 354 354 354 354 354 354 354 355 355 355 355 355 355 355 356 356 357

ECMWFNIL_925_thetae_078.txt.gz
Theta_e
352 352 352 352 352 352 352 352 352 352 351 352 352 352 352 352 351 351 351 351 351 351 352 352 353 350 346 343 346 354 357 357 356 355 353 353 352 352 352 348 344 341
353 352 352 352 352 352 352 352 352 352 351 352 351 352 352 352 352 351 351 351 351 351 352 353 353 352 349 345 347 353 357 357 357 357 356 354 353 353 353 351 346 343
353 352 352 352 352 352 352 352 352 351 351 352 351 351 352 352 352 352 352 351 351 351 351 352 353 354 351 348 348 352 355 356 357 357 357 356 355 355 354 352 347 345
353 353 352 352 352 352 352 352 352 351 351 351 351 351 351 351 351 351 352 351 351 351 351 352 352 353 353 351 351 353 355 356 356 357 358 358 357 357 355 353 349 347
353 353 353 352 352 352 352 352 352 352 352 351 351 351 351 351 351 350 352 351 351 351 351 351 352 353 354 353 352 353 355 356 356 357 357 357 358 357 357 355 352 351
353 353 353 353 352 352 352 352 352 351 351 351 351 351 351 350 350 350 350 351 351 351 351 351 352 352 353 354 353 353 355 356 356 357 357 357 357 357 357 357 356 355
353 353 353 353 352 352 352 352 352 352 352 351 351 351 351 350 350 349 350 350 350 351 351 351 352 353 354 354 354 354 354 355 356 357 357 357 356 357 358 358 358 357
353 354 353 353 353 353 352 352 353 353 352 352 352 351 351 350 350 350 349 349 350 350 351 351 351 352 353 354 354 354 354 355 355 357 357 357 357 356 356 357 358 358
354 354 353 353 353 352 353 352 353 352 353 352 352 351 351 351 350 350 350 350 350 350 351 351 351 352 353 353 354 354 354 354 355 356 356 356 356 356 355 356 357 358
354 354 353 353 353 352 353 353 353 353 352 352 352 351 351 351 351 350 350 351 351 351 351 351 351 352 352 353 353 353 354 354 355 355 355 356 356 355 355 356 356 356
353 354 354 353 353 353 353 353 353 353 352 352 352 352 352 351 351 351 351 351 351 351 351 351 351 352 352 353 353 353 354 354 355 355 355 356 356 356 356 356 356 356
353 354 353 353 353 353 353 353 352 352 352 352 352 352 352 352 351 352 351 352 352 351 351 351 352 352 353 353 353 353 354 354 354 355 355 355 355 355 356 356 356 355
353 354 353 353 353 353 353 352 352 352 352 352 352 351 352 352 352 352 352 352 352 352 352 352 352 353 353 354 354 353 354 354 354 355 354 355 355 355 355 356 356 356
353 353 353 353 353 353 353 353 352 353 352 352 352 352 352 352 352 352 352 352 352 352 352 352 352 353 353 353 354 354 355 354 354 355 355 355 355 355 355 356 356 356
353 354 353 353 353 353 353 353 352 352 352 352 352 352 352 352 352 352 353 353 353 353 353 353 353 353 354 354 354 354 354 354 355 355 355 355 355 356 356 356 356 356
353 353 353 352 353 353 353 352 352 352 352 352 352 352 353 352 353 353 353 353 353 353 353 354 354 354 354 353 354 354 355 354 355 355 355 356 356 356 356 356 356 356
353 352 353 352 352 352 352 352 352 352 352 352 352 352 352 353 353 353 354 354 354 354 354 354 354 354 354 354 354 354 355 355 355 355 355 356 356 356 356 355 356 355
353 353 353 353 353 353 352 352 353 352 352 352 353 353 353 353 353 354 353 354 354 354 354 355 354 354 354 354 354 355 355 356 356 356 356 355 355 355 355 355 356 356
352 353 353 353 353 353 353 353 353 353 353 353 352 353 353 353 353 353 354 354 354 355 355 355 355 354 354 355 354 354 355 355 355 355 355 355 355 355 355 356 356 356
352 352 352 353 353 353 353 353 353 353 353 353 353 353 353 354 353 353 353 354 354 354 355 354 355 355 355 355 355 355 355 355 355 355 355 355 355 355 356 356 357 357
353 353 352 353 353 353 353 353 353 353 353 353 353 353 354 354 354 354 354 354 354 354 354 354 354 354 355 355 355 355 356 356 355 356 355 355 355 356 356 356 357 357
354 353 353 353 353 354 353 354 354 354 353 354 353 354 354 354 354 354 354 354 354 354 354 354 354 353 354 354 354 355 356 355 356 355 356 355 355 356 356 356 357 357
354 353 354 354 354 354 354 354 354 354 354 354 354 354 354 354 354 354 355 355 355 354 355 354 354 354 354 354 354 354 355 355 355 355 355 356 355 355 356 355 356 356
354 354 354 354 354 354 354 354 354 354 355 355 355 355 355 355 355 355 355 355 355 355 355 355 354 354 354 354 354 354 354 354 354 355 355 355 355 355 355 355 355 355
354 354 355 355 355 355 355 355 355 355 355 355 355 355 355 355 355 355 355 355 355 355 355 354 355 354 354 354 354 354 354 354 354 354 354 354 354 353 354 354 354 354
355 355 355 355 355 355 355 355 355 355 356 355 355 355 356 356 355 355 355 355 355 355 355 354 354 354 354 354 354 353 354 354 353 354 353 353 354 353 354 353 354 354

ECMWFNIL_925_thetae_081.txt.gz
Theta_e
353 353 353 353 353 353 352 351 351 352 352 352 353 352 352 352 352 353 352 352 351 351 351 351 351 351 352 352 349 347 348 348 351 356 357 356 355 351 350 350 349 350
354 354 353 354 354 352 352 351 351 351 351 351 352 352 351 351 352 352 352 352 351 351 351 350 351 351 351 353 351 348 346 344 348 355 356 356 355 353 352 351 351 352
354 354 354 354 354 353 353 353 351 351 351 351 351 351 351 350 352 352 352 353 351 351 351 351 351 351 352 353 352 351 347 343 346 353 356 356 357 355 354 353 353 353
355 355 354 354 354 354 353 354 353 352 352 351 351 352 351 351 351 351 351 352 352 351 351 351 351 351 351 352 352 353 350 346 345 350 354 356 357 357 356 356 355 355
355 355 354 354 355 355 354 353 353 352 352 352 351 351 351 351 351 351 351 351 352 352 351 351 350 351 351 351 352 354 353 351 350 348 351 355 356 356 357 357 357 357
356 355 354 354 354 354 354 353 353 353 353 352 351 351 351 351 351 351 351 351 352 352 352 352 351 350 351 351 352 354 356 357 355 350 350 353 355 356 356 356 357 357
356 355 354 354 355 354 355 354 353 352 352 352 352 351 351 351 351 351 351 351 352 352 352 352 352 351 351 351 352 355 358 359 358 355 352 353 355 356 356 355 356 356
356 356 355 355 355 355 355 355 354 352 352 352 352 351 351 351 351 351 351 351 351 352 351 351 351 351 351 352 351 353 357 358 359 358 357 356 355 355 355 356 355 355
357 356 356 356 356 355 355 355 354 353 352 352 352 353 352 351 351 351 351 351 351 351 350 350 351 350 351 352 351 352 354 357 358 357 357 358 357 355 355 356 356 355
357 357 357 356 356 355 356 355 354 354 354 352 352 353 353 351 351 351 351 351 351 351 350 350 350 350 350 351 351 351 353 354 356 356 357 357 357 357 357 356 356 356
357 357 357 356 356 356 355 355 355 355 354 354 353 354 354 353 352 352 352 351 351 350 350 350 349 350 350 351 351 352 352 353 355 356 355 356 357 359 358 357 355 356
357 357 357 357 356 356 356 355 355 355 355 355 354 354 355 354 353 353 352 352 351 351 350 350 350 351 350 350 352 353 352 354 356 357 356 356 356 357 359 358 356 356
357 357 356 357 356 356 356 356 355 355 355 355 355 354 355 355 355 354 353 352 352 351 351 350 350 351 351 350 352 353 353 354 356 358 358 357 356 357 358 358 357 356
357 357 356 356 356 356 356 356 356 355 355 355 355 355 355 355 355 355 354 354 353 351 352 352 351 352 352 352 352 353 354 355 356 358 359 359 358 358 358 359 358 358
357 357 356 356 357 356 355 356 355 355 355 355 355 355 355 355 355 355 355 355 353 352 352 353 353 352 352 352 352 352 354 356 356 357 358 359 359 359 359 359 359 358
356 356 357 357 356 356 356 356 355 355 356 355 355 355 355 355 355 356 356 356 355 354 354 354 354 353 352 351 352 353 354 357 357 357 357 358 359 359 359 359 359 359
356 356 356 356 356 356 356 356 356 356 356 356 355 355 355 356 356 356 356 356 356 356 355 355 354 353 351 351 351 351 353 356 358 358 358 358 359 359 359 359 359 360
357 357 357 357 356 356 355 355 356 356 356 356 356 356 356 356 356 356 356 356 356 356 356 356 355 353 352 351 351 351 351 354 357 359 359 359 359 359 359 359 359 360
357 357 356 356 356 356 355 355 356 356 356 356 356 356 356 356 356 356 356 357 356 357 357 356 356 355 352 351 352 351 351 353 355 358 358 359 359 359 360 359 360 360
356 357 357 356 356 355 356 356 356 356 356 356 356 356 356 356 356 356 357 357 357 357 357 357 357 355 354 352 352 352 352 353 354 356 357 358 359 359 359 360 360 359
357 356 357 357 356 355 357 356 356 357 356 356 356 356 356 356 356 357 357 357 357 357 358 358 357 356 354 353 352 352 353 353 354 355 356 357 358 359 359 359 359 360
357 357 357 358 357 357 357 357 357 357 356 356 356 356 357 357 356 356 357 357 357 357 357 357 357 356 354 353 353 353 353 354 354 354 356 357 358 358 359 359 359 360
356 357 357 358 358 358 358 357 357 357 357 356 357 356 357 357 357 357 357 357 357 357 357 357 357 356 355 353 353 353 354 354 354 354 355 356 357 358 359 359 359 358
357 357 357 357 358 358 358 357 357 358 357 357 357 357 357 357 358 357 357 357 357 357 358 358 358 357 356 354 353 353 353 354 354 354 355 356 356 357 358 359 358 357
356 357 357 357 358 357 357 358 357 357 357 358 357 357 358 358 358 358 358 358 358 358 357 356 358 358 356 355 354 353 353 353 354 355 356 356 357 357 357 358 357 355
357 357 357 357 358 358 357 358 358 357 358 358 357 357 357 358 358 358 359 359 358 358 358 357 357 357 357 356 355 354 354 353 354 355 356 356 357 357 358 358 357 355

ECMWFNIL_925_thetae_084.txt.gz
Theta_e
359 360 359 359 359 357 356 356 355 355 354 354 356 356 357 358 359 359 359 361 361 360 360 359 358 357 358 359 360 359 358 358 358 358 359 359 358 357 356 356 354 353
359 359 359 359 359 358 357 357 356 356 356 356 355 356 358 359 360 360 360 361 361 361 360 359 357 357 358 359 360 360 359 359 359 358 359 361 359 358 357 357 356 356
359 359 359 359 358 358 356 357 358 357 356 357 356 356 358 359 360 360 360 360 360 360 360 360 359 358 358 359 360 361 360 360 359 357 359 361 360 360 358 358 357 357
359 359 359 359 358 358 357 357 359 358 356 357 357 357 358 359 359 360 360 360 359 359 359 360 360 359 359 360 360 360 360 361 360 358 359 360 361 360 359 358 358 358
359 359 360 360 359 359 359 359 359 359 357 357 358 358 359 359 359 359 360 360 359 358 358 359 360 358 359 360 359 359 359 360 360 360 361 361 360 360 359 359 360 360
360 361 360 362 361 360 360 360 359 359 358 358 358 358 359 360 360 358 358 359 358 356 356 357 359 358 359 359 359 360 359 358 359 360 362 361 360 359 359 360 361 362
362 362 361 362 362 361 361 361 359 359 359 358 358 359 359 360 360 358 358 359 358 357 357 356 358 359 358 359 360 359 360 359 360 361 362 361 361 359 360 361 362 362
362 362 361 362 363 361 361 361 361 360 359 359 359 359 359 359 360 359 359 359 359 358 359 358 358 361 359 359 359 361 360 359 359 362 362 361 361 362 361 361 362 363
363 362 363 363 362 361 361 361 361 360 359 359 359 359 360 359 358 359 360 360 360 359 360 360 361 361 360 359 360 362 361 359 359 361 362 361 362 363 362 361 362 363
363 363 363 363 361 361 361 360 360 360 361 360 360 359 360 359 359 359 360 361 361 361 361 362 362 362 361 361 361 362 363 361 359 360 362 362 362 362 362 362 362 362
364 363 363 362 361 360 360 360 358 360 361 361 360 358 359 360 360 359 361 362 362 361 361 362 362 363 362 361 360 362 363 362 360 360 361 363 363 362 363 362 362 362
364 363 362 362 361 359 359 359 358 359 360 361 361 359 358 360 361 360 361 362 363 362 362 363 362 363 362 362 359 360 362 362 360 360 362 362 362 361 362 362 362 362
364 364 362 361 361 360 359 359 359 358 359 360 360 359 357 358 360 361 361 361 362 362 362 363 363 363 362 362 361 359 361 362 360 359 361 362 362 361 361 360 361 362
364 364 363 361 362 361 361 360 360 358 358 360 360 359 358 357 358 360 362 361 362 362 362 362 363 363 362 362 362 360 359 361 361 359 358 360 362 361 360 359 359 360
364 365 363 362 362 362 362 361 360 360 360 360 361 360 359 357 358 359 361 362 362 362 362 362 362 363 363 362 362 361 359 359 361 361 360 359 360 361 360 359 358 357
365 365 364 364 363 363 363 362 361 361 360 361 362 361 359 359 359 359 359 360 362 363 362 362 361 362 362 361 360 361 361 360 360 361 361 360 360 360 360 359 358 356
366 365 365 364 364 363 364 363 362 361 362 361 362 362 361 360 361 360 359 359 361 362 363 362 362 362 361 359 356 356 358 360 360 360 361 362 360 360 360 358 357 356
366 365 366 365 365 364 364 364 363 362 363 362 363 362 362 362 362 361 361 360 360 362 362 362 362 361 360 358 355 353 352 356 360 361 361 362 361 360 359 358 357 357
366 366 367 366 365 365 365 365 364 363 363 363 363 363 363 363 362 362 362 361 361 361 361 361 362 362 360 357 355 353 350 352 356 359 360 361 361 360 359 360 360 359
366 366 367 366 366 365 365 365 364 364 364 363 363 363 364 364 363 363 363 362 362 362 362 361 362 362 361 358 355 353 351 350 353 356 358 359 361 362 361 360 362 362
367 367 366 366 366 365 366 365 365 364 364 363 362 363 364 364 364 363 364 364 363 363 362 362 361 361 360 359 357 354 352 351 353 355 357 358 360 362 362 362 362 363
367 366 366 367 366 365 365 365 365 365 365 363 362 363 364 364 364 363 364 363 363 363 362 361 362 360 360 359 358 356 354 353 353 356 357 358 360 361 362 362 363 364
365 365 366 365 365 365 365 364 365 365 365 364 363 362 362 363 363 363 363 363 363 363 363 362 362 361 360 358 357 357 355 354 354 357 358 359 360 361 362 362 362 363
364 365 365 365 366 366 365 365 365 365 365 364 363 362 362 362 364 364 363 363 363 363 363 363 363 362 361 359 358 356 356 355 356 358 359 360 360 361 362 362 362 361
365 365 365 365 365 365 364 365 365 365 365 364 363 362 361 361 363 363 363 364 362 362 362 362 362 363 361 360 359 357 356 356 357 359 359 359 361 361 362 363 363 363
364 365 365 365 365 365 364 365 364 364 365 364 363 362 361 362 362 363 363 364 363 362 362 362 362 362 361 360 359 358 356 356 358 359 359 359 360 361 362 363 364 364

ECMWFNIL_925_thetae_087.txt.gz
Theta_e
361 361 360 359 357 355 355 358 358 356 351 348 351 355 357 357 356 356 357 359 361 360 359 360 361 360 360 360 360 359 357 357 358 359 360 360 359 358 357 356 354 353
362 362 361 360 359 357 357 358 358 357 353 349 350 353 356 357 357 357 357 359 361 360 360 360 361 361 360 359 360 361 358 359 358 358 359 361 361 360 358 357 357 356
363 363 363 362 360 359 358 357 358 357 354 352 350 352 355 356 358 358 357 359 360 360 359 360 360 360 361 360 361 361 360 359 359 357 358 360 361 361 359 358 357 358
362 362 363 362 360 361 359 357 357 357 354 354 352 352 354 355 357 359 359 359 360 359 359 359 359 359 360 361 360 361 359 360 360 358 358 360 361 360 359 358 358 357
362 362 363 363 360 360 359 357 357 357 354 354 355 354 354 355 356 359 360 361 361 359 359 359 360 360 360 360 361 360 359 358 360 360 360 360 361 361 359 358 360 359
363 363 364 364 361 360 360 358 356 356 355 354 355 356 355 356 358 357 358 360 360 359 357 358 359 359 359 360 361 361 360 358 358 360 361 360 360 360 358 358 360 361
364 364 363 364 363 360 360 360 357 356 357 356 356 357 356 358 359 358 357 358 357 356 356 355 357 358 358 359 360 361 361 359 357 360 362 362 361 359 359 358 360 362
364 365 364 364 364 362 361 361 360 358 358 358 357 357 358 357 359 359 357 356 356 356 355 355 356 358 359 358 360 362 362 360 358 360 362 362 362 362 361 360 361 363
364 365 364 364 364 363 362 361 361 361 359 359 358 357 358 359 359 360 358 357 358 356 356 356 356 358 359 359 359 361 362 360 358 359 361 362 362 363 362 361 361 362
365 364 364 363 363 363 361 360 360 361 360 360 359 357 358 360 360 360 359 360 359 358 358 358 358 358 360 360 359 360 362 362 359 359 360 361 362 362 361 361 361 362
366 364 363 364 362 361 361 359 357 360 361 362 360 356 357 360 360 361 361 362 361 361 361 361 360 360 360 360 359 360 361 362 361 359 360 361 362 362 361 360 361 361
366 365 364 363 361 360 360 359 356 358 360 361 360 357 356 359 361 360 361 363 364 362 362 362 363 363 362 361 359 359 360 361 360 360 359 360 361 362 362 361 360 360
366 365 363 362 361 360 359 358 357 356 357 360 361 359 356 357 359 360 360 363 365 364 363 363 365 364 364 364 361 358 360 362 360 359 359 360 360 361 361 359 359 360
367 365 362 361 362 361 359 358 357 355 355 358 360 359 357 355 357 360 360 362 365 365 363 364 365 366 365 366 364 360 359 360 362 359 358 358 360 361 360 357 356 356
367 366 363 363 363 361 359 358 358 356 354 357 359 360 358 356 355 357 359 361 363 365 364 363 365 367 366 366 366 364 360 359 362 362 359 358 359 359 359 357 354 352
369 367 365 364 363 363 362 359 359 358 356 356 360 360 359 356 355 355 358 360 362 364 365 363 363 365 366 366 366 365 363 360 360 363 362 359 357 359 358 356 354 351
370 369 367 365 364 364 363 361 359 359 358 357 360 361 360 358 356 355 356 359 361 363 364 364 363 364 365 365 363 363 364 362 359 361 363 361 359 358 357 355 354 352
371 370 369 367 365 365 365 363 361 360 360 360 360 363 362 360 358 358 357 358 360 362 363 364 364 363 364 364 363 361 361 362 360 359 361 362 361 358 357 357 356 354
371 371 370 368 367 367 366 366 363 362 361 361 362 363 364 362 361 359 359 359 359 360 362 363 363 363 362 363 363 360 357 358 360 359 359 360 360 359 358 357 357 355
372 372 371 370 369 368 368 367 365 364 364 363 363 364 365 364 362 361 362 361 360 361 361 363 363 363 363 362 362 361 358 355 356 358 358 358 359 359 358 358 357 358
372 372 371 372 370 370 370 369 366 365 365 363 363 364 366 367 365 363 363 363 362 361 361 363 364 363 363 363 361 361 359 357 355 356 356 357 358 359 360 360 360 360
372 372 372 373 371 370 370 370 368 368 366 365 363 364 366 367 366 365 365 365 364 362 361 362 364 363 363 363 362 361 359 357 357 357 357 357 357 359 361 362 362 362
372 372 372 372 371 371 371 371 370 369 368 367 365 363 363 366 367 365 365 365 365 364 363 362 362 363 362 362 362 362 360 358 358 359 360 359 358 359 361 362 363 363
371 372 372 371 373 372 371 371 370 369 369 368 366 363 361 363 365 366 365 365 366 365 364 363 362 361 362 361 362 362 360 359 359 360 361 361 361 361 362 362 363 363
370 371 372 372 372 371 370 371 370 370 369 369 366 364 361 360 362 365 365 365 365 364 364 364 362 361 361 362 361 361 360 359 360 361 362 362 362 362 362 363 363 364
371 372 372 371 372 371 370 370 370 369 370 368 366 365 362 360 361 363 364 365 363 362 363 364 364 363 361 361 361 361 360 360 361 362 362 362 364 363 363 364 364 363

ECMWFNIL_925_thetae_090.txt.gz
Theta_e
351 351 350 349 349 349 354 355 354 353 352 353 355 357 357 356 355 356 358 359 360 361 360 358 358 358 359 359 358 357 358 359 358 359 359 360 359 358 356 354 354 352
352 352 351 351 350 350 352 356 356 356 355 353 351 355 357 356 355 355 356 358 360 361 361 360 360 360 360 361 360 358 359 359 358 358 359 360 361 359 357 356 354 352
354 355 353 352 353 352 351 354 357 358 356 353 350 351 355 357 356 355 356 358 360 362 362 361 362 361 361 361 360 360 360 359 358 358 359 360 361 361 359 356 356 356
356 358 355 354 355 353 352 353 356 358 357 355 351 349 353 356 356 357 356 357 360 362 361 361 362 362 362 361 361 362 362 360 360 359 358 359 360 362 361 359 357 357
358 358 356 355 355 354 353 352 355 358 357 356 353 349 351 355 357 358 358 358 359 361 360 361 361 361 362 361 361 362 361 361 360 359 359 359 361 362 361 360 359 358
359 358 356 357 356 355 354 354 354 357 357 356 354 350 350 354 357 357 359 359 359 360 360 360 361 361 360 361 361 362 361 360 360 359 359 359 361 361 360 359 360 360
360 359 359 359 358 357 357 356 355 356 357 355 354 352 351 353 356 357 360 360 360 360 360 360 361 360 360 361 360 362 362 360 359 359 359 360 361 361 360 359 359 360
362 361 360 361 360 359 359 360 357 356 356 355 354 354 353 353 355 357 359 360 360 360 359 359 360 361 360 360 361 361 362 361 359 359 359 360 361 361 359 359 360 360
363 363 362 362 362 360 360 360 359 357 357 355 354 355 355 354 356 357 358 359 360 360 358 357 358 360 359 360 360 361 362 362 360 359 360 361 363 363 362 360 360 361
363 363 363 362 363 361 360 361 359 357 356 355 354 355 357 356 356 358 358 358 359 359 358 356 357 358 358 359 360 360 361 362 361 359 359 362 363 364 363 362 361 361
363 364 364 363 362 361 360 359 360 358 355 356 355 355 357 357 357 358 359 358 358 358 357 356 356 357 357 359 359 360 361 363 362 360 359 360 362 363 363 363 362 361
364 364 364 363 361 361 360 359 358 358 357 356 357 355 355 358 358 359 360 359 358 357 357 356 355 355 356 359 360 360 361 362 362 361 360 360 360 362 362 362 362 362
364 363 363 362 361 361 361 359 357 358 358 358 358 356 355 358 359 359 360 360 359 358 359 357 356 356 356 358 359 360 360 360 361 362 361 360 360 361 362 362 362 361
364 363 364 363 362 361 361 360 357 358 359 359 359 358 356 357 359 359 360 361 361 359 359 359 358 357 358 358 358 360 360 359 360 361 362 361 360 360 360 361 362 361
365 363 363 364 362 361 361 360 358 357 359 360 360 359 356 354 357 359 360 360 362 361 360 360 360 360 360 360 358 359 359 359 359 360 360 359 359 360 359 359 360 360
365 365 364 364 363 362 361 360 359 358 357 360 360 360 357 355 355 358 361 360 362 363 363 362 362 362 361 361 360 359 358 359 358 359 359 359 358 359 359 359 359 358
367 366 365 364 364 363 361 361 360 358 357 358 360 360 358 357 354 357 360 361 361 364 365 364 363 363 364 362 361 361 359 358 358 359 359 359 358 359 358 358 358 358
367 367 367 365 364 364 362 360 360 359 357 357 359 360 359 358 356 356 358 360 361 362 365 366 364 363 364 364 362 362 360 359 358 359 360 361 360 359 358 358 358 357
368 369 368 366 364 364 362 362 361 360 359 357 358 359 360 359 358 356 357 359 360 361 364 366 364 363 364 364 363 362 361 361 360 359 360 361 362 360 358 357 357 356
369 369 369 366 365 364 363 363 361 361 360 358 358 359 360 362 360 358 357 357 359 360 362 363 365 363 363 364 363 363 361 360 362 361 360 360 361 362 361 359 357 357
370 371 370 368 366 365 365 363 361 362 361 360 358 358 361 363 362 359 358 357 357 360 361 362 364 364 363 362 362 363 362 361 361 361 361 360 360 361 361 361 359 357
371 371 371 370 367 366 366 365 363 362 362 360 359 358 360 363 363 362 360 358 358 358 359 361 362 363 363 363 363 363 363 362 361 360 360 359 358 359 359 360 360 358
372 372 372 371 369 367 367 366 365 363 362 361 360 359 360 363 363 363 362 361 360 359 359 361 362 362 363 363 364 363 363 362 362 361 360 358 357 357 358 359 359 359
372 373 373 372 370 368 367 367 366 364 363 362 361 360 361 363 365 364 363 362 361 361 361 360 361 361 362 362 363 363 362 363 362 361 360 359 357 356 357 359 360 359
373 374 374 373 372 369 368 368 367 365 364 362 362 361 361 363 366 366 365 364 362 361 362 362 362 361 361 362 363 363 362 362 361 361 362 361 359 358 357 357 359 360
373 374 374 373 373 371 370 370 368 366 364 363 361 361 361 363 365 366 366 366 364 363 364 363 363 362 361 362 362 362 362 362 361 362 362 362 362 361 359 358 357 359

ECMWFNIL_925_thetae_093.txt.gz
Theta_e
350 349 348 349 351 348 345 343 338 343 350 353 353 351 355 359 359 359 360 360 358 357 356 355 355 354 354 355 356 356 357 357 357 355 355 356 353 350 351 351 351 353
349 349 348 349 349 349 350 348 343 341 346 351 353 351 355 358 358 358 359 359 358 356 356 356 356 356 355 356 356 357 357 357 359 358 357 357 354 354 356 353 352 353
351 350 349 347 347 348 350 350 348 344 342 347 352 352 354 357 355 356 358 359 358 357 356 356 357 357 357 358 357 357 359 358 358 359 359 357 355 357 359 356 353 352
351 349 349 347 345 345 349 351 351 348 344 345 350 352 353 354 354 355 357 358 357 357 357 357 358 357 357 358 358 356 358 358 356 358 359 358 356 357 358 359 355 352
351 350 348 347 345 344 348 352 352 351 349 347 349 351 352 352 353 355 356 356 356 358 358 359 359 359 357 359 360 357 356 356 355 356 360 359 358 357 356 359 359 356
351 350 349 347 347 345 346 349 351 353 352 350 350 351 351 352 353 355 356 356 357 358 359 360 360 360 358 358 360 359 358 358 356 354 358 360 359 358 357 359 359 358
353 352 350 349 348 347 346 347 350 353 354 353 353 351 350 353 354 354 355 356 357 359 360 360 360 360 360 359 360 360 359 360 359 355 356 358 360 360 358 359 359 358
354 353 351 350 349 348 348 347 348 352 354 355 355 353 350 353 355 355 355 355 357 359 360 360 360 360 360 360 359 360 360 360 360 358 357 357 357 359 360 359 359 359
355 354 353 352 350 350 349 349 348 350 353 354 356 354 351 351 354 356 355 356 356 358 360 360 359 359 360 361 359 360 359 358 360 361 359 357 355 356 358 359 360 360
356 355 354 354 352 352 351 351 349 350 352 353 355 355 352 349 352 356 356 357 357 357 359 359 359 359 359 360 360 359 359 357 357 360 361 360 357 355 356 357 358 360
357 356 355 355 354 353 353 352 351 351 352 354 354 355 354 350 351 356 357 357 357 357 359 359 359 359 359 359 360 359 359 358 356 357 359 360 359 358 358 357 357 357
359 357 357 356 355 354 354 354 353 353 353 354 354 354 354 351 351 355 356 357 357 358 358 359 359 360 359 359 359 360 359 358 356 355 358 360 358 359 359 358 357 356
361 359 358 357 356 355 355 355 355 355 354 355 355 354 355 352 352 353 355 356 357 357 359 360 359 359 359 358 359 359 359 359 358 357 358 360 359 358 357 358 359 359
362 361 358 358 357 356 356 356 356 357 356 355 356 355 354 354 354 354 355 355 356 357 359 360 359 359 358 358 358 358 359 359 358 358 358 359 360 359 358 358 358 360
362 361 360 359 358 357 357 358 356 357 358 356 356 355 354 354 355 354 355 356 356 357 358 359 359 358 358 359 357 358 358 359 358 359 358 359 359 359 359 359 359 359
362 362 361 360 360 359 358 358 358 357 358 357 356 354 354 354 356 356 356 357 357 358 358 358 359 357 357 356 357 357 357 358 358 359 359 359 359 359 359 359 359 359
363 362 362 361 360 360 359 359 358 357 358 357 355 354 354 354 356 356 357 357 357 359 359 358 358 357 357 356 355 355 356 358 358 358 358 359 360 360 360 359 359 359
364 363 362 361 360 361 359 359 359 357 357 357 356 355 354 354 355 356 357 358 358 359 359 359 358 357 357 356 355 354 354 356 358 359 359 358 359 360 360 359 359 358
364 363 362 362 361 361 360 360 359 358 357 358 357 357 356 355 355 357 358 358 358 359 359 359 359 358 358 357 357 356 354 355 357 358 359 359 358 358 359 358 359 358
365 364 364 363 362 362 361 360 360 359 358 358 359 359 358 357 356 355 358 358 358 359 360 361 360 359 358 359 358 357 356 356 356 357 358 359 359 358 358 357 358 358
366 366 364 363 363 362 362 361 360 361 360 358 360 360 359 359 357 356 357 359 359 359 359 361 361 360 359 360 360 360 359 358 359 358 358 357 359 359 359 358 357 357
366 366 365 364 364 363 363 362 361 360 361 359 359 359 360 360 359 357 357 358 360 360 359 360 361 361 361 361 360 361 361 360 360 360 359 358 358 359 359 359 359 358
367 366 366 365 365 364 364 363 362 361 360 360 359 359 360 360 360 359 358 357 358 359 360 360 361 361 361 361 361 362 362 362 361 361 361 360 360 359 359 360 360 359
367 367 367 366 365 365 364 363 363 361 360 360 360 359 360 360 360 360 358 357 358 359 360 360 360 361 361 361 361 362 361 363 363 363 362 362 361 359 360 359 360 360
368 367 367 367 367 365 364 364 363 362 361 360 360 359 358 359 360 360 360 359 358 358 359 360 361 361 361 362 362 362 362 362 362 363 363 362 361 360 359 359 358 359
369 368 367 367 367 366 365 364 363 363 361 361 360 360 359 359 360 360 360 360 359 358 357 357 359 360 361 362 362 363 362 362 362 363 362 362 362 361 359 359 357 356

ECMWFNIL_925_thetae_096.txt.gz
Theta_e
347 347 346 345 343 339 342 345 345 347 348 350 351 352 353 355 356 358 357 358 359 356 353 354 355 356 354 354 354 354 354 355 350 344 346 347 347 349 348 345 344 343
347 347 346 346 344 340 341 344 343 343 346 347 349 350 352 354 356 357 357 359 360 357 354 353 354 355 354 354 355 355 355 356 354 350 348 347 347 351 350 346 345 346
347 347 346 346 345 342 340 342 342 341 344 348 348 350 351 353 354 356 357 359 360 359 356 354 355 355 354 353 354 354 355 356 355 354 352 348 347 350 349 347 348 349
348 348 346 345 347 345 341 341 341 341 344 347 349 349 350 351 352 355 358 359 360 359 358 356 354 354 353 353 354 355 355 356 356 356 356 354 351 349 349 351 352 352
349 349 348 346 346 347 345 341 340 339 341 346 349 349 350 350 351 354 357 359 359 359 358 356 354 355 355 354 354 355 355 356 356 357 357 358 356 352 351 354 356 356
351 350 349 348 347 347 347 343 340 338 337 340 346 350 350 350 350 351 355 357 358 359 358 357 355 355 355 355 355 355 355 356 357 358 358 358 358 355 354 355 357 358
352 351 350 350 349 347 348 346 343 342 340 339 343 347 350 350 348 349 352 355 356 358 358 356 356 355 355 356 356 356 355 355 357 358 357 356 358 358 356 356 356 357
352 352 350 350 349 348 348 349 348 346 345 343 342 343 346 347 348 348 350 352 354 357 358 357 356 355 356 356 357 357 355 354 356 357 356 355 357 359 359 357 356 357
352 352 352 351 350 349 348 348 349 349 348 347 344 343 344 345 346 347 350 351 353 356 358 357 356 356 357 358 357 356 356 355 354 354 353 354 356 358 359 358 357 356
353 352 352 352 351 349 348 347 348 349 349 349 347 345 345 344 345 347 348 350 353 356 357 356 356 356 358 359 358 356 355 356 356 352 350 352 354 356 358 359 359 358
354 353 352 352 351 350 349 347 346 347 348 350 350 348 347 345 345 348 350 351 353 354 356 356 356 357 358 359 359 357 355 355 356 353 352 353 354 354 356 358 358 357
354 353 352 352 351 350 349 348 347 346 347 349 351 351 349 348 347 349 352 352 353 354 355 356 356 357 358 359 359 358 357 356 356 353 352 354 356 356 357 356 356 355
355 354 353 352 352 351 349 348 347 347 346 347 349 351 351 351 349 350 351 353 353 353 354 355 356 357 358 359 359 359 359 359 358 356 354 355 357 358 358 357 356 355
356 355 354 353 353 352 351 350 349 348 347 346 348 350 351 352 351 350 351 352 354 355 354 355 355 357 358 359 359 359 360 360 359 358 357 355 356 357 357 357 356 355
358 357 356 354 354 352 352 351 350 349 349 347 347 349 350 351 351 351 350 351 353 354 356 356 356 357 357 358 358 358 358 359 359 359 358 357 356 356 357 357 356 355
360 359 358 356 355 354 354 352 351 350 350 349 348 348 349 350 351 351 351 351 353 354 356 356 356 356 356 356 357 358 359 359 358 358 359 358 357 356 356 357 357 355
361 360 359 358 356 355 355 353 352 352 351 351 351 350 350 351 351 352 351 351 352 353 355 357 357 356 356 356 356 357 358 359 359 359 359 358 358 357 356 357 358 358
362 361 361 360 358 357 356 355 354 353 352 352 352 352 351 352 352 352 352 352 351 352 353 356 356 356 356 356 356 357 358 358 358 358 358 358 358 357 356 356 357 358
363 362 361 360 360 359 357 357 355 354 354 353 353 353 353 352 353 352 352 353 352 353 353 354 354 356 356 356 356 357 357 358 358 357 358 358 358 357 357 356 356 357
364 363 363 361 361 360 359 358 356 355 355 354 354 355 354 354 353 352 353 353 353 353 354 353 354 354 355 355 356 357 358 358 358 358 357 357 357 357 357 357 357 356
365 363 363 362 361 361 360 359 357 357 356 355 355 355 355 354 354 353 353 353 354 354 354 354 354 354 354 355 356 357 357 357 357 357 357 357 357 357 357 357 357 357
365 364 363 362 362 361 360 359 359 358 357 356 356 355 355 355 354 354 354 353 354 355 355 354 355 354 355 356 355 356 357 357 357 356 356 356 356 357 357 357 357 357
365 365 364 363 362 361 361 360 359 359 358 357 357 356 356 356 355 354 354 353 353 354 354 355 356 355 355 355 355 356 356 356 357 356 355 356 355 355 356 357 357 357
365 365 365 363 363 362 361 361 360 359 359 358 357 357 356 356 356 356 354 353 353 354 355 355 355 356 356 356 355 356 357 357 357 357 356 355 355 355 355 355 356 357
366 365 365 364 364 363 362 361 360 359 359 359 358 358 357 356 357 357 355 355 354 354 355 356 356 356 356 356 357 357 357 357 357 357 356 357 357 357 357 357 356 356
366 366 366 365 364 364 363 362 361 360 360 359 359 358 358 357 357 357 357 357 355 355 355 355 356 357 357 358 357 357 358 358 358 357 358 358 358 358 358 358 358 358

ECMWFNIL_925_thetae_099.txt.gz
Theta_e
347 347 346 346 347 347 347 347 347 347 347 349 350 351 351 350 352 355 356 356 356 356 356 355 354 354 354 354 354 354 353 352 351 349 347 345 344 346 345 345 345 345
347 347 346 347 346 345 345 345 345 346 345 346 348 350 350 350 351 354 355 356 356 356 357 356 354 353 354 354 354 354 354 353 352 352 349 345 344 346 345 345 345 345
347 347 347 347 346 346 345 344 344 345 344 345 347 348 349 350 351 353 354 356 357 356 357 357 355 352 353 353 354 354 354 354 354 354 351 346 344 346 345 345 345 345
346 346 346 346 346 347 346 345 343 343 343 345 345 346 347 348 350 351 353 355 356 356 356 357 356 353 352 353 354 354 354 354 354 355 354 350 346 345 344 345 345 345
346 345 345 345 345 346 346 345 343 342 342 344 345 345 345 347 348 349 351 353 355 356 356 358 357 354 352 353 354 354 354 354 354 355 355 354 351 347 345 345 344 345
348 346 344 344 344 345 345 345 344 342 341 343 344 344 343 345 346 348 350 351 354 355 356 358 358 355 353 354 354 353 353 353 354 355 355 355 354 353 351 349 347 345
349 348 346 345 345 345 345 344 344 342 340 341 343 342 342 344 346 347 349 350 352 354 355 357 359 357 355 354 354 354 353 353 353 355 355 355 355 356 356 355 351 348
349 349 348 347 346 346 346 345 345 344 341 341 342 342 341 344 346 347 348 349 350 352 354 356 358 358 357 355 354 354 354 353 354 354 355 356 356 356 356 356 355 352
350 349 348 348 347 346 345 345 345 345 343 342 341 341 341 343 345 347 348 349 349 351 353 354 356 357 358 357 355 354 354 354 354 355 355 355 356 356 355 356 357 355
350 350 349 349 347 347 345 345 345 345 346 344 342 341 340 340 343 347 348 349 350 351 351 353 355 355 356 357 356 354 354 354 355 355 355 355 355 356 356 355 356 357
351 350 350 350 348 348 346 345 345 345 346 347 345 343 341 339 341 344 348 350 350 349 348 350 352 353 355 356 356 355 355 354 355 355 356 355 354 354 356 354 354 356
351 351 351 351 349 349 348 347 346 345 345 346 346 345 344 341 341 343 346 348 348 347 345 345 348 352 354 355 356 356 355 355 355 356 356 356 354 353 354 353 352 354
352 352 351 351 350 350 349 348 347 346 345 346 346 347 346 345 344 343 344 346 346 345 344 343 346 349 352 354 356 357 356 355 356 356 356 357 356 355 354 352 349 351
353 352 352 351 351 351 350 349 348 347 346 346 346 347 348 347 347 346 345 345 345 345 344 344 346 349 351 353 355 356 356 356 356 356 356 356 356 356 356 354 351 351
353 353 353 352 352 351 351 350 349 348 347 346 346 346 347 347 348 348 347 347 346 346 346 346 348 350 351 352 354 355 356 356 356 356 356 356 356 356 357 356 355 354
353 353 353 353 352 352 351 351 350 349 348 347 346 346 346 346 347 348 349 348 348 347 347 348 349 350 351 352 353 354 355 356 357 357 356 357 357 356 357 356 355 355
354 354 354 353 353 352 352 352 351 350 349 348 347 346 346 345 346 347 348 349 348 348 348 349 349 350 351 352 352 353 354 355 356 357 357 357 357 357 357 357 356 355
356 355 355 355 354 353 353 352 352 351 350 349 348 347 347 346 346 346 347 348 349 349 349 349 349 349 350 351 352 353 354 355 356 357 357 357 357 357 357 356 356 356
357 357 357 356 355 355 354 353 352 352 351 350 349 349 348 347 347 346 346 347 348 349 349 349 349 349 350 351 352 353 354 355 356 356 356 357 357 357 357 356 356 356
358 358 358 357 357 356 355 355 354 353 352 352 351 350 349 348 348 347 347 348 348 348 349 349 349 349 349 350 351 352 353 354 355 356 356 356 356 356 357 357 357 357
360 359 359 358 358 357 357 356 355 354 353 353 352 352 351 350 349 349 348 348 348 348 349 349 349 349 350 350 351 351 353 354 355 355 356 356 356 356 357 357 357 357
360 360 360 360 359 359 358 357 356 356 355 354 354 353 352 351 351 350 350 349 349 349 349 349 349 349 349 350 350 351 352 354 355 356 356 356 356 356 356 357 357 357
362 361 361 361 360 360 359 359 358 357 357 355 355 354 353 353 352 352 351 351 351 350 350 350 350 350 350 351 350 351 352 353 355 355 355 356 355 356 356 356 356 356
363 363 362 362 361 361 360 360 359 359 358 357 356 356 355 354 353 353 352 352 352 351 351 351 351 351 351 351 351 351 352 353 354 354 355 355 355 356 356 356 356 356
361 363 363 363 363 362 362 361 361 360 360 359 357 357 356 355 354 354 353 353 353 352 352 352 352 351 351 352 352 352 353 353 353 353 354 354 354 355 355 355 356 356
359 361 363 364 363 363 363 362 362 361 360 359 358 357 357 356 355 355 354 354 353 353 353 352 352 352 352 352 352 353 353 353 353 353 353 353 354 354 354 355 355 355

ECMWFNIL_925_thetae_102.txt.gz
Theta_e
349 348 347 347 347 346 347 348 349 349 349 349 349 349 350 350 351 352 353 354 355 355 355 355 355 355 355 354 354 354 354 354 353 352 350 348 347 345 345 345 345 345
348 347 347 347 347 346 346 347 348 349 349 349 349 347 348 349 350 350 351 353 355 355 355 356 355 355 354 354 355 354 354 354 353 352 351 349 348 346 345 344 345 345
348 347 347 346 346 346 346 346 347 349 349 348 348 347 346 347 349 350 349 350 353 355 355 356 356 356 355 354 354 355 354 354 354 353 352 351 350 347 345 345 345 345
347 347 346 346 346 346 345 346 347 347 348 348 348 347 346 346 347 349 350 349 351 353 354 355 355 356 356 355 354 354 354 354 354 354 353 353 352 348 345 345 346 346
347 346 346 346 346 346 345 345 345 346 347 347 347 346 346 345 345 347 349 350 350 351 353 355 356 356 356 356 355 353 354 354 353 354 354 354 354 352 348 346 345 345
347 346 346 346 345 345 345 344 344 345 345 344 344 344 344 344 344 345 347 349 349 350 351 353 355 355 356 357 356 354 353 353 353 354 354 353 354 354 352 350 347 345
347 346 346 346 346 345 345 343 342 343 343 344 343 343 342 343 343 343 345 346 347 349 350 351 353 355 356 356 357 355 352 353 353 353 353 353 354 355 354 353 352 351
347 346 346 346 346 345 345 343 342 340 340 343 344 344 342 342 342 343 344 344 345 347 348 349 351 352 355 356 357 357 353 353 353 353 353 353 353 354 354 355 355 355
347 347 346 346 346 345 345 344 343 340 339 340 343 344 343 341 341 342 344 343 343 345 347 348 349 350 352 354 356 357 356 354 353 353 353 353 353 354 354 354 355 356
348 348 347 347 346 345 345 344 343 341 340 338 340 343 343 342 341 341 343 343 342 344 346 347 349 349 350 351 352 355 357 356 355 353 353 353 353 353 354 354 355 355
348 348 348 348 347 346 345 344 344 342 341 338 338 341 343 342 341 341 342 342 342 343 344 346 347 348 348 349 349 351 353 355 356 355 354 353 353 354 354 354 355 354
349 348 348 348 347 347 347 345 345 344 342 341 339 340 342 342 342 341 341 342 341 342 342 343 345 346 347 348 348 349 349 351 354 355 355 354 353 353 353 353 354 354
349 348 348 349 348 348 347 346 346 345 344 343 342 342 342 343 343 342 341 341 341 341 341 341 343 344 345 346 347 349 349 349 351 353 355 355 354 353 353 352 352 352
349 349 348 349 348 348 348 347 347 346 345 344 343 343 343 343 344 344 343 342 341 341 340 340 342 344 344 345 346 346 348 349 350 351 353 354 355 354 353 353 351 350
349 350 349 349 349 349 348 348 348 347 346 345 344 344 343 343 344 344 344 344 343 342 341 341 342 342 342 343 343 344 345 347 349 351 352 353 355 355 354 354 353 351
350 350 350 350 350 349 349 349 349 348 347 347 346 345 344 344 344 345 345 344 343 343 342 342 342 342 341 341 342 342 342 344 347 349 352 353 355 355 355 355 354 353
350 350 350 351 350 350 350 350 350 349 348 348 347 346 345 345 345 345 345 345 345 344 344 344 344 343 342 342 342 343 343 344 345 348 350 352 354 354 355 355 355 355
350 351 351 351 351 351 351 351 350 350 349 349 348 347 347 346 345 346 346 345 346 346 346 346 345 344 344 343 343 343 343 344 345 347 350 352 353 353 354 354 355 355
350 350 351 351 351 351 351 351 351 351 350 350 349 349 348 347 346 346 345 346 346 347 346 346 346 345 345 345 344 344 344 344 346 347 349 351 352 353 353 353 354 355
350 351 351 351 351 352 351 352 351 351 351 351 350 350 349 348 347 346 346 346 346 346 346 346 346 346 345 345 345 345 344 345 347 348 350 351 351 352 353 353 353 354
351 351 351 352 352 352 352 352 352 352 352 351 351 350 350 349 348 347 347 346 346 346 346 346 346 345 346 346 346 346 346 346 348 349 350 351 352 352 353 353 353 354
353 353 353 353 353 353 353 353 353 352 352 352 351 351 351 350 349 348 348 347 347 346 346 346 346 346 345 346 346 346 347 347 349 350 350 351 352 352 353 353 353 354
355 355 355 355 354 354 354 354 354 353 353 353 352 352 351 351 350 350 349 348 348 347 347 347 347 346 346 346 346 346 347 348 349 350 351 351 352 352 353 353 354 354
358 357 356 356 356 356 356 355 355 355 354 354 353 353 353 352 352 351 351 350 349 348 348 348 347 347 347 346 346 346 347 348 349 350 351 351 351 352 352 353 353 354
358 359 359 358 358 358 357 357 357 356 356 356 355 354 354 353 353 352 352 351 351 350 350 349 349 349 348 348 347 347 347 348 348 349 350 351 351 352 352 353 353 353
356 358 359 360 360 359 359 359 358 358 357 357 356 356 355 355 354 354 353 353 352 352 351 351 350 350 350 349 348 348 348 348 348 349 349 350 351 351 352 352 353 353

ECMWFNIL_925_thetae_105.txt.gz
Theta_e
346 347 347 347 347 347 347 347 347 347 348 349 350 350 349 350 350 351 352 351 351 353 354 354 354 355 355 355 355 354 354 354 355 355 353 352 351 350 348 346 345 345
347 347 347 348 348 348 347 347 347 347 347 348 349 349 348 349 349 350 351 352 352 353 354 354 355 355 355 355 355 354 354 353 355 355 354 354 352 351 350 349 347 346
347 348 348 348 348 348 347 347 347 347 347 347 348 348 348 348 349 349 350 351 351 352 353 354 354 355 355 355 354 354 355 354 355 356 354 353 352 352 352 352 350 347
347 347 348 348 348 347 347 347 347 347 347 346 347 347 348 348 348 348 349 350 351 351 352 353 355 355 355 356 355 355 355 354 355 355 354 354 353 353 354 353 352 351
347 347 347 347 347 346 346 346 346 347 346 346 346 346 347 348 348 348 347 348 349 350 351 351 353 355 355 355 355 355 356 355 355 354 354 354 353 354 355 353 352 353
347 347 347 347 347 346 346 345 345 345 345 345 346 346 346 347 348 348 347 346 346 348 351 351 351 353 355 355 356 356 356 356 355 353 353 354 354 355 356 354 353 354
346 347 346 347 347 347 346 345 344 343 343 343 344 344 345 346 348 348 347 346 345 346 349 351 350 350 353 354 355 356 356 357 355 352 352 353 354 354 355 355 354 355
347 347 347 347 348 348 346 345 344 342 342 342 342 342 343 344 346 346 345 344 344 344 346 348 348 349 350 352 354 355 356 357 356 353 351 352 353 353 353 354 354 354
348 348 348 348 348 348 347 347 345 344 342 342 342 341 341 341 343 343 342 342 343 343 344 345 346 347 348 349 351 353 354 357 358 355 352 353 354 353 354 354 354 355
349 349 349 349 348 349 348 348 347 346 344 343 343 343 341 338 339 341 342 342 342 342 343 344 344 345 347 347 348 350 351 354 356 356 355 355 355 355 355 355 356 357
350 350 349 349 349 349 348 348 348 347 346 344 344 345 343 340 338 340 342 343 342 342 342 342 343 343 344 346 347 348 348 350 352 354 355 355 355 355 355 355 356 357
351 350 350 349 349 348 348 349 348 348 347 345 344 345 345 343 340 338 338 340 342 342 341 341 342 342 342 344 347 349 348 349 350 351 351 353 354 355 356 356 356 356
351 350 350 350 349 349 348 348 348 348 348 346 345 345 345 345 344 340 335 334 338 341 342 341 341 342 342 342 345 349 349 348 350 351 351 350 351 353 356 357 358 357
351 350 350 350 350 349 348 348 349 348 348 347 346 345 345 345 345 344 338 335 336 339 341 342 342 342 343 342 344 347 349 349 350 351 352 351 349 349 352 355 357 357
350 351 351 351 351 350 348 348 349 348 348 348 347 346 345 345 344 345 344 341 339 339 340 342 343 342 342 343 343 345 347 350 350 350 352 353 351 350 351 353 354 356
349 351 351 351 351 350 349 349 350 350 349 348 347 347 347 346 344 344 345 344 343 342 341 343 343 342 341 341 342 342 344 347 349 348 348 351 353 353 353 352 353 354
349 350 351 351 350 350 351 350 350 351 350 349 348 348 347 347 346 345 345 345 345 345 344 344 343 341 339 340 341 341 342 345 347 348 347 349 352 353 353 353 353 353
350 351 351 351 350 351 351 351 351 351 351 350 349 348 348 347 347 347 346 346 347 347 346 345 343 340 338 339 340 340 341 343 347 351 351 351 353 354 353 354 354 354
351 352 353 352 351 351 351 352 352 352 352 351 350 350 349 348 348 348 348 347 348 348 347 347 346 342 340 339 339 339 340 341 346 351 354 353 353 354 354 354 355 355
351 352 353 354 353 352 352 353 353 353 353 352 352 352 351 349 349 349 349 349 348 348 348 348 347 346 343 342 340 340 341 341 344 349 353 354 354 353 354 355 354 355
352 352 353 354 354 354 354 354 354 354 354 353 353 353 352 351 350 350 350 349 349 349 350 349 349 347 346 346 344 342 343 343 344 347 351 353 354 354 353 353 353 354
353 353 354 354 355 355 355 355 356 355 354 354 354 354 353 353 352 351 351 350 350 350 350 350 350 349 348 347 346 345 345 345 345 346 349 352 355 355 354 351 351 353
355 355 355 355 355 356 356 356 356 356 355 355 355 354 354 354 353 353 352 352 351 351 350 351 351 350 349 348 348 346 345 346 345 346 347 350 353 356 355 353 352 352
354 357 357 356 356 357 356 356 357 356 356 356 355 355 355 354 354 354 353 353 352 352 351 351 351 351 350 349 348 347 346 346 346 346 347 350 352 354 355 355 354 352
348 356 359 357 357 357 356 356 356 357 356 356 356 355 355 355 355 355 355 354 354 353 352 351 352 352 351 350 349 348 347 346 346 347 349 350 351 353 354 355 354 352
342 349 357 359 359 358 358 358 358 357 357 357 357 356 356 356 356 356 356 356 355 355 353 352 352 352 352 351 350 349 348 347 346 348 350 351 352 354 355 355 355 353

ECMWFNIL_925_thetae_108.txt.gz
Theta_e
354 355 356 356 356 355 355 355 355 355 355 355 355 356 356 357 358 358 358 359 360 359 361 361 359 359 362 362 361 361 361 360 358 356 356 355 353 351 349 349 349 349
354 354 356 355 356 356 356 355 355 354 356 355 354 356 358 358 358 358 358 359 360 358 360 361 361 362 363 363 363 362 361 360 358 357 357 357 355 353 351 350 350 349
354 353 354 354 354 355 354 354 355 354 354 355 354 355 357 356 357 358 358 359 359 358 358 360 361 362 362 364 364 362 362 361 359 357 357 357 356 355 353 351 350 350
356 354 353 352 350 352 353 353 354 354 353 353 353 354 354 354 356 358 358 358 358 358 358 359 360 360 361 363 363 360 361 362 360 360 360 359 357 355 353 352 351 350
357 355 353 352 350 351 353 353 353 353 352 352 354 354 355 355 355 356 358 358 358 358 358 359 360 359 360 362 362 361 361 360 359 361 361 360 359 357 354 353 352 351
358 356 354 353 353 352 354 354 353 352 351 352 353 353 354 356 355 354 355 356 356 356 357 357 358 358 358 360 361 361 360 359 358 361 361 360 359 358 355 354 354 353
358 357 355 354 354 353 354 354 354 353 351 351 352 353 353 354 354 353 354 354 353 353 355 356 357 358 358 359 361 361 361 360 359 361 362 360 359 359 358 356 355 355
357 358 357 355 353 354 354 354 354 354 352 351 351 352 352 352 352 353 353 354 353 352 354 355 357 359 358 358 360 360 360 360 359 360 361 359 358 359 359 358 357 357
357 357 357 356 354 353 353 352 352 353 353 353 351 351 352 351 351 350 352 355 354 353 356 356 357 360 358 357 358 360 360 359 358 359 360 359 358 358 358 357 358 358
357 357 357 356 354 353 352 351 350 351 353 353 351 349 349 351 351 350 351 356 355 354 356 357 357 359 358 356 357 358 358 358 358 359 360 360 358 357 357 357 357 358
357 356 356 356 354 353 352 351 349 349 351 353 352 349 347 350 352 351 352 355 355 352 354 357 357 358 357 355 354 356 357 357 357 358 359 359 359 358 358 357 357 357
357 356 355 355 355 353 352 351 351 349 350 351 352 350 348 348 351 352 352 354 354 352 352 356 357 357 358 357 354 353 355 355 354 356 357 358 358 359 358 358 358 358
356 356 355 354 354 354 353 352 352 350 349 351 352 351 348 347 349 352 353 353 353 352 350 353 357 357 358 359 357 353 354 356 354 353 355 356 357 357 357 357 357 357
355 356 356 354 355 355 354 353 352 351 351 351 352 352 350 348 347 350 353 353 353 352 350 351 355 357 356 358 358 354 353 355 356 354 352 353 355 355 354 354 355 356
356 356 356 356 355 356 356 355 353 353 353 352 353 352 351 349 347 347 350 352 353 353 352 349 351 355 356 356 357 357 353 352 354 356 353 351 352 353 352 352 352 353
357 357 357 357 356 356 356 356 355 354 353 353 354 354 352 351 351 349 348 349 352 354 353 351 350 352 354 351 350 353 354 352 352 355 356 354 352 351 351 350 349 350
358 359 358 358 357 357 357 357 356 355 354 354 354 355 354 353 353 352 350 349 351 353 354 353 351 351 352 349 343 343 348 354 354 354 356 356 354 352 351 349 348 347
359 359 359 359 359 358 358 358 357 356 355 355 355 355 356 355 354 354 353 351 350 351 353 354 352 351 350 348 343 338 339 347 352 353 354 355 355 353 351 350 348 347
358 358 358 358 359 359 358 358 358 357 356 356 356 356 356 356 356 355 355 354 352 351 351 352 353 353 351 348 345 340 337 340 346 350 351 352 353 353 352 352 351 351
357 356 355 357 359 359 359 359 359 358 357 356 356 356 356 357 357 356 356 356 355 353 353 352 352 353 353 350 347 345 341 340 343 347 347 348 351 352 353 353 353 353
358 357 356 357 358 359 359 359 359 359 358 356 356 356 357 358 357 357 357 357 356 356 354 354 353 352 352 351 350 348 346 344 344 347 347 346 348 351 353 354 354 355
355 357 357 357 357 359 359 359 359 359 359 358 356 355 356 358 358 357 357 357 356 356 356 355 355 353 352 352 350 350 349 346 346 348 349 349 348 350 353 355 356 356
350 354 357 358 358 358 358 359 359 359 360 360 358 357 356 356 358 358 358 357 356 357 357 356 356 355 354 353 351 350 350 348 347 348 351 351 351 351 353 355 357 358
345 349 353 357 359 359 358 358 359 358 359 359 359 358 357 356 357 358 358 358 358 357 357 357 357 356 355 354 353 352 351 349 349 350 352 353 353 353 353 354 356 357
341 345 349 352 355 357 357 357 357 358 358 359 359 359 358 357 357 357 358 359 358 358 357 357 357 357 356 355 354 353 352 350 351 352 354 355 355 355 355 355 356 357
338 341 344 347 350 352 353 353 353 354 356 358 358 358 358 358 358 357 358 359 359 359 358 357 357 357 357 356 354 353 353 351 351 354 355 356 356 357 357 357 357 358

ECMWFNIL_925_thetae_111.txt.gz
Theta_e
356 357 357 356 355 353 352 353 354 354 357 356 356 357 357 357 358 357 357 359 359 363 366 366 364 363 364 365 363 362 363 360 356 355 355 355 354 351 350 350 350 350
355 356 357 355 355 355 353 353 353 352 354 355 354 355 355 356 357 358 358 359 358 359 363 365 365 363 363 365 364 362 363 362 357 355 356 355 354 351 350 350 350 351
356 355 355 354 354 355 353 353 353 352 351 353 354 355 356 355 356 357 357 358 358 357 359 363 365 364 363 365 367 363 363 363 359 356 356 356 355 353 351 350 350 351
357 355 354 352 351 352 352 351 352 352 350 351 352 354 355 354 354 357 357 358 359 358 359 359 360 362 362 365 367 363 362 363 361 359 359 358 356 355 353 351 350 350
360 356 353 352 350 350 352 351 350 351 350 350 351 351 353 354 354 355 357 358 358 358 358 357 358 361 361 364 366 362 360 361 360 361 363 360 358 356 353 352 351 351
361 358 355 353 351 350 351 351 350 350 349 349 350 349 351 354 355 355 355 357 357 356 355 355 357 358 358 361 364 361 360 360 359 361 362 362 361 358 353 352 352 352
362 361 357 354 352 351 350 351 351 351 349 348 349 349 350 353 355 354 354 355 354 353 353 353 355 357 356 358 361 361 361 360 360 362 362 361 361 359 357 354 353 354
361 361 360 356 352 351 350 350 351 352 351 349 348 350 350 351 353 353 353 354 354 353 353 353 354 357 356 356 359 361 361 359 359 361 363 362 360 360 360 358 356 356
360 359 360 358 353 351 350 349 350 353 352 351 349 349 350 350 352 351 351 353 353 353 353 354 354 356 357 357 357 359 361 359 358 358 360 360 360 360 360 359 358 358
360 358 357 356 353 351 350 348 348 350 352 352 349 346 348 350 351 350 351 353 354 354 354 355 355 356 358 357 357 358 360 360 359 358 358 359 358 358 357 357 358 358
361 358 355 355 353 350 349 348 347 347 349 351 350 346 345 348 350 350 350 352 354 354 355 355 356 357 358 357 356 356 358 359 358 358 358 358 358 358 356 356 356 357
361 359 356 354 353 351 348 347 346 345 346 349 350 347 344 344 348 350 350 351 354 355 354 355 357 357 358 358 356 354 356 357 355 356 356 356 356 357 357 356 356 356
360 360 358 354 353 353 349 347 346 344 344 345 347 348 346 343 345 348 349 350 352 355 353 353 356 357 358 359 357 354 353 353 352 352 352 353 353 354 354 354 354 355
358 359 359 357 355 355 352 350 347 346 345 344 344 347 347 345 343 345 349 350 350 352 351 350 353 356 357 358 359 356 352 351 351 351 350 351 351 352 351 352 352 353
358 359 359 359 357 356 355 354 350 348 348 346 344 345 347 346 344 343 346 349 350 351 350 348 349 352 355 357 358 359 354 350 351 352 350 349 349 350 349 349 350 350
359 359 359 359 359 358 358 358 356 352 350 348 347 346 346 346 346 344 344 347 350 352 352 349 346 348 352 354 356 358 356 351 349 351 352 350 348 349 349 347 347 348
359 360 360 359 360 360 359 359 359 357 353 352 350 349 348 348 348 348 345 345 347 350 352 353 348 346 348 351 353 355 356 353 349 349 351 352 351 349 348 347 346 346
356 359 361 361 360 361 360 360 360 359 357 356 354 352 353 352 351 351 350 347 346 346 349 353 352 348 346 347 351 352 352 352 349 346 348 350 352 351 349 348 346 345
353 357 360 362 361 361 361 360 361 361 360 358 356 356 356 356 356 354 354 353 350 347 347 348 351 352 349 347 349 349 349 349 347 345 345 346 348 349 349 349 347 345
353 355 357 359 360 360 361 361 360 361 361 359 358 357 357 358 358 357 357 357 356 353 351 349 349 352 352 350 348 348 349 347 345 344 343 344 346 347 347 348 349 347
351 352 353 355 357 357 359 360 360 360 360 360 358 356 357 358 359 359 359 358 358 357 355 353 351 351 352 353 351 349 348 348 347 345 342 341 343 345 346 348 349 349
348 350 352 353 354 355 356 357 358 359 359 359 358 357 356 357 357 359 359 359 359 359 357 355 354 352 352 353 353 352 350 349 348 348 346 344 342 342 345 347 349 351
345 348 350 352 353 354 356 355 354 355 355 356 357 356 354 353 354 355 357 359 358 358 359 358 356 355 354 352 353 353 353 351 350 350 351 351 348 345 345 346 347 350
344 346 348 349 351 353 354 353 351 351 353 354 354 354 353 353 353 352 351 353 355 356 358 358 357 357 356 355 353 352 353 352 351 353 354 355 355 353 351 349 348 349
342 344 346 347 348 349 350 351 351 350 352 354 354 354 354 355 356 354 351 351 352 353 355 354 356 357 357 357 356 354 353 352 352 355 356 357 357 357 355 354 352 350
341 342 343 343 345 346 347 349 350 350 350 351 352 354 355 355 355 355 355 354 352 353 354 354 354 355 355 357 357 356 355 353 352 355 357 357 358 358 358 358 357 355

ECMWFNIL_925_thetae_114.txt.gz
Theta_e
357 357 356 356 356 357 358 359 358 359 360 359 359 358 358 357 355 356 358 358 360 361 360 362 362 362 362 363 362 360 359 358 356 356 356 356 356 353 352 351 349 350
358 357 357 356 356 356 355 357 357 357 358 357 357 357 357 357 356 356 356 358 359 361 362 362 361 361 362 362 361 360 362 361 357 356 356 356 356 353 351 351 350 351
358 358 358 357 357 356 354 354 354 354 356 357 356 356 356 357 357 357 357 358 358 359 362 362 360 360 361 362 361 360 362 362 358 355 355 356 356 354 352 351 350 351
357 357 358 356 356 356 354 353 354 353 354 355 355 355 356 356 357 358 358 359 358 358 358 359 360 362 362 362 363 362 361 361 359 356 356 356 356 354 353 352 350 350
358 356 356 356 354 354 354 353 353 353 353 353 354 354 355 355 356 357 358 358 358 358 357 358 361 363 361 362 364 363 361 361 361 359 358 358 357 356 355 353 352 350
360 358 356 354 353 353 354 353 352 353 352 351 352 353 353 354 355 356 358 359 358 358 358 358 360 361 360 361 364 363 361 360 360 359 360 360 359 358 356 353 352 351
361 360 357 355 353 352 353 352 352 352 351 351 351 352 352 353 355 355 357 359 358 358 357 357 358 358 359 360 362 363 361 359 359 359 360 362 361 360 357 354 352 352
360 361 359 356 353 351 351 352 352 351 350 350 350 350 351 353 354 355 356 357 357 356 354 355 356 356 357 359 360 362 362 360 359 359 360 361 361 361 359 357 355 353
359 361 361 358 354 351 351 350 351 351 350 349 350 350 350 351 353 354 355 355 356 355 354 353 354 355 356 357 358 360 361 360 358 357 360 362 362 361 360 360 359 357
358 360 360 359 355 351 351 350 349 350 351 350 349 349 349 350 351 353 354 354 354 355 354 353 354 354 356 356 356 358 360 360 359 357 359 361 361 361 361 360 360 359
356 357 356 358 356 352 350 349 348 348 350 351 350 349 349 349 350 352 353 353 353 354 354 353 353 355 356 357 357 357 358 360 360 359 358 359 359 359 359 359 359 359
357 356 354 354 355 354 351 349 348 346 348 350 351 348 347 348 350 351 352 352 352 353 354 354 354 355 356 357 357 357 357 358 360 359 359 358 358 359 358 358 358 358
356 356 354 353 353 353 351 349 348 346 346 349 351 349 347 345 347 350 351 351 352 353 354 355 355 355 355 357 358 358 357 357 358 359 359 359 358 358 359 358 358 357
353 355 355 353 352 353 352 348 347 346 345 346 348 349 347 345 344 347 350 351 351 353 354 355 356 356 356 357 358 358 357 356 356 357 357 356 356 355 356 356 357 356
351 352 353 353 353 355 355 352 348 345 345 345 347 348 348 346 343 343 347 349 350 351 354 355 355 356 357 357 358 358 357 356 355 355 355 353 353 353 353 353 353 353
351 351 351 351 352 354 356 355 353 351 346 343 344 346 347 347 345 343 343 347 349 350 351 353 354 354 355 356 358 358 358 357 354 353 353 352 351 351 351 351 351 350
351 351 350 350 351 354 355 355 353 352 352 350 347 345 344 346 347 345 343 344 347 349 350 351 352 351 351 353 355 356 357 358 356 353 352 351 351 351 350 350 349 349
353 353 352 351 350 353 354 354 354 352 352 352 353 352 348 346 346 347 346 345 345 347 349 351 352 350 348 349 351 353 354 356 357 355 352 351 351 352 351 350 349 348
352 353 353 351 350 352 353 354 355 354 353 352 351 352 351 351 351 348 347 346 345 345 347 349 351 352 350 347 346 348 351 352 354 356 354 351 349 350 351 351 350 349
347 348 350 351 351 351 353 354 354 354 354 353 353 352 351 352 353 354 353 352 350 349 348 348 349 351 351 350 347 346 347 349 350 352 353 351 348 347 348 349 350 350
345 345 348 350 349 348 351 353 354 354 354 353 354 354 353 352 352 354 355 357 356 355 353 352 352 351 351 351 350 348 347 347 348 350 351 349 346 345 344 345 346 348
344 345 346 347 346 345 348 351 352 352 352 353 354 354 355 355 354 354 354 354 355 355 355 354 354 353 351 351 351 351 349 347 347 349 349 348 346 344 342 343 344 345
343 344 344 344 345 345 346 348 351 351 351 352 353 354 355 355 355 356 355 353 353 353 354 355 355 354 352 351 351 351 351 349 348 348 349 349 348 345 343 342 342 343
341 343 343 342 344 345 345 347 350 351 351 351 352 354 356 356 356 356 355 354 353 352 353 354 354 355 355 353 352 352 352 350 349 349 349 350 350 350 348 346 345 344
339 342 343 342 343 343 341 341 345 347 348 348 348 350 352 355 356 357 357 357 356 355 354 353 353 354 355 354 354 353 353 352 350 351 352 352 353 353 353 352 350 349
336 339 340 341 342 342 339 337 337 338 338 340 342 347 348 349 351 354 356 359 359 359 358 356 353 353 354 355 355 354 354 354 352 352 354 355 355 355 355 355 354 354

ECMWFNIL_925_thetae_117.txt.gz
Theta_e
352 354 355 356 356 356 357 358 359 359 357 356 357 357 357 356 355 357 358 356 358 359 358 358 357 358 359 359 358 357 356 354 355 355 353 352 349 349 351 351 350 349
353 354 355 356 357 356 356 358 358 360 359 357 357 357 357 356 356 356 356 356 358 359 358 359 359 359 360 360 359 358 356 355 356 356 354 352 349 348 350 352 350 349
354 355 355 355 357 357 357 359 358 358 359 359 358 358 357 357 357 356 355 355 357 359 359 360 360 360 361 362 361 359 358 357 356 356 356 353 351 349 351 352 351 350
355 356 356 354 355 356 357 358 358 357 358 359 358 358 358 358 357 356 355 355 356 359 360 361 361 360 360 361 361 359 359 359 355 355 357 354 351 351 351 351 351 351
356 357 357 356 355 356 355 356 356 355 356 356 356 357 357 357 356 357 356 356 356 358 359 361 360 359 358 359 361 359 359 360 355 354 358 356 353 353 352 351 351 351
357 357 357 357 356 356 355 355 354 354 354 354 355 355 355 355 356 357 357 358 358 357 358 359 358 359 359 359 362 361 359 360 357 355 358 358 355 355 353 353 352 351
355 356 356 356 357 356 355 355 353 353 353 353 353 354 354 355 356 356 356 357 358 358 358 358 357 359 361 360 361 362 360 361 360 357 358 358 358 357 355 354 355 353
356 355 355 355 356 355 355 355 354 353 353 352 353 352 352 353 355 356 355 356 357 357 358 358 358 358 358 358 360 360 359 360 361 359 358 358 359 359 358 357 358 356
358 357 356 356 355 355 354 354 354 353 352 352 352 351 351 352 353 354 355 355 356 357 357 357 358 358 356 357 359 359 358 359 360 360 358 358 359 360 359 358 358 358
359 359 359 358 356 354 353 352 352 353 352 351 351 351 351 351 352 352 354 355 356 357 357 355 356 357 356 356 357 358 357 357 359 360 358 357 358 360 360 359 358 358
357 359 359 359 358 356 353 352 350 350 351 351 351 350 350 350 351 351 352 354 355 356 356 355 354 355 355 355 355 356 357 357 357 359 359 358 357 358 360 360 359 358
356 357 357 357 357 356 354 352 351 350 350 350 350 349 350 350 350 350 351 353 353 354 355 354 354 354 355 355 355 355 357 357 357 357 358 359 359 358 358 359 360 359
356 356 356 355 354 354 353 351 352 351 349 349 350 349 349 349 349 349 350 351 353 353 353 353 353 353 354 354 355 356 356 357 357 357 357 358 359 359 358 358 358 358
354 354 355 354 354 353 353 351 351 352 351 349 349 350 350 348 348 349 349 350 351 352 352 352 352 353 353 353 354 356 357 357 357 357 357 358 358 358 358 358 358 358
352 352 352 353 354 354 353 353 351 351 352 350 348 349 350 348 347 347 348 349 350 351 352 351 351 352 352 352 353 353 356 357 357 357 357 357 358 358 357 357 357 357
352 351 351 351 353 353 353 353 352 352 352 350 348 347 347 348 348 347 348 348 349 350 351 352 352 351 352 352 353 353 353 355 357 357 357 356 357 357 356 355 355 354
352 351 351 351 351 352 353 353 352 353 352 351 349 347 345 345 346 347 348 349 349 349 349 351 351 351 351 352 353 354 353 354 355 356 356 356 355 354 354 354 353 352
350 350 351 351 351 352 353 353 353 353 353 350 349 348 347 345 344 344 346 348 350 350 349 350 350 350 350 351 352 354 354 354 354 354 355 356 355 354 352 352 351 351
348 348 348 349 351 352 352 353 353 354 354 353 352 351 351 348 346 344 343 346 350 351 350 349 349 349 349 349 350 352 353 353 354 354 354 354 354 354 353 351 350 349
342 345 345 345 346 349 350 351 353 353 353 353 354 353 352 351 349 347 345 346 350 353 354 353 351 350 350 349 349 350 350 350 352 353 353 352 352 353 353 352 350 349
337 340 343 343 343 344 345 347 349 352 352 352 353 353 353 353 352 350 349 348 349 352 354 355 354 353 352 350 349 350 350 349 351 352 353 353 352 351 352 352 351 349
340 339 340 340 340 343 345 347 348 349 350 351 352 353 354 354 353 352 351 351 351 351 353 354 355 355 354 353 351 350 349 349 350 352 353 353 352 351 351 351 351 349
342 341 340 338 336 338 343 346 347 349 349 349 351 352 354 355 355 355 354 353 353 353 353 353 354 354 355 354 353 353 351 349 349 350 352 353 353 351 350 350 350 349
338 339 340 340 338 335 337 339 339 342 343 341 342 346 350 353 355 355 355 356 356 356 355 354 354 354 354 354 354 354 354 353 351 350 349 351 352 351 351 349 348 347
334 335 337 341 342 340 339 339 336 336 336 335 334 338 343 348 350 352 353 355 355 356 357 356 355 354 353 353 354 354 354 354 354 352 351 350 350 351 352 351 350 348
333 333 333 337 341 342 343 342 340 338 338 338 338 338 340 343 345 346 348 350 352 355 356 357 357 356 354 353 353 353 353 353 353 354 353 352 351 350 352 352 352 351